<?xml version="1.0" encoding="UTF-8" standalone="no" ?><gpx xmlns="http://www.topografix.com/GPX/1/1" xmlns:gpxx="http://www.garmin.com/xmlschemas/GpxExtensions/v3" xmlns:wptx1="http://www.garmin.com/xmlschemas/WaypointExtension/v1" xmlns:gpxtpx="http://www.garmin.com/xmlschemas/TrackPointExtension/v1" creator="GuideVTT.com" version="1.1" xmlns:xsi="http://www.w3.org/2001/XMLSchema-instance" xsi:schemaLocation="http://www.topografix.com/GPX/1/1 http://www.topografix.com/GPX/1/1/gpx.xsd http://www.garmin.com/xmlschemas/GpxExtensions/v3 http://www8.garmin.com/xmlschemas/GpxExtensionsv3.xsd http://www.garmin.com/xmlschemas/WaypointExtension/v1 http://www8.garmin.com/xmlschemas/WaypointExtensionv1.xsd http://www.garmin.com/xmlschemas/TrackPointExtension/v1 http://www.garmin.com/xmlschemas/TrackPointExtensionv1.xsd">
<metadata><link href="http://www.garmin.com"><text>Garmin International</text></link><time>2013-06-22T15:13:50Z</time></metadata>
<trk><name>cerniat:_30_juil_2013_07:35.gpx</name><extensions><gpxx:TrackExtension><gpxx:DisplayColor>Cyan</gpxx:DisplayColor></gpxx:TrackExtension></extensions><trkseg>
<trkpt lat="46.657932987436652" lon="7.049143016338348"><ele></ele><time>2013-8-9T22:39:0Z</time></trkpt>
<trkpt lat="46.65822995826602" lon="7.049256004393101"><ele></ele><time>2013-8-9T22:39:3Z</time></trkpt>
<trkpt lat="46.658428022637963" lon="7.049346026033163"><ele></ele><time>2013-8-9T22:39:6Z</time></trkpt>
<trkpt lat="46.658558025956154" lon="7.049190038815141"><ele></ele><time>2013-8-9T22:39:9Z</time></trkpt>
<trkpt lat="46.6586799826473" lon="7.048744959756732"><ele></ele><time>2013-8-9T22:39:12Z</time></trkpt>
<trkpt lat="46.658811997622252" lon="7.048313040286303"><ele></ele><time>2013-8-9T22:39:15Z</time></trkpt>
<trkpt lat="46.65889497846365" lon="7.048092009499669"><ele></ele><time>2013-8-9T22:39:18Z</time></trkpt>
<trkpt lat="46.659037973731756" lon="7.047809958457947"><ele></ele><time>2013-8-9T22:39:21Z</time></trkpt>
<trkpt lat="46.659083990380168" lon="7.047512987628579"><ele></ele><time>2013-8-9T22:39:24Z</time></trkpt>
<trkpt lat="46.659047026187181" lon="7.047159019857645"><ele></ele><time>2013-8-9T22:39:27Z</time></trkpt>
<trkpt lat="46.659027999266982" lon="7.046733973547816"><ele></ele><time>2013-8-9T22:39:30Z</time></trkpt>
<trkpt lat="46.658919034525752" lon="7.046365002170205"><ele></ele><time>2013-8-9T22:39:33Z</time></trkpt>
<trkpt lat="46.658738991245627" lon="7.046080017462373"><ele></ele><time>2013-8-9T22:39:36Z</time></trkpt>
<trkpt lat="46.6585280187428" lon="7.045893017202616"><ele></ele><time>2013-8-9T22:39:39Z</time></trkpt>
<trkpt lat="46.658130967989564" lon="7.045657988637686"><ele></ele><time>2013-8-9T22:39:42Z</time></trkpt>
<trkpt lat="46.65816499851644" lon="7.045523039996624"><ele></ele><time>2013-8-9T22:39:45Z</time></trkpt>
<trkpt lat="46.658389968797565" lon="7.045095982030034"><ele></ele><time>2013-8-9T22:39:48Z</time></trkpt>
<trkpt lat="46.658428022637963" lon="7.044744025915861"><ele></ele><time>2013-8-9T22:39:51Z</time></trkpt>
<trkpt lat="46.658427016809583" lon="7.04467898234725"><ele></ele><time>2013-8-9T22:39:54Z</time></trkpt>
<trkpt lat="46.658426010981202" lon="7.044646041467786"><ele></ele><time>2013-8-9T22:39:57Z</time></trkpt>
<trkpt lat="46.658278992399573" lon="7.044131979346275"><ele></ele><time>2013-8-9T22:40:0Z</time></trkpt>
<trkpt lat="46.65818796493113" lon="7.043652031570673"><ele></ele><time>2013-8-9T22:40:3Z</time></trkpt>
<trkpt lat="46.658156029880047" lon="7.043382972478867"><ele></ele><time>2013-8-9T22:40:6Z</time></trkpt>
<trkpt lat="46.658148989081383" lon="7.043321030214429"><ele></ele><time>2013-8-9T22:40:9Z</time></trkpt>
<trkpt lat="46.658140020444989" lon="7.04325900413096"><ele></ele><time>2013-8-9T22:40:12Z</time></trkpt>
<trkpt lat="46.658072965219617" lon="7.042670007795095"><ele></ele><time>2013-8-9T22:40:15Z</time></trkpt>
<trkpt lat="46.658011022955179" lon="7.042312016710639"><ele></ele><time>2013-8-9T22:40:18Z</time></trkpt>
<trkpt lat="46.658011022955179" lon="7.042229035869241"><ele></ele><time>2013-8-9T22:40:21Z</time></trkpt>
<trkpt lat="46.65801303461194" lon="7.042087968438864"><ele></ele><time>2013-8-9T22:40:24Z</time></trkpt>
<trkpt lat="46.658011022955179" lon="7.042020997032523"><ele></ele><time>2013-8-9T22:40:27Z</time></trkpt>
<trkpt lat="46.658009011298418" lon="7.041952013969421"><ele></ele><time>2013-8-9T22:40:30Z</time></trkpt>
<trkpt lat="46.658008005470037" lon="7.041872972622514"><ele></ele><time>2013-8-9T22:40:33Z</time></trkpt>
<trkpt lat="46.658011022955179" lon="7.041792003437877"><ele></ele><time>2013-8-9T22:40:36Z</time></trkpt>
<trkpt lat="46.65801496244967" lon="7.04171204008162"><ele></ele><time>2013-8-9T22:40:39Z</time></trkpt>
<trkpt lat="46.658095009624958" lon="7.04145303927362"><ele></ele><time>2013-8-9T22:40:42Z</time></trkpt>
<trkpt lat="46.658272035419941" lon="7.041280036792159"><ele></ele><time>2013-8-9T22:40:45Z</time></trkpt>
<trkpt lat="46.658301958814263" lon="7.04128498211503"><ele></ele><time>2013-8-9T22:40:48Z</time></trkpt>
<trkpt lat="46.658605970442295" lon="7.041349019855261"><ele></ele><time>2013-8-9T22:40:51Z</time></trkpt>
<trkpt lat="46.65891601704061" lon="7.041404005140066"><ele></ele><time>2013-8-9T22:40:54Z</time></trkpt>
<trkpt lat="46.659007966518402" lon="7.041401993483305"><ele></ele><time>2013-8-9T22:40:57Z</time></trkpt>
<trkpt lat="46.659048032015562" lon="7.041398975998163"><ele></ele><time>2013-8-9T22:41:0Z</time></trkpt>
<trkpt lat="46.65908801369369" lon="7.041397970169783"><ele></ele><time>2013-8-9T22:41:3Z</time></trkpt>
<trkpt lat="46.659140987321734" lon="7.041397970169783"><ele></ele><time>2013-8-9T22:41:6Z</time></trkpt>
<trkpt lat="46.65919697843492" lon="7.041409034281969"><ele></ele><time>2013-8-9T22:41:9Z</time></trkpt>
<trkpt lat="46.659264033660293" lon="7.041423032060266"><ele></ele><time>2013-8-9T22:41:12Z</time></trkpt>
<trkpt lat="46.659314995631576" lon="7.041437029838562"><ele></ele><time>2013-8-9T22:41:15Z</time></trkpt>
<trkpt lat="46.659363023936749" lon="7.041457984596491"><ele></ele><time>2013-8-9T22:41:18Z</time></trkpt>
<trkpt lat="46.65941096842289" lon="7.041474999859929"><ele></ele><time>2013-8-9T22:41:21Z</time></trkpt>
<trkpt lat="46.659811036661267" lon="7.04154197126627"><ele></ele><time>2013-8-9T22:41:24Z</time></trkpt>
<trkpt lat="46.660003988072276" lon="7.041525039821863"><ele></ele><time>2013-8-9T22:41:27Z</time></trkpt>
<trkpt lat="46.660052016377449" lon="7.041516993194818"><ele></ele><time>2013-8-9T22:41:30Z</time></trkpt>
<trkpt lat="46.660184031352401" lon="7.041517999023199"><ele></ele><time>2013-8-9T22:41:33Z</time></trkpt>
<trkpt lat="46.660218983888626" lon="7.041526967659593"><ele></ele><time>2013-8-9T22:41:36Z</time></trkpt>
<trkpt lat="46.660500029101968" lon="7.041534008458257"><ele></ele><time>2013-8-9T22:41:39Z</time></trkpt>
<trkpt lat="46.660559959709644" lon="7.041549012064934"><ele></ele><time>2013-8-9T22:41:42Z</time></trkpt>
<trkpt lat="46.660608993843198" lon="7.04156300984323"><ele></ele><time>2013-8-9T22:41:45Z</time></trkpt>
<trkpt lat="46.660902025178075" lon="7.041560998186469"><ele></ele><time>2013-8-9T22:41:48Z</time></trkpt>
<trkpt lat="46.661223974078894" lon="7.041406016796827"><ele></ele><time>2013-8-9T22:41:51Z</time></trkpt>
<trkpt lat="46.66151499375701" lon="7.041224967688322"><ele></ele><time>2013-8-9T22:41:54Z</time></trkpt>
<trkpt lat="46.661599986255169" lon="7.041208036243916"><ele></ele><time>2013-8-9T22:41:57Z</time></trkpt>
<trkpt lat="46.66162203066051" lon="7.041189009323716"><ele></ele><time>2013-8-9T22:42:0Z</time></trkpt>
<trkpt lat="46.661647008731961" lon="7.041170988231897"><ele></ele><time>2013-8-9T22:42:3Z</time></trkpt>
<trkpt lat="46.661701994016767" lon="7.041060011833906"><ele></ele><time>2013-8-9T22:42:6Z</time></trkpt>
<trkpt lat="46.661692019551992" lon="7.041033022105694"><ele></ele><time>2013-8-9T22:42:9Z</time></trkpt>
<trkpt lat="46.661653965711594" lon="7.040965966880322"><ele></ele><time>2013-8-9T22:42:12Z</time></trkpt>
<trkpt lat="46.661613984033465" lon="7.04087401740253"><ele></ele><time>2013-8-9T22:42:15Z</time></trkpt>
<trkpt lat="46.661563022062182" lon="7.040729010477662"><ele></ele><time>2013-8-9T22:42:18Z</time></trkpt>
<trkpt lat="46.661560004577041" lon="7.040609987452626"><ele></ele><time>2013-8-9T22:42:21Z</time></trkpt>
<trkpt lat="46.661569979041815" lon="7.0401899702847"><ele></ele><time>2013-8-9T22:42:24Z</time></trkpt>
<trkpt lat="46.661585988476872" lon="7.040152000263333"><ele></ele><time>2013-8-9T22:42:27Z</time></trkpt>
<trkpt lat="46.661638040095568" lon="7.040114030241966"><ele></ele><time>2013-8-9T22:42:30Z</time></trkpt>
<trkpt lat="46.661672992631793" lon="7.040112018585205"><ele></ele><time>2013-8-9T22:42:33Z</time></trkpt>
<trkpt lat="46.661698976531625" lon="7.040116963908076"><ele></ele><time>2013-8-9T22:42:36Z</time></trkpt>
<trkpt lat="46.661745999008417" lon="7.040128028020263"><ele></ele><time>2013-8-9T22:42:39Z</time></trkpt>
<trkpt lat="46.661873990669847" lon="7.039911020547152"><ele></ele><time>2013-8-9T22:42:42Z</time></trkpt>
<trkpt lat="46.661873990669847" lon="7.039911020547152"><ele></ele><time>2013-8-9T22:42:45Z</time></trkpt>
<trkpt lat="46.661901986226439" lon="7.039815969765186"><ele></ele><time>2013-8-9T22:42:48Z</time></trkpt>
<trkpt lat="46.661907015368342" lon="7.03969300724566"><ele></ele><time>2013-8-9T22:42:51Z</time></trkpt>
<trkpt lat="46.661907015368342" lon="7.03969300724566"><ele></ele><time>2013-8-9T22:42:54Z</time></trkpt>
<trkpt lat="46.661931993439794" lon="7.039649002254009"><ele></ele><time>2013-8-9T22:42:57Z</time></trkpt>
<trkpt lat="46.661997959017754" lon="7.039588987827301"><ele></ele><time>2013-8-9T22:43:0Z</time></trkpt>
<trkpt lat="46.662099966779351" lon="7.039440041407943"><ele></ele><time>2013-8-9T22:43:3Z</time></trkpt>
<trkpt lat="46.662167022004724" lon="7.039409028366208"><ele></ele><time>2013-8-9T22:43:6Z</time></trkpt>
<trkpt lat="46.662219995632768" lon="7.039416991174221"><ele></ele><time>2013-8-9T22:43:9Z</time></trkpt>
<trkpt lat="46.662294007837772" lon="7.03939201310277"><ele></ele><time>2013-8-9T22:43:12Z</time></trkpt>
<trkpt lat="46.662294007837772" lon="7.039396958425641"><ele></ele><time>2013-8-9T22:43:15Z</time></trkpt>
<trkpt lat="46.662291996181011" lon="7.039340967312455"><ele></ele><time>2013-8-9T22:43:18Z</time></trkpt>
<trkpt lat="46.662287972867489" lon="7.039281958714128"><ele></ele><time>2013-8-9T22:43:21Z</time></trkpt>
<trkpt lat="46.662319991737604" lon="7.039253963157535"><ele></ele><time>2013-8-9T22:43:24Z</time></trkpt>
<trkpt lat="46.662360979244113" lon="7.03919998370111"><ele></ele><time>2013-8-9T22:43:27Z</time></trkpt>
<trkpt lat="46.662388974800706" lon="7.03920098952949"><ele></ele><time>2013-8-9T22:43:30Z</time></trkpt>
<trkpt lat="46.662398027256131" lon="7.039168970659375"><ele></ele><time>2013-8-9T22:43:33Z</time></trkpt>
<trkpt lat="46.662434991449118" lon="7.039151033386588"><ele></ele><time>2013-8-9T22:43:36Z</time></trkpt>
<trkpt lat="46.662497017532587" lon="7.039166036993265"><ele></ele><time>2013-8-9T22:43:39Z</time></trkpt>
<trkpt lat="46.662503974512219" lon="7.039148015901446"><ele></ele><time>2013-8-9T22:43:42Z</time></trkpt>
<trkpt lat="46.662458963692188" lon="7.039143992587924"><ele></ele><time>2013-8-9T22:43:45Z</time></trkpt>
<trkpt lat="46.662481008097529" lon="7.039095964282751"><ele></ele><time>2013-8-9T22:43:48Z</time></trkpt>
<trkpt lat="46.662533981725574" lon="7.039125971496105"><ele></ele><time>2013-8-9T22:43:51Z</time></trkpt>
<trkpt lat="46.662569018080831" lon="7.039101999253035"><ele></ele><time>2013-8-9T22:43:54Z</time></trkpt>
<trkpt lat="46.662614028900862" lon="7.039124965667725"><ele></ele><time>2013-8-9T22:43:57Z</time></trkpt>
<trkpt lat="46.662669014185667" lon="7.039257986471057"><ele></ele><time>2013-8-9T22:44:0Z</time></trkpt>
<trkpt lat="46.662683011963964" lon="7.039492009207606"><ele></ele><time>2013-8-9T22:44:3Z</time></trkpt>
<trkpt lat="46.662700027227402" lon="7.03960700891912"><ele></ele><time>2013-8-9T22:44:6Z</time></trkpt>
<trkpt lat="46.662727016955614" lon="7.039759978652"><ele></ele><time>2013-8-9T22:44:9Z</time></trkpt>
<trkpt lat="46.662745038047433" lon="7.039826028048992"><ele></ele><time>2013-8-9T22:44:12Z</time></trkpt>
<trkpt lat="46.662794994190335" lon="7.040054015815258"><ele></ele><time>2013-8-9T22:44:15Z</time></trkpt>
<trkpt lat="46.662875041365623" lon="7.04044503159821"><ele></ele><time>2013-8-9T22:44:18Z</time></trkpt>
<trkpt lat="46.662949975579977" lon="7.040709983557463"><ele></ele><time>2013-8-9T22:44:21Z</time></trkpt>
<trkpt lat="46.66295500472188" lon="7.040747031569481"><ele></ele><time>2013-8-9T22:44:24Z</time></trkpt>
<trkpt lat="46.662958022207022" lon="7.040806040167809"><ele></ele><time>2013-8-9T22:44:27Z</time></trkpt>
<trkpt lat="46.662990963086486" lon="7.040864964947104"><ele></ele><time>2013-8-9T22:44:30Z</time></trkpt>
<trkpt lat="46.662986017763615" lon="7.041122037917376"><ele></ele><time>2013-8-9T22:44:33Z</time></trkpt>
<trkpt lat="46.663030022755265" lon="7.041246006265283"><ele></ele><time>2013-8-9T22:44:36Z</time></trkpt>
<trkpt lat="46.662957016378641" lon="7.041664011776447"><ele></ele><time>2013-8-9T22:44:39Z</time></trkpt>
<trkpt lat="46.662864983081818" lon="7.04184103757143"><ele></ele><time>2013-8-9T22:44:42Z</time></trkpt>
<trkpt lat="46.662828018888831" lon="7.0419289637357"><ele></ele><time>2013-8-9T22:44:45Z</time></trkpt>
<trkpt lat="46.66276297532022" lon="7.042258959263563"><ele></ele><time>2013-8-9T22:44:48Z</time></trkpt>
<trkpt lat="46.66274000890553" lon="7.042415030300617"><ele></ele><time>2013-8-9T22:44:51Z</time></trkpt>
<trkpt lat="46.662737997248769" lon="7.042472027242184"><ele></ele><time>2013-8-9T22:44:54Z</time></trkpt>
<trkpt lat="46.662716958671808" lon="7.042757011950016"><ele></ele><time>2013-8-9T22:44:57Z</time></trkpt>
<trkpt lat="46.662707990035415" lon="7.042795987799764"><ele></ele><time>2013-8-9T22:45:0Z</time></trkpt>
<trkpt lat="46.662706984207034" lon="7.042836975306273"><ele></ele><time>2013-8-9T22:45:3Z</time></trkpt>
<trkpt lat="46.66269700974226" lon="7.042995980009437"><ele></ele><time>2013-8-9T22:45:6Z</time></trkpt>
<trkpt lat="46.662664990872145" lon="7.043138975277543"><ele></ele><time>2013-8-9T22:45:9Z</time></trkpt>
<trkpt lat="46.662641018629074" lon="7.043219022452831"><ele></ele><time>2013-8-9T22:45:12Z</time></trkpt>
<trkpt lat="46.662535993382335" lon="7.043989989906549"><ele></ele><time>2013-8-9T22:45:15Z</time></trkpt>
<trkpt lat="46.662490982562304" lon="7.044158969074488"><ele></ele><time>2013-8-9T22:45:18Z</time></trkpt>
<trkpt lat="46.662452006712556" lon="7.044244967401028"><ele></ele><time>2013-8-9T22:45:21Z</time></trkpt>
<trkpt lat="46.662408001720905" lon="7.044327026233077"><ele></ele><time>2013-8-9T22:45:24Z</time></trkpt>
<trkpt lat="46.662370031699538" lon="7.044400032609701"><ele></ele><time>2013-8-9T22:45:27Z</time></trkpt>
<trkpt lat="46.662342036142945" lon="7.044461974874139"><ele></ele><time>2013-8-9T22:45:30Z</time></trkpt>
<trkpt lat="46.662318985909224" lon="7.044519977644086"><ele></ele><time>2013-8-9T22:45:33Z</time></trkpt>
<trkpt lat="46.662300964817405" lon="7.044583009555936"><ele></ele><time>2013-8-9T22:45:36Z</time></trkpt>
<trkpt lat="46.662284033372998" lon="7.044654004275799"><ele></ele><time>2013-8-9T22:45:39Z</time></trkpt>
<trkpt lat="46.662276992574334" lon="7.044732961803675"><ele></ele><time>2013-8-9T22:45:42Z</time></trkpt>
<trkpt lat="46.662275986745954" lon="7.044818038120866"><ele></ele><time>2013-8-9T22:45:45Z</time></trkpt>
<trkpt lat="46.662293002009392" lon="7.044896995648742"><ele></ele><time>2013-8-9T22:45:48Z</time></trkpt>
<trkpt lat="46.662319991737604" lon="7.044970002025366"><ele></ele><time>2013-8-9T22:45:51Z</time></trkpt>
<trkpt lat="46.662345975637436" lon="7.045048037543893"><ele></ele><time>2013-8-9T22:45:54Z</time></trkpt>
<trkpt lat="46.662371037527919" lon="7.04512900672853"><ele></ele><time>2013-8-9T22:45:57Z</time></trkpt>
<trkpt lat="46.662387968972325" lon="7.045210981741548"><ele></ele><time>2013-8-9T22:46:0Z</time></trkpt>
<trkpt lat="46.662397021427751" lon="7.045296980068088"><ele></ele><time>2013-8-9T22:46:3Z</time></trkpt>
<trkpt lat="46.662400038912892" lon="7.045384990051389"><ele></ele><time>2013-8-9T22:46:6Z</time></trkpt>
<trkpt lat="46.66239601559937" lon="7.045467970892787"><ele></ele><time>2013-8-9T22:46:9Z</time></trkpt>
<trkpt lat="46.662379000335932" lon="7.045551035553217"><ele></ele><time>2013-8-9T22:46:12Z</time></trkpt>
<trkpt lat="46.662363996729255" lon="7.045650025829673"><ele></ele><time>2013-8-9T22:46:15Z</time></trkpt>
<trkpt lat="46.662348993122578" lon="7.045756978914142"><ele></ele><time>2013-8-9T22:46:18Z</time></trkpt>
<trkpt lat="46.662238016724586" lon="7.046266011893749"><ele></ele><time>2013-8-9T22:46:21Z</time></trkpt>
<trkpt lat="46.662171967327595" lon="7.046558959409595"><ele></ele><time>2013-8-9T22:46:24Z</time></trkpt>
<trkpt lat="46.662128968164325" lon="7.046840004622936"><ele></ele><time>2013-8-9T22:46:27Z</time></trkpt>
<trkpt lat="46.662129973992705" lon="7.046908987686038"><ele></ele><time>2013-8-9T22:46:30Z</time></trkpt>
<trkpt lat="46.662139026448131" lon="7.047191960737109"><ele></ele><time>2013-8-9T22:46:33Z</time></trkpt>
<trkpt lat="46.662153024226427" lon="7.047378960996866"><ele></ele><time>2013-8-9T22:46:36Z</time></trkpt>
<trkpt lat="46.662133997306228" lon="7.047838037833571"><ele></ele><time>2013-8-9T22:46:39Z</time></trkpt>
<trkpt lat="46.662124022841454" lon="7.047890005633235"><ele></ele><time>2013-8-9T22:46:42Z</time></trkpt>
<trkpt lat="46.662115976214409" lon="7.047931998968124"><ele></ele><time>2013-8-9T22:46:45Z</time></trkpt>
<trkpt lat="46.662103990092874" lon="7.047971980646253"><ele></ele><time>2013-8-9T22:46:48Z</time></trkpt>
<trkpt lat="46.662011034786701" lon="7.04826601780951"><ele></ele><time>2013-8-9T22:46:51Z</time></trkpt>
<trkpt lat="46.661899974569678" lon="7.048528958112001"><ele></ele><time>2013-8-9T22:46:54Z</time></trkpt>
<trkpt lat="46.661869967356324" lon="7.048619985580444"><ele></ele><time>2013-8-9T22:46:57Z</time></trkpt>
<trkpt lat="46.661843983456492" lon="7.048719981685281"><ele></ele><time>2013-8-9T22:47:0Z</time></trkpt>
<trkpt lat="46.661640973761678" lon="7.049422971904278"><ele></ele><time>2013-8-9T22:47:3Z</time></trkpt>
<trkpt lat="46.661594035103917" lon="7.049519028514624"><ele></ele><time>2013-8-9T22:47:6Z</time></trkpt>
<trkpt lat="46.661483980715275" lon="7.049703011289239"><ele></ele><time>2013-8-9T22:47:9Z</time></trkpt>
<trkpt lat="46.661405023187399" lon="7.049857992678881"><ele></ele><time>2013-8-9T22:47:12Z</time></trkpt>
<trkpt lat="46.661227997392416" lon="7.050153035670519"><ele></ele><time>2013-8-9T22:47:15Z</time></trkpt>
<trkpt lat="46.661136969923973" lon="7.050322014838457"><ele></ele><time>2013-8-9T22:47:18Z</time></trkpt>
<trkpt lat="46.661092964932323" lon="7.050409018993378"><ele></ele><time>2013-8-9T22:47:21Z</time></trkpt>
<trkpt lat="46.66104200296104" lon="7.050494011491537"><ele></ele><time>2013-8-9T22:47:24Z</time></trkpt>
<trkpt lat="46.660985006019473" lon="7.050576992332935"><ele></ele><time>2013-8-9T22:47:27Z</time></trkpt>
<trkpt lat="46.660880986601114" lon="7.050742032006383"><ele></ele><time>2013-8-9T22:47:30Z</time></trkpt>
<trkpt lat="46.660838993266225" lon="7.050820989534259"><ele></ele><time>2013-8-9T22:47:33Z</time></trkpt>
<trkpt lat="46.660805968567729" lon="7.050901958718896"><ele></ele><time>2013-8-9T22:47:36Z</time></trkpt>
<trkpt lat="46.660780990496278" lon="7.050992986187339"><ele></ele><time>2013-8-9T22:47:39Z</time></trkpt>
<trkpt lat="46.660752994939685" lon="7.051087031140924"><ele></ele><time>2013-8-9T22:47:42Z</time></trkpt>
<trkpt lat="46.660703960806131" lon="7.051261961460114"><ele></ele><time>2013-8-9T22:47:45Z</time></trkpt>
<trkpt lat="46.660703960806131" lon="7.051355000585318"><ele></ele><time>2013-8-9T22:47:48Z</time></trkpt>
<trkpt lat="46.660672025755048" lon="7.051883982494473"><ele></ele><time>2013-8-9T22:47:51Z</time></trkpt>
<trkpt lat="46.660672025755048" lon="7.051994958892465"><ele></ele><time>2013-8-9T22:47:54Z</time></trkpt>
<trkpt lat="46.660672025755048" lon="7.052107024937868"><ele></ele><time>2013-8-9T22:47:57Z</time></trkpt>
<trkpt lat="46.660668002441525" lon="7.052214983850718"><ele></ele><time>2013-8-9T22:48:0Z</time></trkpt>
<trkpt lat="46.660662973299623" lon="7.052321014925838"><ele></ele><time>2013-8-9T22:48:3Z</time></trkpt>
<trkpt lat="46.660658027976751" lon="7.052420005202293"><ele></ele><time>2013-8-9T22:48:6Z</time></trkpt>
<trkpt lat="46.660644030198455" lon="7.052611028775573"><ele></ele><time>2013-8-9T22:48:9Z</time></trkpt>
<trkpt lat="46.660632966086268" lon="7.052797023206949"><ele></ele><time>2013-8-9T22:48:12Z</time></trkpt>
<trkpt lat="46.660628020763397" lon="7.052895007655025"><ele></ele><time>2013-8-9T22:48:15Z</time></trkpt>
<trkpt lat="46.660615028813481" lon="7.052989974617958"><ele></ele><time>2013-8-9T22:48:18Z</time></trkpt>
<trkpt lat="46.660602036863565" lon="7.053087037056684"><ele></ele><time>2013-8-9T22:48:21Z</time></trkpt>
<trkpt lat="46.660588039085269" lon="7.053312007337809"><ele></ele><time>2013-8-9T22:48:24Z</time></trkpt>
<trkpt lat="46.660594996064901" lon="7.053427007049322"><ele></ele><time>2013-8-9T22:48:27Z</time></trkpt>
<trkpt lat="46.660617040470243" lon="7.053758008405566"><ele></ele><time>2013-8-9T22:48:30Z</time></trkpt>
<trkpt lat="46.660633971914649" lon="7.053877031430602"><ele></ele><time>2013-8-9T22:48:33Z</time></trkpt>
<trkpt lat="46.66065501049161" lon="7.053995970636606"><ele></ele><time>2013-8-9T22:48:36Z</time></trkpt>
<trkpt lat="46.66069901548326" lon="7.054343987256289"><ele></ele><time>2013-8-9T22:48:39Z</time></trkpt>
<trkpt lat="46.660723993554711" lon="7.054788982495666"><ele></ele><time>2013-8-9T22:48:42Z</time></trkpt>
<trkpt lat="46.660733968019485" lon="7.054899036884308"><ele></ele><time>2013-8-9T22:48:45Z</time></trkpt>
<trkpt lat="46.660746037960052" lon="7.055086037144065"><ele></ele><time>2013-8-9T22:48:48Z</time></trkpt>
<trkpt lat="46.660752994939685" lon="7.055171029642224"><ele></ele><time>2013-8-9T22:48:51Z</time></trkpt>
<trkpt lat="46.660757018253207" lon="7.0552499871701"><ele></ele><time>2013-8-9T22:48:54Z</time></trkpt>
<trkpt lat="46.660769004374743" lon="7.055319976061583"><ele></ele><time>2013-8-9T22:48:57Z</time></trkpt>
<trkpt lat="46.660775961354375" lon="7.05537898465991"><ele></ele><time>2013-8-9T22:49:0Z</time></trkpt>
<trkpt lat="46.660780990496278" lon="7.055431958287954"><ele></ele><time>2013-8-9T22:49:3Z</time></trkpt>
<trkpt lat="46.660783002153039" lon="7.055481998249888"><ele></ele><time>2013-8-9T22:49:6Z</time></trkpt>
<trkpt lat="46.660786019638181" lon="7.055537989363074"><ele></ele><time>2013-8-9T22:49:9Z</time></trkpt>
<trkpt lat="46.660792976617813" lon="7.055604960769415"><ele></ele><time>2013-8-9T22:49:12Z</time></trkpt>
<trkpt lat="46.660803034901619" lon="7.055666986852884"><ele></ele><time>2013-8-9T22:49:15Z</time></trkpt>
<trkpt lat="46.660812003538013" lon="7.055731024593115"><ele></ele><time>2013-8-9T22:49:18Z</time></trkpt>
<trkpt lat="46.660820972174406" lon="7.055795984342694"><ele></ele><time>2013-8-9T22:49:21Z</time></trkpt>
<trkpt lat="46.660829018801451" lon="7.055858010426164"><ele></ele><time>2013-8-9T22:49:24Z</time></trkpt>
<trkpt lat="46.660858020186424" lon="7.056223964318633"><ele></ele><time>2013-8-9T22:49:27Z</time></trkpt>
<trkpt lat="46.660857014358044" lon="7.056403001770377"><ele></ele><time>2013-8-9T22:49:30Z</time></trkpt>
<trkpt lat="46.660858020186424" lon="7.056497968733311"><ele></ele><time>2013-8-9T22:49:33Z</time></trkpt>
<trkpt lat="46.660855002701283" lon="7.056588996201754"><ele></ele><time>2013-8-9T22:49:36Z</time></trkpt>
<trkpt lat="46.660857014358044" lon="7.056679017841816"><ele></ele><time>2013-8-9T22:49:39Z</time></trkpt>
<trkpt lat="46.660869000479579" lon="7.056761998683214"><ele></ele><time>2013-8-9T22:49:42Z</time></trkpt>
<trkpt lat="46.660889033228159" lon="7.056835005059838"><ele></ele><time>2013-8-9T22:49:45Z</time></trkpt>
<trkpt lat="46.660915017127991" lon="7.056904993951321"><ele></ele><time>2013-8-9T22:49:48Z</time></trkpt>
<trkpt lat="46.660944018512964" lon="7.056974982842803"><ele></ele><time>2013-8-9T22:49:51Z</time></trkpt>
<trkpt lat="46.660971008241177" lon="7.057048995047808"><ele></ele><time>2013-8-9T22:49:54Z</time></trkpt>
<trkpt lat="46.660994980484247" lon="7.057132981717587"><ele></ele><time>2013-8-9T22:49:57Z</time></trkpt>
<trkpt lat="46.66102297604084" lon="7.057223003357649"><ele></ele><time>2013-8-9T22:50:0Z</time></trkpt>
<trkpt lat="46.661052983254194" lon="7.057324005290866"><ele></ele><time>2013-8-9T22:50:3Z</time></trkpt>
<trkpt lat="46.661069998517632" lon="7.057435987517238"><ele></ele><time>2013-8-9T22:50:6Z</time></trkpt>
<trkpt lat="46.661080978810787" lon="7.057556016370654"><ele></ele><time>2013-8-9T22:50:9Z</time></trkpt>
<trkpt lat="46.661095982417464" lon="7.057675961405039"><ele></ele><time>2013-8-9T22:50:12Z</time></trkpt>
<trkpt lat="46.661118026822805" lon="7.057918030768633"><ele></ele><time>2013-8-9T22:50:15Z</time></trkpt>
<trkpt lat="46.66114803403616" lon="7.058152975514531"><ele></ele><time>2013-8-9T22:50:18Z</time></trkpt>
<trkpt lat="46.661411980167031" lon="7.059098035097122"><ele></ele><time>2013-8-9T22:50:21Z</time></trkpt>
<trkpt lat="46.661565033718944" lon="7.059543030336499"><ele></ele><time>2013-8-9T22:50:24Z</time></trkpt>
<trkpt lat="46.661660000681877" lon="7.059775963425636"><ele></ele><time>2013-8-9T22:50:27Z</time></trkpt>
<trkpt lat="46.661670980975032" lon="7.059834972023964"><ele></ele><time>2013-8-9T22:50:30Z</time></trkpt>
<trkpt lat="46.661670980975032" lon="7.059883000329137"><ele></ele><time>2013-8-9T22:50:33Z</time></trkpt>
<trkpt lat="46.661661006510258" lon="7.05993102863431"><ele></ele><time>2013-8-9T22:50:36Z</time></trkpt>
<trkpt lat="46.661641979590058" lon="7.059982996433973"><ele></ele><time>2013-8-9T22:50:39Z</time></trkpt>
<trkpt lat="46.661618007346988" lon="7.06003999337554"><ele></ele><time>2013-8-9T22:50:42Z</time></trkpt>
<trkpt lat="46.661597974598408" lon="7.060101013630629"><ele></ele><time>2013-8-9T22:50:45Z</time></trkpt>
<trkpt lat="46.661578025668859" lon="7.060167985036969"><ele></ele><time>2013-8-9T22:50:48Z</time></trkpt>
<trkpt lat="46.661551035940647" lon="7.060229005292058"><ele></ele><time>2013-8-9T22:50:51Z</time></trkpt>
<trkpt lat="46.661524968221784" lon="7.060268986970186"><ele></ele><time>2013-8-9T22:50:54Z</time></trkpt>
<trkpt lat="46.661510970443487" lon="7.060292037203908"><ele></ele><time>2013-8-9T22:50:57Z</time></trkpt>
<trkpt lat="46.661513987928629" lon="7.060305029153824"><ele></ele><time>2013-8-9T22:51:0Z</time></trkpt>
<trkpt lat="46.6615379601717" lon="7.060308968648314"><ele></ele><time>2013-8-9T22:51:3Z</time></trkpt>
<trkpt lat="46.661562016233802" lon="7.060324978083372"><ele></ele><time>2013-8-9T22:51:6Z</time></trkpt>
<trkpt lat="46.661583976820111" lon="7.060348028317094"><ele></ele><time>2013-8-9T22:51:9Z</time></trkpt>
<trkpt lat="46.661607027053833" lon="7.060375018045306"><ele></ele><time>2013-8-9T22:51:12Z</time></trkpt>
<trkpt lat="46.661623036488891" lon="7.060406031087041"><ele></ele><time>2013-8-9T22:51:15Z</time></trkpt>
<trkpt lat="46.661629993468523" lon="7.060436038300395"><ele></ele><time>2013-8-9T22:51:18Z</time></trkpt>
<trkpt lat="46.661629993468523" lon="7.060467973351479"><ele></ele><time>2013-8-9T22:51:21Z</time></trkpt>
<trkpt lat="46.661633010953665" lon="7.060507033020258"><ele></ele><time>2013-8-9T22:51:24Z</time></trkpt>
<trkpt lat="46.661642985418439" lon="7.060548020526767"><ele></ele><time>2013-8-9T22:51:27Z</time></trkpt>
<trkpt lat="46.661651032045484" lon="7.060586996376514"><ele></ele><time>2013-8-9T22:51:30Z</time></trkpt>
<trkpt lat="46.661653965711594" lon="7.060689004138112"><ele></ele><time>2013-8-9T22:51:33Z</time></trkpt>
<trkpt lat="46.66166502982378" lon="7.060922021046281"><ele></ele><time>2013-8-9T22:51:36Z</time></trkpt>
<trkpt lat="46.661677015945315" lon="7.06098698079586"><ele></ele><time>2013-8-9T22:51:39Z</time></trkpt>
<trkpt lat="46.661697970703244" lon="7.061045989394188"><ele></ele><time>2013-8-9T22:51:42Z</time></trkpt>
<trkpt lat="46.661724960431457" lon="7.061095023527741"><ele></ele><time>2013-8-9T22:51:45Z</time></trkpt>
<trkpt lat="46.661762008443475" lon="7.061122013255954"><ele></ele><time>2013-8-9T22:51:48Z</time></trkpt>
<trkpt lat="46.661801990121603" lon="7.061140034347773"><ele></ele><time>2013-8-9T22:51:51Z</time></trkpt>
<trkpt lat="46.662035007029772" lon="7.061468018218875"><ele></ele><time>2013-8-9T22:51:54Z</time></trkpt>
<trkpt lat="46.662063002586365" lon="7.061529960483313"><ele></ele><time>2013-8-9T22:51:57Z</time></trkpt>
<trkpt lat="46.662079012021422" lon="7.06158796325326"><ele></ele><time>2013-8-9T22:52:0Z</time></trkpt>
<trkpt lat="46.662096027284861" lon="7.061645966023207"><ele></ele><time>2013-8-9T22:52:3Z</time></trkpt>
<trkpt lat="46.662098960950971" lon="7.061703968793154"><ele></ele><time>2013-8-9T22:52:6Z</time></trkpt>
<trkpt lat="46.662103990092874" lon="7.061916030943394"><ele></ele><time>2013-8-9T22:52:9Z</time></trkpt>
<trkpt lat="46.662094015628099" lon="7.061974033713341"><ele></ele><time>2013-8-9T22:52:12Z</time></trkpt>
<trkpt lat="46.662077000364661" lon="7.06203798763454"><ele></ele><time>2013-8-9T22:52:15Z</time></trkpt>
<trkpt lat="46.6620749887079" lon="7.06210495904088"><ele></ele><time>2013-8-9T22:52:18Z</time></trkpt>
<trkpt lat="46.662080017849803" lon="7.062157010659575"><ele></ele><time>2013-8-9T22:52:21Z</time></trkpt>
<trkpt lat="46.662158975377679" lon="7.062287013977766"><ele></ele><time>2013-8-9T22:52:24Z</time></trkpt>
<trkpt lat="46.662184959277511" lon="7.062365971505642"><ele></ele><time>2013-8-9T22:52:27Z</time></trkpt>
<trkpt lat="46.662166016176343" lon="7.062588008120656"><ele></ele><time>2013-8-9T22:52:30Z</time></trkpt>
<trkpt lat="46.662197029218078" lon="7.062697978690267"><ele></ele><time>2013-8-9T22:52:33Z</time></trkpt>
<trkpt lat="46.662243967875838" lon="7.062749024480581"><ele></ele><time>2013-8-9T22:52:36Z</time></trkpt>
<trkpt lat="46.662343963980675" lon="7.062890008091927"><ele></ele><time>2013-8-9T22:52:39Z</time></trkpt>
<trkpt lat="46.662370031699538" lon="7.062911968678236"><ele></ele><time>2013-8-9T22:52:42Z</time></trkpt>
<trkpt lat="46.662518978118896" lon="7.063302984461188"><ele></ele><time>2013-8-9T22:52:45Z</time></trkpt>
<trkpt lat="46.662530964240432" lon="7.063327040523291"><ele></ele><time>2013-8-9T22:52:48Z</time></trkpt>
<trkpt lat="46.662554014474154" lon="7.063341038301587"><ele></ele><time>2013-8-9T22:52:51Z</time></trkpt>
<trkpt lat="46.662574969232082" lon="7.06341203302145"><ele></ele><time>2013-8-9T22:52:54Z</time></trkpt>
<trkpt lat="46.662607993930578" lon="7.063514040783048"><ele></ele><time>2013-8-9T22:52:57Z</time></trkpt>
<trkpt lat="46.662659039720893" lon="7.063552010804415"><ele></ele><time>2013-8-9T22:53:0Z</time></trkpt>
<trkpt lat="46.662690974771976" lon="7.063617976382375"><ele></ele><time>2013-8-9T22:53:3Z</time></trkpt>
<trkpt lat="46.662735985592008" lon="7.06367002800107"><ele></ele><time>2013-8-9T22:53:6Z</time></trkpt>
<trkpt lat="46.662801029160619" lon="7.063901033252478"><ele></ele><time>2013-8-9T22:53:9Z</time></trkpt>
<trkpt lat="46.662825001403689" lon="7.063931040465832"><ele></ele><time>2013-8-9T22:53:12Z</time></trkpt>
<trkpt lat="46.662837993353605" lon="7.063983008265495"><ele></ele><time>2013-8-9T22:53:15Z</time></trkpt>
<trkpt lat="46.662798011675477" lon="7.064042016863823"><ele></ele><time>2013-8-9T22:53:18Z</time></trkpt>
<trkpt lat="46.662800023332238" lon="7.064062971621752"><ele></ele><time>2013-8-9T22:53:21Z</time></trkpt>
<trkpt lat="46.662775967270136" lon="7.064119968563318"><ele></ele><time>2013-8-9T22:53:24Z</time></trkpt>
<trkpt lat="46.662806980311871" lon="7.064218036830425"><ele></ele><time>2013-8-9T22:53:27Z</time></trkpt>
<trkpt lat="46.662802034988999" lon="7.064228011295199"><ele></ele><time>2013-8-9T22:53:30Z</time></trkpt>
<trkpt lat="46.662787031382322" lon="7.064323984086514"><ele></ele><time>2013-8-9T22:53:33Z</time></trkpt>
<trkpt lat="46.662777978926897" lon="7.064393972977996"><ele></ele><time>2013-8-9T22:53:36Z</time></trkpt>
<trkpt lat="46.662782002240419" lon="7.06468197517097"><ele></ele><time>2013-8-9T22:53:39Z</time></trkpt>
<trkpt lat="46.662629032507539" lon="7.064864030107856"><ele></ele><time>2013-8-9T22:53:42Z</time></trkpt>
<trkpt lat="46.662592990323901" lon="7.064912980422378"><ele></ele><time>2013-8-9T22:53:45Z</time></trkpt>
<trkpt lat="46.662604976445436" lon="7.064914992079139"><ele></ele><time>2013-8-9T22:53:48Z</time></trkpt>
<trkpt lat="46.66289197281003" lon="7.064723968505859"><ele></ele><time>2013-8-9T22:53:51Z</time></trkpt>
<trkpt lat="46.662923991680145" lon="7.064720029011369"><ele></ele><time>2013-8-9T22:53:54Z</time></trkpt>
<trkpt lat="46.662969002500176" lon="7.064718017354608"><ele></ele><time>2013-8-9T22:53:57Z</time></trkpt>
<trkpt lat="46.663008984178305" lon="7.064711982384324"><ele></ele><time>2013-8-9T22:54:0Z</time></trkpt>
<trkpt lat="46.663045026361942" lon="7.064796974882483"><ele></ele><time>2013-8-9T22:54:3Z</time></trkpt>
<trkpt lat="46.663092970848083" lon="7.064868975430727"><ele></ele><time>2013-8-9T22:54:6Z</time></trkpt>
<trkpt lat="46.663122978061438" lon="7.065099980682135"><ele></ele><time>2013-8-9T22:54:9Z</time></trkpt>
<trkpt lat="46.66314996778965" lon="7.065271977335215"><ele></ele><time>2013-8-9T22:54:12Z</time></trkpt>
<trkpt lat="46.663164971396327" lon="7.065470963716507"><ele></ele><time>2013-8-9T22:54:15Z</time></trkpt>
<trkpt lat="46.663067992776632" lon="7.065875977277756"><ele></ele><time>2013-8-9T22:54:18Z</time></trkpt>
<trkpt lat="46.663094982504845" lon="7.066027019172907"><ele></ele><time>2013-8-9T22:54:21Z</time></trkpt>
<trkpt lat="46.663183998316526" lon="7.066513001918793"><ele></ele><time>2013-8-9T22:54:24Z</time></trkpt>
<trkpt lat="46.663423972204328" lon="7.066835034638643"><ele></ele><time>2013-8-9T22:54:27Z</time></trkpt>
<trkpt lat="46.66353402659297" lon="7.067195037379861"><ele></ele><time>2013-8-9T22:54:30Z</time></trkpt>
<trkpt lat="46.663555987179279" lon="7.067336020991206"><ele></ele><time>2013-8-9T22:54:33Z</time></trkpt>
<trkpt lat="46.663565039634705" lon="7.067329986020923"><ele></ele><time>2013-8-9T22:54:36Z</time></trkpt>
<trkpt lat="46.663582976907492" lon="7.067329986020923"><ele></ele><time>2013-8-9T22:54:39Z</time></trkpt>
<trkpt lat="46.663613989949226" lon="7.067348007112741"><ele></ele><time>2013-8-9T22:54:42Z</time></trkpt>
<trkpt lat="46.663638968020678" lon="7.067360999062657"><ele></ele><time>2013-8-9T22:54:45Z</time></trkpt>
<trkpt lat="46.6637500282377" lon="7.067415984347463"><ele></ele><time>2013-8-9T22:54:48Z</time></trkpt>
<trkpt lat="46.663794033229351" lon="7.067444985732436"><ele></ele><time>2013-8-9T22:54:51Z</time></trkpt>
<trkpt lat="46.663821022957563" lon="7.067467030137777"><ele></ele><time>2013-8-9T22:54:54Z</time></trkpt>
<trkpt lat="46.663850024342537" lon="7.067484967410564"><ele></ele><time>2013-8-9T22:54:57Z</time></trkpt>
<trkpt lat="46.663881037384272" lon="7.067500976845622"><ele></ele><time>2013-8-9T22:55:0Z</time></trkpt>
<trkpt lat="46.663899980485439" lon="7.067518997937441"><ele></ele><time>2013-8-9T22:55:3Z</time></trkpt>
<trkpt lat="46.663905009627342" lon="7.067544981837273"><ele></ele><time>2013-8-9T22:55:6Z</time></trkpt>
<trkpt lat="46.663907021284103" lon="7.067570965737104"><ele></ele><time>2013-8-9T22:55:9Z</time></trkpt>
<trkpt lat="46.663909032940865" lon="7.067598039284348"><ele></ele><time>2013-8-9T22:55:12Z</time></trkpt>
<trkpt lat="46.663828985765576" lon="7.067978996783495"><ele></ele><time>2013-8-9T22:55:15Z</time></trkpt>
<trkpt lat="46.663824040442705" lon="7.068036999553442"><ele></ele><time>2013-8-9T22:55:18Z</time></trkpt>
<trkpt lat="46.663837032392621" lon="7.068095002323389"><ele></ele><time>2013-8-9T22:55:21Z</time></trkpt>
<trkpt lat="46.663841977715492" lon="7.068151999264956"><ele></ele><time>2013-8-9T22:55:24Z</time></trkpt>
<trkpt lat="46.663844995200634" lon="7.068207990378141"><ele></ele><time>2013-8-9T22:55:27Z</time></trkpt>
<trkpt lat="46.663856981322169" lon="7.068342017009854"><ele></ele><time>2013-8-9T22:55:30Z</time></trkpt>
<trkpt lat="46.66387801989913" lon="7.068414017558098"><ele></ele><time>2013-8-9T22:55:33Z</time></trkpt>
<trkpt lat="46.6639019921422" lon="7.068485012277961"><ele></ele><time>2013-8-9T22:55:36Z</time></trkpt>
<trkpt lat="46.663951026275754" lon="7.06859196536243"><ele></ele><time>2013-8-9T22:55:39Z</time></trkpt>
<trkpt lat="46.663978016003966" lon="7.068616021424532"><ele></ele><time>2013-8-9T22:55:42Z</time></trkpt>
<trkpt lat="46.664027972146869" lon="7.06867603585124"><ele></ele><time>2013-8-9T22:55:45Z</time></trkpt>
<trkpt lat="46.664111958816648" lon="7.068786006420851"><ele></ele><time>2013-8-9T22:55:48Z</time></trkpt>
<trkpt lat="46.664125034585595" lon="7.068820036947727"><ele></ele><time>2013-8-9T22:55:51Z</time></trkpt>
<trkpt lat="46.664152024313807" lon="7.068878961727023"><ele></ele><time>2013-8-9T22:55:54Z</time></trkpt>
<trkpt lat="46.664173984900117" lon="7.068990021944046"><ele></ele><time>2013-8-9T22:55:57Z</time></trkpt>
<trkpt lat="46.66420298628509" lon="7.069217003881931"><ele></ele><time>2013-8-9T22:56:0Z</time></trkpt>
<trkpt lat="46.664246991276741" lon="7.069390006363392"><ele></ele><time>2013-8-9T22:56:3Z</time></trkpt>
<trkpt lat="46.664274986833334" lon="7.069645989686251"><ele></ele><time>2013-8-9T22:56:6Z</time></trkpt>
<trkpt lat="46.664274986833334" lon="7.069683959707618"><ele></ele><time>2013-8-9T22:56:9Z</time></trkpt>
<trkpt lat="46.664283033460379" lon="7.069771969690919"><ele></ele><time>2013-8-9T22:56:12Z</time></trkpt>
<trkpt lat="46.664328966289759" lon="7.069869032129645"><ele></ele><time>2013-8-9T22:56:15Z</time></trkpt>
<trkpt lat="46.664286972954869" lon="7.070025019347668"><ele></ele><time>2013-8-9T22:56:18Z</time></trkpt>
<trkpt lat="46.664286972954869" lon="7.070137001574039"><ele></ele><time>2013-8-9T22:56:21Z</time></trkpt>
<trkpt lat="46.664295019581914" lon="7.07018100656569"><ele></ele><time>2013-8-9T22:56:24Z</time></trkpt>
<trkpt lat="46.6643319837749" lon="7.070303969085217"><ele></ele><time>2013-8-9T22:56:27Z</time></trkpt>
<trkpt lat="46.664442960172892" lon="7.070372030138969"><ele></ele><time>2013-8-9T22:56:30Z</time></trkpt>
<trkpt lat="46.66446098126471" lon="7.070397008210421"><ele></ele><time>2013-8-9T22:56:33Z</time></trkpt>
<trkpt lat="46.664539016783237" lon="7.070471020415425"><ele></ele><time>2013-8-9T22:56:36Z</time></trkpt>
<trkpt lat="46.664607999846339" lon="7.070627007633448"><ele></ele><time>2013-8-9T22:56:39Z</time></trkpt>
<trkpt lat="46.664646975696087" lon="7.070761034265161"><ele></ele><time>2013-8-9T22:56:42Z</time></trkpt>
<trkpt lat="46.664643958210945" lon="7.070774026215076"><ele></ele><time>2013-8-9T22:56:45Z</time></trkpt>
<trkpt lat="46.664602970704436" lon="7.071050964295864"><ele></ele><time>2013-8-9T22:56:48Z</time></trkpt>
<trkpt lat="46.664580004289746" lon="7.071117013692856"><ele></ele><time>2013-8-9T22:56:51Z</time></trkpt>
<trkpt lat="46.664574975147843" lon="7.071193959563971"><ele></ele><time>2013-8-9T22:56:54Z</time></trkpt>
<trkpt lat="46.66465301066637" lon="7.071395041421056"><ele></ele><time>2013-8-9T22:56:57Z</time></trkpt>
<trkpt lat="46.664702966809273" lon="7.071678014472127"><ele></ele><time>2013-8-9T22:57:0Z</time></trkpt>
<trkpt lat="46.664689974859357" lon="7.07172897644341"><ele></ele><time>2013-8-9T22:57:3Z</time></trkpt>
<trkpt lat="46.664710007607937" lon="7.072301963344216"><ele></ele><time>2013-8-9T22:57:6Z</time></trkpt>
<trkpt lat="46.664839005097747" lon="7.072657020762563"><ele></ele><time>2013-8-9T22:57:9Z</time></trkpt>
<trkpt lat="46.66486700065434" lon="7.072726003825665"><ele></ele><time>2013-8-9T22:57:12Z</time></trkpt>
<trkpt lat="46.664946964010596" lon="7.072919961065054"><ele></ele><time>2013-8-9T22:57:15Z</time></trkpt>
<trkpt lat="46.664980994537473" lon="7.072966983541846"><ele></ele><time>2013-8-9T22:57:18Z</time></trkpt>
<trkpt lat="46.665020976215601" lon="7.073001014068723"><ele></ele><time>2013-8-9T22:57:21Z</time></trkpt>
<trkpt lat="46.665066992864013" lon="7.073025992140174"><ele></ele><time>2013-8-9T22:57:24Z</time></trkpt>
<trkpt lat="46.665109992027283" lon="7.073051976040006"><ele></ele><time>2013-8-9T22:57:27Z</time></trkpt>
<trkpt lat="46.66514796204865" lon="7.073079971596599"><ele></ele><time>2013-8-9T22:57:30Z</time></trkpt>
<trkpt lat="46.665198002010584" lon="7.073137974366546"><ele></ele><time>2013-8-9T22:57:33Z</time></trkpt>
<trkpt lat="46.665213005617261" lon="7.073161024600267"><ele></ele><time>2013-8-9T22:57:36Z</time></trkpt>
<trkpt lat="46.665245024487376" lon="7.073206035420299"><ele></ele><time>2013-8-9T22:57:39Z</time></trkpt>
<trkpt lat="46.665323982015252" lon="7.073311982676387"><ele></ele><time>2013-8-9T22:57:42Z</time></trkpt>
<trkpt lat="46.665343008935452" lon="7.073327992111444"><ele></ele><time>2013-8-9T22:57:45Z</time></trkpt>
<trkpt lat="46.665363041684031" lon="7.073341989889741"><ele></ele><time>2013-8-9T22:57:48Z</time></trkpt>
<trkpt lat="46.66538399644196" lon="7.073352970182896"><ele></ele><time>2013-8-9T22:57:51Z</time></trkpt>
<trkpt lat="46.665408974513412" lon="7.073363028466702"><ele></ele><time>2013-8-9T22:57:54Z</time></trkpt>
<trkpt lat="46.665434036403894" lon="7.073379959911108"><ele></ele><time>2013-8-9T22:57:57Z</time></trkpt>
<trkpt lat="46.665458008646965" lon="7.073406027629972"><ele></ele><time>2013-8-9T22:58:0Z</time></trkpt>
<trkpt lat="46.66546898894012" lon="7.073431005701423"><ele></ele><time>2013-8-9T22:58:3Z</time></trkpt>
<trkpt lat="46.665475023910403" lon="7.073453972116113"><ele></ele><time>2013-8-9T22:58:6Z</time></trkpt>
<trkpt lat="46.665396988391876" lon="7.073977002874017"><ele></ele><time>2013-8-9T22:58:9Z</time></trkpt>
<trkpt lat="46.665352983400226" lon="7.074154028669"><ele></ele><time>2013-8-9T22:58:12Z</time></trkpt>
<trkpt lat="46.665336973965168" lon="7.074216976761818"><ele></ele><time>2013-8-9T22:58:15Z</time></trkpt>
<trkpt lat="46.665304033085704" lon="7.074334993958473"><ele></ele><time>2013-8-9T22:58:18Z</time></trkpt>
<trkpt lat="46.665250975638628" lon="7.074514031410217"><ele></ele><time>2013-8-9T22:58:21Z</time></trkpt>
<trkpt lat="46.665225997567177" lon="7.074571028351784"><ele></ele><time>2013-8-9T22:58:24Z</time></trkpt>
<trkpt lat="46.665186015889049" lon="7.074618972837925"><ele></ele><time>2013-8-9T22:58:27Z</time></trkpt>
<trkpt lat="46.665134970098734" lon="7.074648980051279"><ele></ele><time>2013-8-9T22:58:30Z</time></trkpt>
<trkpt lat="46.665079984813929" lon="7.074656020849943"><ele></ele><time>2013-8-9T22:58:33Z</time></trkpt>
<trkpt lat="46.665026005357504" lon="7.074646968394518"><ele></ele><time>2013-8-9T22:58:36Z</time></trkpt>
<trkpt lat="46.66497303172946" lon="7.074632970616221"><ele></ele><time>2013-8-9T22:58:39Z</time></trkpt>
<trkpt lat="46.664923997595906" lon="7.074614027515054"><ele></ele><time>2013-8-9T22:58:42Z</time></trkpt>
<trkpt lat="46.664875969290733" lon="7.074588965624571"><ele></ele><time>2013-8-9T22:58:45Z</time></trkpt>
<trkpt lat="46.664776979014277" lon="7.074547978118062"><ele></ele><time>2013-8-9T22:58:48Z</time></trkpt>
<trkpt lat="46.66405102238059" lon="7.074314039200544"><ele></ele><time>2013-8-9T22:58:51Z</time></trkpt>
<trkpt lat="46.663224985823035" lon="7.074057972058654"><ele></ele><time>2013-8-9T22:58:54Z</time></trkpt>
<trkpt lat="46.662386963143945" lon="7.073827972635627"><ele></ele><time>2013-8-9T22:58:57Z</time></trkpt>
<trkpt lat="46.661810036748648" lon="7.073678020387888"><ele></ele><time>2013-8-9T22:59:0Z</time></trkpt>
<trkpt lat="46.66175102815032" lon="7.07366201095283"><ele></ele><time>2013-8-9T22:59:3Z</time></trkpt>
<trkpt lat="46.660578986629844" lon="7.073402004316449"><ele></ele><time>2013-8-9T22:59:6Z</time></trkpt>
<trkpt lat="46.659639040008187" lon="7.073463024571538"><ele></ele><time>2013-8-9T22:59:9Z</time></trkpt>
<trkpt lat="46.658978965133429" lon="7.073566038161516"><ele></ele><time>2013-8-9T22:59:12Z</time></trkpt>
<trkpt lat="46.658928003162146" lon="7.073593027889729"><ele></ele><time>2013-8-9T22:59:15Z</time></trkpt>
<trkpt lat="46.658879974856973" lon="7.073639966547489"><ele></ele><time>2013-8-9T22:59:18Z</time></trkpt>
<trkpt lat="46.658839993178844" lon="7.073701992630959"><ele></ele><time>2013-8-9T22:59:21Z</time></trkpt>
<trkpt lat="46.658806968480349" lon="7.073778016492724"><ele></ele><time>2013-8-9T22:59:24Z</time></trkpt>
<trkpt lat="46.658785007894039" lon="7.073863008990884"><ele></ele><time>2013-8-9T22:59:27Z</time></trkpt>
<trkpt lat="46.658776961266994" lon="7.073954036459327"><ele></ele><time>2013-8-9T22:59:30Z</time></trkpt>
<trkpt lat="46.658780984580517" lon="7.074046991765499"><ele></ele><time>2013-8-9T22:59:33Z</time></trkpt>
<trkpt lat="46.658793976530433" lon="7.074139025062323"><ele></ele><time>2013-8-9T22:59:36Z</time></trkpt>
<trkpt lat="46.658813003450632" lon="7.074228962883353"><ele></ele><time>2013-8-9T22:59:39Z</time></trkpt>
<trkpt lat="46.65882901288569" lon="7.074317978695035"><ele></ele><time>2013-8-9T22:59:42Z</time></trkpt>
<trkpt lat="46.658834964036942" lon="7.074406994506717"><ele></ele><time>2013-8-9T22:59:45Z</time></trkpt>
<trkpt lat="46.658832030370831" lon="7.074495004490018"><ele></ele><time>2013-8-9T22:59:48Z</time></trkpt>
<trkpt lat="46.658820966258645" lon="7.074578991159797"><ele></ele><time>2013-8-9T22:59:51Z</time></trkpt>
<trkpt lat="46.658804034814239" lon="7.074658032506704"><ele></ele><time>2013-8-9T22:59:54Z</time></trkpt>
<trkpt lat="46.658734967932105" lon="7.074961960315704"><ele></ele><time>2013-8-9T22:59:57Z</time></trkpt>
<trkpt lat="46.658699009567499" lon="7.075028009712696"><ele></ele><time>2013-8-9T23:0:0Z</time></trkpt>
<trkpt lat="46.658647041767836" lon="7.07507997751236"><ele></ele><time>2013-8-9T23:0:3Z</time></trkpt>
<trkpt lat="46.658544028177857" lon="7.07518701441586"><ele></ele><time>2013-8-9T23:0:6Z</time></trkpt>
<trkpt lat="46.658503962680697" lon="7.075258009135723"><ele></ele><time>2013-8-9T23:0:9Z</time></trkpt>
<trkpt lat="46.658469010144472" lon="7.075335960835218"><ele></ele><time>2013-8-9T23:0:12Z</time></trkpt>
<trkpt lat="46.658340012654662" lon="7.07563703879714"><ele></ele><time>2013-8-9T23:0:15Z</time></trkpt>
<trkpt lat="46.658310005441308" lon="7.07572496496141"><ele></ele><time>2013-8-9T23:0:18Z</time></trkpt>
<trkpt lat="46.657997025176883" lon="7.076944028958678"><ele></ele><time>2013-8-9T23:0:21Z</time></trkpt>
<trkpt lat="46.657953020185232" lon="7.077018963173032"><ele></ele><time>2013-8-9T23:0:24Z</time></trkpt>
<trkpt lat="46.657901974394917" lon="7.077076965942979"><ele></ele><time>2013-8-9T23:0:27Z</time></trkpt>
<trkpt lat="46.657789992168546" lon="7.077165981754661"><ele></ele><time>2013-8-9T23:0:30Z</time></trkpt>
<trkpt lat="46.657479023560882" lon="7.077306965366006"><ele></ele><time>2013-8-9T23:0:33Z</time></trkpt>
<trkpt lat="46.657075015828013" lon="7.077589016407728"><ele></ele><time>2013-8-9T23:0:36Z</time></trkpt>
<trkpt lat="46.657022964209318" lon="7.077641990035772"><ele></ele><time>2013-8-9T23:0:39Z</time></trkpt>
<trkpt lat="46.656964039430022" lon="7.077708039432764"><ele></ele><time>2013-8-9T23:0:42Z</time></trkpt>
<trkpt lat="46.656900001689792" lon="7.077781967818737"><ele></ele><time>2013-8-9T23:0:45Z</time></trkpt>
<trkpt lat="46.656719036400318" lon="7.077993024140596"><ele></ele><time>2013-8-9T23:0:48Z</time></trkpt>
<trkpt lat="46.656654998660088" lon="7.07804499194026"><ele></ele><time>2013-8-9T23:0:51Z</time></trkpt>
<trkpt lat="46.656591966748238" lon="7.078091008588672"><ele></ele><time>2013-8-9T23:0:54Z</time></trkpt>
<trkpt lat="46.656534969806671" lon="7.078136019408703"><ele></ele><time>2013-8-9T23:0:57Z</time></trkpt>
<trkpt lat="46.656498005613685" lon="7.078191004693508"><ele></ele><time>2013-8-9T23:1:0Z</time></trkpt>
<trkpt lat="46.656446037814021" lon="7.078318996354938"><ele></ele><time>2013-8-9T23:1:3Z</time></trkpt>
<trkpt lat="46.656409995630383" lon="7.078382028266788"><ele></ele><time>2013-8-9T23:1:6Z</time></trkpt>
<trkpt lat="46.656374959275126" lon="7.078430978581309"><ele></ele><time>2013-8-9T23:1:9Z</time></trkpt>
<trkpt lat="46.656321985647082" lon="7.078479006886482"><ele></ele><time>2013-8-9T23:1:12Z</time></trkpt>
<trkpt lat="46.656287033110857" lon="7.078528041020036"><ele></ele><time>2013-8-9T23:1:15Z</time></trkpt>
<trkpt lat="46.656254008412361" lon="7.078573973849416"><ele></ele><time>2013-8-9T23:1:18Z</time></trkpt>
<trkpt lat="46.656214026734233" lon="7.078614961355925"><ele></ele><time>2013-8-9T23:1:21Z</time></trkpt>
<trkpt lat="46.656146971508861" lon="7.078673969954252"><ele></ele><time>2013-8-9T23:1:24Z</time></trkpt>
<trkpt lat="46.656072959303856" lon="7.078721998259425"><ele></ele><time>2013-8-9T23:1:27Z</time></trkpt>
<trkpt lat="46.656058039516211" lon="7.078705988824368"><ele></ele><time>2013-8-9T23:1:30Z</time></trkpt>
<trkpt lat="46.656021997332573" lon="7.078731972724199"><ele></ele><time>2013-8-9T23:1:33Z</time></trkpt>
<trkpt lat="46.655858969315886" lon="7.078742031008005"><ele></ele><time>2013-8-9T23:1:36Z</time></trkpt>
<trkpt lat="46.655757967382669" lon="7.078793998807669"><ele></ele><time>2013-8-9T23:1:39Z</time></trkpt>
<trkpt lat="46.655682027339935" lon="7.078844038769603"><ele></ele><time>2013-8-9T23:1:42Z</time></trkpt>
<trkpt lat="46.655674986541271" lon="7.078860970214009"><ele></ele><time>2013-8-9T23:1:45Z</time></trkpt>
<trkpt lat="46.6556700412184" lon="7.078884020447731"><ele></ele><time>2013-8-9T23:1:48Z</time></trkpt>
<trkpt lat="46.655669035390019" lon="7.078908998519182"><ele></ele><time>2013-8-9T23:1:51Z</time></trkpt>
<trkpt lat="46.655676998198032" lon="7.078930959105492"><ele></ele><time>2013-8-9T23:1:54Z</time></trkpt>
<trkpt lat="46.655688984319568" lon="7.07894898019731"><ele></ele><time>2013-8-9T23:1:57Z</time></trkpt>
<trkpt lat="46.655700970441103" lon="7.078965995460749"><ele></ele><time>2013-8-9T23:2:0Z</time></trkpt>
<trkpt lat="46.65571597404778" lon="7.078980999067426"><ele></ele><time>2013-8-9T23:2:3Z</time></trkpt>
<trkpt lat="46.655730977654457" lon="7.078997008502483"><ele></ele><time>2013-8-9T23:2:6Z</time></trkpt>
<trkpt lat="46.655742963775992" lon="7.079014023765922"><ele></ele><time>2013-8-9T23:2:9Z</time></trkpt>
<trkpt lat="46.655754027888179" lon="7.079026009887457"><ele></ele><time>2013-8-9T23:2:12Z</time></trkpt>
<trkpt lat="46.655767019838095" lon="7.079037996008992"><ele></ele><time>2013-8-9T23:2:15Z</time></trkpt>
<trkpt lat="46.65577900595963" lon="7.079050987958908"><ele></ele><time>2013-8-9T23:2:18Z</time></trkpt>
<trkpt lat="46.655790992081165" lon="7.079064985737205"><ele></ele><time>2013-8-9T23:2:21Z</time></trkpt>
<trkpt lat="46.655800966545939" lon="7.079079989343882"><ele></ele><time>2013-8-9T23:2:24Z</time></trkpt>
<trkpt lat="46.655817981809378" lon="7.079107984900475"><ele></ele><time>2013-8-9T23:2:27Z</time></trkpt>
<trkpt lat="46.655830973759294" lon="7.07911997102201"><ele></ele><time>2013-8-9T23:2:30Z</time></trkpt>
<trkpt lat="46.65620899759233" lon="7.079224996268749"><ele></ele><time>2013-8-9T23:2:33Z</time></trkpt>
<trkpt lat="46.656586015596986" lon="7.079314012080431"><ele></ele><time>2013-8-9T23:2:36Z</time></trkpt>
<trkpt lat="46.656635971739888" lon="7.079317029565573"><ele></ele><time>2013-8-9T23:2:39Z</time></trkpt>
<trkpt lat="46.657411968335509" lon="7.07935600541532"><ele></ele><time>2013-8-9T23:2:42Z</time></trkpt>
<trkpt lat="46.658119987696409" lon="7.079645013436675"><ele></ele><time>2013-8-9T23:2:45Z</time></trkpt>
<trkpt lat="46.65844302624464" lon="7.079881969839334"><ele></ele><time>2013-8-9T23:2:48Z</time></trkpt>
<trkpt lat="46.658488037064672" lon="7.079912982881069"><ele></ele><time>2013-8-9T23:2:51Z</time></trkpt>
<trkpt lat="46.658578980714083" lon="7.079980038106441"><ele></ele><time>2013-8-9T23:2:54Z</time></trkpt>
<trkpt lat="46.658620974048972" lon="7.080019013956189"><ele></ele><time>2013-8-9T23:2:57Z</time></trkpt>
<trkpt lat="46.658661039546132" lon="7.08006301894784"><ele></ele><time>2013-8-9T23:3:0Z</time></trkpt>
<trkpt lat="46.658847033977509" lon="7.080311961472034"><ele></ele><time>2013-8-9T23:3:3Z</time></trkpt>
<trkpt lat="46.658889027312398" lon="7.080352026969194"><ele></ele><time>2013-8-9T23:3:6Z</time></trkpt>
<trkpt lat="46.658935965970159" lon="7.080383040010929"><ele></ele><time>2013-8-9T23:3:9Z</time></trkpt>
<trkpt lat="46.658985000103712" lon="7.080406006425619"><ele></ele><time>2013-8-9T23:3:12Z</time></trkpt>
<trkpt lat="46.659031016752124" lon="7.080425033345819"><ele></ele><time>2013-8-9T23:3:15Z</time></trkpt>
<trkpt lat="46.659194966778159" lon="7.080477001145482"><ele></ele><time>2013-8-9T23:3:18Z</time></trkpt>
<trkpt lat="46.659278031438589" lon="7.08051597699523"><ele></ele><time>2013-8-9T23:3:21Z</time></trkpt>
<trkpt lat="46.659319018945098" lon="7.080539027228951"><ele></ele><time>2013-8-9T23:3:24Z</time></trkpt>
<trkpt lat="46.659612972289324" lon="7.080670958384871"><ele></ele><time>2013-8-9T23:3:27Z</time></trkpt>
<trkpt lat="46.659657983109355" lon="7.080680010840297"><ele></ele><time>2013-8-9T23:3:30Z</time></trkpt>
<trkpt lat="46.659706011414528" lon="7.080681016668677"><ele></ele><time>2013-8-9T23:3:33Z</time></trkpt>
<trkpt lat="46.659756973385811" lon="7.080681016668677"><ele></ele><time>2013-8-9T23:3:36Z</time></trkpt>
<trkpt lat="46.659810030832887" lon="7.080686967819929"><ele></ele><time>2013-8-9T23:3:39Z</time></trkpt>
<trkpt lat="46.659865016117692" lon="7.080716975033283"><ele></ele><time>2013-8-9T23:3:42Z</time></trkpt>
<trkpt lat="46.659917989745736" lon="7.080772966146469"><ele></ele><time>2013-8-9T23:3:45Z</time></trkpt>
<trkpt lat="46.659964006394148" lon="7.080839015543461"><ele></ele><time>2013-8-9T23:3:48Z</time></trkpt>
<trkpt lat="46.66052701883018" lon="7.081715008243918"><ele></ele><time>2013-8-9T23:3:51Z</time></trkpt>
<trkpt lat="46.660793982446194" lon="7.082039974629879"><ele></ele><time>2013-8-9T23:3:54Z</time></trkpt>
<trkpt lat="46.660894984379411" lon="7.082207025960088"><ele></ele><time>2013-8-9T23:3:57Z</time></trkpt>
<trkpt lat="46.661380967125297" lon="7.083117971196771"><ele></ele><time>2013-8-9T23:4:0Z</time></trkpt>
<trkpt lat="46.661417009308934" lon="7.083207992836833"><ele></ele><time>2013-8-9T23:4:3Z</time></trkpt>
<trkpt lat="46.661784974858165" lon="7.084413981065154"><ele></ele><time>2013-8-9T23:4:6Z</time></trkpt>
<trkpt lat="46.661829985678196" lon="7.084592012688518"><ele></ele><time>2013-8-9T23:4:9Z</time></trkpt>
<trkpt lat="46.661857981234789" lon="7.084673987701535"><ele></ele><time>2013-8-9T23:4:12Z</time></trkpt>
<trkpt lat="46.661891005933285" lon="7.084749005734921"><ele></ele><time>2013-8-9T23:4:15Z</time></trkpt>
<trkpt lat="46.662064008414745" lon="7.08509299904108"><ele></ele><time>2013-8-9T23:4:18Z</time></trkpt>
<trkpt lat="46.662354022264481" lon="7.085660034790635"><ele></ele><time>2013-8-9T23:4:21Z</time></trkpt>
<trkpt lat="46.662386041134596" lon="7.08571502007544"><ele></ele><time>2013-8-9T23:4:24Z</time></trkpt>
<trkpt lat="46.662413030862808" lon="7.085774028673768"><ele></ele><time>2013-8-9T23:4:27Z</time></trkpt>
<trkpt lat="46.662476984784007" lon="7.085944013670087"><ele></ele><time>2013-8-9T23:4:30Z</time></trkpt>
<trkpt lat="46.662575975060463" lon="7.086363025009632"><ele></ele><time>2013-8-9T23:4:33Z</time></trkpt>
<trkpt lat="46.662618974223733" lon="7.086501996964216"><ele></ele><time>2013-8-9T23:4:36Z</time></trkpt>
<trkpt lat="46.662685023620725" lon="7.086720010265708"><ele></ele><time>2013-8-9T23:4:39Z</time></trkpt>
<trkpt lat="46.662804968655109" lon="7.087019998580217"><ele></ele><time>2013-8-9T23:4:42Z</time></trkpt>
<trkpt lat="46.662875963374972" lon="7.087173974141479"><ele></ele><time>2013-8-9T23:4:45Z</time></trkpt>
<trkpt lat="46.662898007780313" lon="7.08726298995316"><ele></ele><time>2013-8-9T23:4:48Z</time></trkpt>
<trkpt lat="46.662918040528893" lon="7.087357034906745"><ele></ele><time>2013-8-9T23:4:51Z</time></trkpt>
<trkpt lat="46.662969002500176" lon="7.087644031271338"><ele></ele><time>2013-8-9T23:4:54Z</time></trkpt>
<trkpt lat="46.663133036345243" lon="7.088479958474636"><ele></ele><time>2013-8-9T23:4:57Z</time></trkpt>
<trkpt lat="46.663259016349912" lon="7.089050011709332"><ele></ele><time>2013-8-9T23:5:0Z</time></trkpt>
<trkpt lat="46.663272008299828" lon="7.089142967015505"><ele></ele><time>2013-8-9T23:5:3Z</time></trkpt>
<trkpt lat="46.663279971107841" lon="7.08923701196909"><ele></ele><time>2013-8-9T23:5:6Z</time></trkpt>
<trkpt lat="46.663277959451079" lon="7.089328961446881"><ele></ele><time>2013-8-9T23:5:9Z</time></trkpt>
<trkpt lat="46.663268990814686" lon="7.089420994743705"><ele></ele><time>2013-8-9T23:5:12Z</time></trkpt>
<trkpt lat="46.663259016349912" lon="7.089514033868909"><ele></ele><time>2013-8-9T23:5:15Z</time></trkpt>
<trkpt lat="46.663249963894486" lon="7.089612018316984"><ele></ele><time>2013-8-9T23:5:18Z</time></trkpt>
<trkpt lat="46.663238983601332" lon="7.089714026078582"><ele></ele><time>2013-8-9T23:5:21Z</time></trkpt>
<trkpt lat="46.663151979446411" lon="7.090549031272531"><ele></ele><time>2013-8-9T23:5:24Z</time></trkpt>
<trkpt lat="46.663105040788651" lon="7.090809959918261"><ele></ele><time>2013-8-9T23:5:27Z</time></trkpt>
<trkpt lat="46.663042008876801" lon="7.091014981269836"><ele></ele><time>2013-8-9T23:5:30Z</time></trkpt>
<trkpt lat="46.663019964471459" lon="7.091078013181686"><ele></ele><time>2013-8-9T23:5:33Z</time></trkpt>
<trkpt lat="46.662957016378641" lon="7.091259984299541"><ele></ele><time>2013-8-9T23:5:36Z</time></trkpt>
<trkpt lat="46.6629349719733" lon="7.091314969584346"><ele></ele><time>2013-8-9T23:5:39Z</time></trkpt>
<trkpt lat="46.662746965885162" lon="7.091716965660453"><ele></ele><time>2013-8-9T23:5:42Z</time></trkpt>
<trkpt lat="46.662734979763627" lon="7.091764993965626"><ele></ele><time>2013-8-9T23:5:45Z</time></trkpt>
<trkpt lat="46.662744032219052" lon="7.091800030320883"><ele></ele><time>2013-8-9T23:5:48Z</time></trkpt>
<trkpt lat="46.662763981148601" lon="7.091802963986993"><ele></ele><time>2013-8-9T23:5:51Z</time></trkpt>
<trkpt lat="46.662782002240419" lon="7.091778991743922"><ele></ele><time>2013-8-9T23:5:54Z</time></trkpt>
<trkpt lat="46.662790970876813" lon="7.091744961217046"><ele></ele><time>2013-8-9T23:5:57Z</time></trkpt>
<trkpt lat="46.662794994190335" lon="7.091703973710537"><ele></ele><time>2013-8-9T23:6:0Z</time></trkpt>
<trkpt lat="46.662801029160619" lon="7.091657035052776"><ele></ele><time>2013-8-9T23:6:3Z</time></trkpt>
<trkpt lat="46.662814021110535" lon="7.091604983434081"><ele></ele><time>2013-8-9T23:6:6Z</time></trkpt>
<trkpt lat="46.662829024717212" lon="7.091553015634418"><ele></ele><time>2013-8-9T23:6:9Z</time></trkpt>
<trkpt lat="46.66284897364676" lon="7.091499958187342"><ele></ele><time>2013-8-9T23:6:12Z</time></trkpt>
<trkpt lat="46.662872023880482" lon="7.091444972902536"><ele></ele><time>2013-8-9T23:6:15Z</time></trkpt>
<trkpt lat="46.663072016090155" lon="7.090922025963664"><ele></ele><time>2013-8-9T23:6:18Z</time></trkpt>
<trkpt lat="46.663088025525212" lon="7.090866034850478"><ele></ele><time>2013-8-9T23:6:21Z</time></trkpt>
<trkpt lat="46.663215011358261" lon="7.090157009661198"><ele></ele><time>2013-8-9T23:6:24Z</time></trkpt>
<trkpt lat="46.663208976387978" lon="7.090136976912618"><ele></ele><time>2013-8-9T23:6:27Z</time></trkpt>
<trkpt lat="46.663208976387978" lon="7.090136976912618"><ele></ele><time>2013-8-9T23:6:30Z</time></trkpt>
<trkpt lat="46.663208976387978" lon="7.090136976912618"><ele></ele><time>2013-8-9T23:6:33Z</time></trkpt>
<trkpt lat="46.663208976387978" lon="7.090136976912618"><ele></ele><time>2013-8-9T23:6:36Z</time></trkpt>
<trkpt lat="46.663208976387978" lon="7.090136976912618"><ele></ele><time>2013-8-9T23:6:39Z</time></trkpt>
<trkpt lat="46.663208976387978" lon="7.090136976912618"><ele></ele><time>2013-8-9T23:6:42Z</time></trkpt>
<trkpt lat="46.663208976387978" lon="7.090136976912618"><ele></ele><time>2013-8-9T23:6:45Z</time></trkpt>
<trkpt lat="46.663208976387978" lon="7.090136976912618"><ele></ele><time>2013-8-9T23:6:48Z</time></trkpt>
<trkpt lat="46.663208976387978" lon="7.090136976912618"><ele></ele><time>2013-8-9T23:6:51Z</time></trkpt>
<trkpt lat="46.663208976387978" lon="7.090136976912618"><ele></ele><time>2013-8-9T23:6:54Z</time></trkpt>
<trkpt lat="46.663210988044739" lon="7.090082997456193"><ele></ele><time>2013-8-9T23:6:57Z</time></trkpt>
<trkpt lat="46.663226997479796" lon="7.090031029656529"><ele></ele><time>2013-8-9T23:7:0Z</time></trkpt>
<trkpt lat="46.663228003308177" lon="7.090001022443175"><ele></ele><time>2013-8-9T23:7:3Z</time></trkpt>
<trkpt lat="46.663229009136558" lon="7.089970009401441"><ele></ele><time>2013-8-9T23:7:6Z</time></trkpt>
<trkpt lat="46.663234038278461" lon="7.089934973046184"><ele></ele><time>2013-8-9T23:7:9Z</time></trkpt>
<trkpt lat="46.663238983601332" lon="7.089900020509958"><ele></ele><time>2013-8-9T23:7:12Z</time></trkpt>
<trkpt lat="46.663237977772951" lon="7.089868001639843"><ele></ele><time>2013-8-9T23:7:15Z</time></trkpt>
<trkpt lat="46.663232026621699" lon="7.089836988598108"><ele></ele><time>2013-8-9T23:7:18Z</time></trkpt>
<trkpt lat="46.663232026621699" lon="7.089815028011799"><ele></ele><time>2013-8-9T23:7:21Z</time></trkpt>
<trkpt lat="46.663216017186642" lon="7.089807987213135"><ele></ele><time>2013-8-9T23:7:24Z</time></trkpt>
<trkpt lat="46.663199001923203" lon="7.08981703966856"><ele></ele><time>2013-8-9T23:7:27Z</time></trkpt>
<trkpt lat="46.663189027458429" lon="7.089833971112967"><ele></ele><time>2013-8-9T23:7:30Z</time></trkpt>
<trkpt lat="46.66319296695292" lon="7.089860960841179"><ele></ele><time>2013-8-9T23:7:33Z</time></trkpt>
<trkpt lat="46.663203025236726" lon="7.089891973882914"><ele></ele><time>2013-8-9T23:7:36Z</time></trkpt>
<trkpt lat="46.663220962509513" lon="7.089961962774396"><ele></ele><time>2013-8-9T23:7:39Z</time></trkpt>
<trkpt lat="46.663191039115191" lon="7.09029296413064"><ele></ele><time>2013-8-9T23:7:42Z</time></trkpt>
<trkpt lat="46.663119038566947" lon="7.090725973248482"><ele></ele><time>2013-8-9T23:7:45Z</time></trkpt>
<trkpt lat="46.662948969751596" lon="7.091221008449793"><ele></ele><time>2013-8-9T23:7:48Z</time></trkpt>
<trkpt lat="46.662774039432406" lon="7.091672960668802"><ele></ele><time>2013-8-9T23:7:51Z</time></trkpt>
<trkpt lat="46.662716958671808" lon="7.091728029772639"><ele></ele><time>2013-8-9T23:7:54Z</time></trkpt>
<trkpt lat="46.662681000307202" lon="7.091730963438749"><ele></ele><time>2013-8-9T23:7:57Z</time></trkpt>
<trkpt lat="46.662650993093848" lon="7.09173297509551"><ele></ele><time>2013-8-9T23:8:0Z</time></trkpt>
<trkpt lat="46.662626015022397" lon="7.09173297509551"><ele></ele><time>2013-8-9T23:8:3Z</time></trkpt>
<trkpt lat="46.662601036950946" lon="7.09172903560102"><ele></ele><time>2013-8-9T23:8:6Z</time></trkpt>
<trkpt lat="46.662577986717224" lon="7.091717971488833"><ele></ele><time>2013-8-9T23:8:9Z</time></trkpt>
<trkpt lat="46.662556026130915" lon="7.091707997024059"><ele></ele><time>2013-8-9T23:8:12Z</time></trkpt>
<trkpt lat="46.662529958412051" lon="7.091698022559285"><ele></ele><time>2013-8-9T23:8:15Z</time></trkpt>
<trkpt lat="46.662503974512219" lon="7.09168897010386"><ele></ele><time>2013-8-9T23:8:18Z</time></trkpt>
<trkpt lat="46.662474973127246" lon="7.091673966497183"><ele></ele><time>2013-8-9T23:8:21Z</time></trkpt>
<trkpt lat="46.66233298368752" lon="7.091525020077825"><ele></ele><time>2013-8-9T23:8:24Z</time></trkpt>
<trkpt lat="46.662187976762652" lon="7.091384036466479"><ele></ele><time>2013-8-9T23:8:27Z</time></trkpt>
<trkpt lat="46.662154030054808" lon="7.091319998726249"><ele></ele><time>2013-8-9T23:8:30Z</time></trkpt>
<trkpt lat="46.662071971222758" lon="7.091164011508226"><ele></ele><time>2013-8-9T23:8:33Z</time></trkpt>
<trkpt lat="46.662017991766334" lon="7.091030990704894"><ele></ele><time>2013-8-9T23:8:36Z</time></trkpt>
<trkpt lat="46.661940962076187" lon="7.090902999043465"><ele></ele><time>2013-8-9T23:8:39Z</time></trkpt>
<trkpt lat="46.661878013983369" lon="7.090818006545305"><ele></ele><time>2013-8-9T23:8:42Z</time></trkpt>
<trkpt lat="46.661734012886882" lon="7.090660007670522"><ele></ele><time>2013-8-9T23:8:45Z</time></trkpt>
<trkpt lat="46.661694031208754" lon="7.090619020164013"><ele></ele><time>2013-8-9T23:8:48Z</time></trkpt>
<trkpt lat="46.661508958786726" lon="7.090432019904256"><ele></ele><time>2013-8-9T23:8:51Z</time></trkpt>
<trkpt lat="46.661465037614107" lon="7.090395977720618"><ele></ele><time>2013-8-9T23:8:54Z</time></trkpt>
<trkpt lat="46.66145003400743" lon="7.090381979942322"><ele></ele><time>2013-8-9T23:8:57Z</time></trkpt>
<trkpt lat="46.66145196184516" lon="7.090317020192742"><ele></ele><time>2013-8-9T23:9:0Z</time></trkpt>
<trkpt lat="46.66145003400743" lon="7.090281983837485"><ele></ele><time>2013-8-9T23:9:3Z</time></trkpt>
<trkpt lat="46.66142899543047" lon="7.090235967189074"><ele></ele><time>2013-8-9T23:9:6Z</time></trkpt>
<trkpt lat="46.661336962133646" lon="7.09003203548491"><ele></ele><time>2013-8-9T23:9:9Z</time></trkpt>
<trkpt lat="46.66132296435535" lon="7.089966991916299"><ele></ele><time>2013-8-9T23:9:12Z</time></trkpt>
<trkpt lat="46.661252975463867" lon="7.089768005535007"><ele></ele><time>2013-8-9T23:9:15Z</time></trkpt>
<trkpt lat="46.661182986572385" lon="7.089712014421821"><ele></ele><time>2013-8-9T23:9:18Z</time></trkpt>
<trkpt lat="46.66114903986454" lon="7.089635990560055"><ele></ele><time>2013-8-9T23:9:21Z</time></trkpt>
<trkpt lat="46.661103023216128" lon="7.089573964476585"><ele></ele><time>2013-8-9T23:9:24Z</time></trkpt>
<trkpt lat="46.66104300878942" lon="7.089559966698289"><ele></ele><time>2013-8-9T23:9:27Z</time></trkpt>
<trkpt lat="46.66102197021246" lon="7.08956197835505"><ele></ele><time>2013-8-9T23:9:30Z</time></trkpt>
<trkpt lat="46.660991962999105" lon="7.089571030810475"><ele></ele><time>2013-8-9T23:9:33Z</time></trkpt>
<trkpt lat="46.660981988534331" lon="7.089556027203798"><ele></ele><time>2013-8-9T23:9:36Z</time></trkpt>
<trkpt lat="46.660977965220809" lon="7.089533982798457"><ele></ele><time>2013-8-9T23:9:39Z</time></trkpt>
<trkpt lat="46.660900013521314" lon="7.08947598002851"><ele></ele><time>2013-8-9T23:9:42Z</time></trkpt>
<trkpt lat="46.660884004086256" lon="7.089473968371749"><ele></ele><time>2013-8-9T23:9:45Z</time></trkpt>
<trkpt lat="46.660874029621482" lon="7.089458964765072"><ele></ele><time>2013-8-9T23:9:48Z</time></trkpt>
<trkpt lat="46.660839999094605" lon="7.089470028877258"><ele></ele><time>2013-8-9T23:9:51Z</time></trkpt>
<trkpt lat="46.660813009366393" lon="7.089451001957059"><ele></ele><time>2013-8-9T23:9:54Z</time></trkpt>
<trkpt lat="46.660789959132671" lon="7.089469023048878"><ele></ele><time>2013-8-9T23:9:57Z</time></trkpt>
<trkpt lat="46.660743020474911" lon="7.089395010843873"><ele></ele><time>2013-8-9T23:10:0Z</time></trkpt>
<trkpt lat="46.660746959969401" lon="7.089383024722338"><ele></ele><time>2013-8-9T23:10:3Z</time></trkpt>
<trkpt lat="46.660735979676247" lon="7.089374978095293"><ele></ele><time>2013-8-9T23:10:6Z</time></trkpt>
<trkpt lat="46.660686023533344" lon="7.089370032772422"><ele></ele><time>2013-8-9T23:10:9Z</time></trkpt>
<trkpt lat="46.660632966086268" lon="7.089383024722338"><ele></ele><time>2013-8-9T23:10:12Z</time></trkpt>
<trkpt lat="46.660586027428508" lon="7.089473968371749"><ele></ele><time>2013-8-9T23:10:15Z</time></trkpt>
<trkpt lat="46.660515032708645" lon="7.089483020827174"><ele></ele><time>2013-8-9T23:10:18Z</time></trkpt>
<trkpt lat="46.660500029101968" lon="7.089486038312316"><ele></ele><time>2013-8-9T23:10:21Z</time></trkpt>
<trkpt lat="46.660443032160401" lon="7.089459970593452"><ele></ele><time>2013-8-9T23:10:24Z</time></trkpt>
<trkpt lat="46.660428028553724" lon="7.089449996128678"><ele></ele><time>2013-8-9T23:10:27Z</time></trkpt>
<trkpt lat="46.660404978320003" lon="7.089412026107311"><ele></ele><time>2013-8-9T23:10:30Z</time></trkpt>
<trkpt lat="46.660403972491622" lon="7.089405991137028"><ele></ele><time>2013-8-9T23:10:33Z</time></trkpt>
<trkpt lat="46.660380000248551" lon="7.08936701528728"><ele></ele><time>2013-8-9T23:10:36Z</time></trkpt>
<trkpt lat="46.660335995256901" lon="7.089357040822506"><ele></ele><time>2013-8-9T23:10:39Z</time></trkpt>
<trkpt lat="46.66033498942852" lon="7.089355029165745"><ele></ele><time>2013-8-9T23:10:42Z</time></trkpt>
<trkpt lat="46.660338006913662" lon="7.089360980316997"><ele></ele><time>2013-8-9T23:10:45Z</time></trkpt>
<trkpt lat="46.660320991650224" lon="7.089390987530351"><ele></ele><time>2013-8-9T23:10:48Z</time></trkpt>
<trkpt lat="46.660323003306985" lon="7.089433986693621"><ele></ele><time>2013-8-9T23:10:51Z</time></trkpt>
<trkpt lat="46.660324009135365" lon="7.089438010007143"><ele></ele><time>2013-8-9T23:10:54Z</time></trkpt>
<trkpt lat="46.660315962508321" lon="7.089439015835524"><ele></ele><time>2013-8-9T23:10:57Z</time></trkpt>
<trkpt lat="46.660274975001812" lon="7.089482014998794"><ele></ele><time>2013-8-9T23:11:0Z</time></trkpt>
<trkpt lat="46.660176990553737" lon="7.089514033868909"><ele></ele><time>2013-8-9T23:11:3Z</time></trkpt>
<trkpt lat="46.660142038017511" lon="7.089523002505302"><ele></ele><time>2013-8-9T23:11:6Z</time></trkpt>
<trkpt lat="46.660070037469268" lon="7.089513028040528"><ele></ele><time>2013-8-9T23:11:9Z</time></trkpt>
<trkpt lat="46.66003298945725" lon="7.089503975585103"><ele></ele><time>2013-8-9T23:11:12Z</time></trkpt>
<trkpt lat="46.659998958930373" lon="7.089463993906975"><ele></ele><time>2013-8-9T23:11:15Z</time></trkpt>
<trkpt lat="46.659932993352413" lon="7.089444966986775"><ele></ele><time>2013-8-9T23:11:18Z</time></trkpt>
<trkpt lat="46.659926036372781" lon="7.089452007785439"><ele></ele><time>2013-8-9T23:11:21Z</time></trkpt>
<trkpt lat="46.65988203138113" lon="7.089483020827174"><ele></ele><time>2013-8-9T23:11:24Z</time></trkpt>
<trkpt lat="46.65984096005559" lon="7.089488971978426"><ele></ele><time>2013-8-9T23:11:27Z</time></trkpt>
<trkpt lat="46.659768959507346" lon="7.089516967535019"><ele></ele><time>2013-8-9T23:11:30Z</time></trkpt>
<trkpt lat="46.659693019464612" lon="7.089486960321665"><ele></ele><time>2013-8-9T23:11:33Z</time></trkpt>
<trkpt lat="46.659693019464612" lon="7.089486960321665"><ele></ele><time>2013-8-9T23:11:36Z</time></trkpt>
<trkpt lat="46.659685978665948" lon="7.08943197503686"><ele></ele><time>2013-8-9T23:11:39Z</time></trkpt>
<trkpt lat="46.659695031121373" lon="7.089400961995125"><ele></ele><time>2013-8-9T23:11:42Z</time></trkpt>
<trkpt lat="46.659680027514696" lon="7.089347988367081"><ele></ele><time>2013-8-9T23:11:45Z</time></trkpt>
<trkpt lat="46.659671980887651" lon="7.089226031675935"><ele></ele><time>2013-8-9T23:11:48Z</time></trkpt>
<trkpt lat="46.659657983109355" lon="7.089041965082288"><ele></ele><time>2013-8-9T23:11:51Z</time></trkpt>
<trkpt lat="46.659593023359776" lon="7.088967030867934"><ele></ele><time>2013-8-9T23:11:54Z</time></trkpt>
<trkpt lat="46.659577013924718" lon="7.088949009776115"><ele></ele><time>2013-8-9T23:11:57Z</time></trkpt>
<trkpt lat="46.659577013924718" lon="7.088941968977451"><ele></ele><time>2013-8-9T23:12:0Z</time></trkpt>
<trkpt lat="46.659573996439576" lon="7.088920008391142"><ele></ele><time>2013-8-9T23:12:3Z</time></trkpt>
<trkpt lat="46.65949696674943" lon="7.088738959282637"><ele></ele><time>2013-8-9T23:12:6Z</time></trkpt>
<trkpt lat="46.659436030313373" lon="7.08857299759984"><ele></ele><time>2013-8-9T23:12:9Z</time></trkpt>
<trkpt lat="46.659436030313373" lon="7.08857299759984"><ele></ele><time>2013-8-9T23:12:12Z</time></trkpt>
<trkpt lat="46.659321030601859" lon="7.088623037561774"><ele></ele><time>2013-8-9T23:12:15Z</time></trkpt>
<trkpt lat="46.659265961498022" lon="7.088687997311354"><ele></ele><time>2013-8-9T23:12:18Z</time></trkpt>
<trkpt lat="46.659078039228916" lon="7.088967030867934"><ele></ele><time>2013-8-9T23:12:21Z</time></trkpt>
<trkpt lat="46.658924985677004" lon="7.089226031675935"><ele></ele><time>2013-8-9T23:12:24Z</time></trkpt>
<trkpt lat="46.658885003998876" lon="7.089265007525682"><ele></ele><time>2013-8-9T23:12:27Z</time></trkpt>
<trkpt lat="46.658847033977509" lon="7.089316975325346"><ele></ele><time>2013-8-9T23:12:30Z</time></trkpt>
<trkpt lat="46.658780984580517" lon="7.089427029713988"><ele></ele><time>2013-8-9T23:12:33Z</time></trkpt>
<trkpt lat="46.65855098515749" lon="7.089788038283587"><ele></ele><time>2013-8-9T23:12:36Z</time></trkpt>
<trkpt lat="46.658326014876366" lon="7.090149968862534"><ele></ele><time>2013-8-9T23:12:39Z</time></trkpt>
<trkpt lat="46.658209003508091" lon="7.090467978268862"><ele></ele><time>2013-8-9T23:12:42Z</time></trkpt>
<trkpt lat="46.658124011009932" lon="7.090648021548986"><ele></ele><time>2013-8-9T23:12:45Z</time></trkpt>
<trkpt lat="46.658037006855011" lon="7.090772995725274"><ele></ele><time>2013-8-9T23:12:48Z</time></trkpt>
<trkpt lat="46.657985961064696" lon="7.090820018202066"><ele></ele><time>2013-8-9T23:12:51Z</time></trkpt>
<trkpt lat="46.657925024628639" lon="7.090858994051814"><ele></ele><time>2013-8-9T23:12:54Z</time></trkpt>
<trkpt lat="46.657861992716789" lon="7.090884977951646"><ele></ele><time>2013-8-9T23:12:57Z</time></trkpt>
<trkpt lat="46.657801978290081" lon="7.090905010700226"><ele></ele><time>2013-8-9T23:13:0Z</time></trkpt>
<trkpt lat="46.657753027975559" lon="7.090932000428438"><ele></ele><time>2013-8-9T23:13:3Z</time></trkpt>
<trkpt lat="46.657715979963541" lon="7.090977011248469"><ele></ele><time>2013-8-9T23:13:6Z</time></trkpt>
<trkpt lat="46.657683039084077" lon="7.091041970998049"><ele></ele><time>2013-8-9T23:13:9Z</time></trkpt>
<trkpt lat="46.6576490085572" lon="7.091121012344956"><ele></ele><time>2013-8-9T23:13:12Z</time></trkpt>
<trkpt lat="46.657613972201943" lon="7.091191001236439"><ele></ele><time>2013-8-9T23:13:15Z</time></trkpt>
<trkpt lat="46.657576002180576" lon="7.091246992349625"><ele></ele><time>2013-8-9T23:13:18Z</time></trkpt>
<trkpt lat="46.657535014674067" lon="7.091292003169656"><ele></ele><time>2013-8-9T23:13:21Z</time></trkpt>
<trkpt lat="46.657492015510798" lon="7.091339025646448"><ele></ele><time>2013-8-9T23:13:24Z</time></trkpt>
<trkpt lat="46.65745303966105" lon="7.091391999274492"><ele></ele><time>2013-8-9T23:13:27Z</time></trkpt>
<trkpt lat="46.657410962507129" lon="7.091440027579665"><ele></ele><time>2013-8-9T23:13:30Z</time></trkpt>
<trkpt lat="46.65736704133451" lon="7.091484032571316"><ele></ele><time>2013-8-9T23:13:33Z</time></trkpt>
<trkpt lat="46.65732697583735" lon="7.091533988714218"><ele></ele><time>2013-8-9T23:13:36Z</time></trkpt>
<trkpt lat="46.657255981117487" lon="7.091633984819055"><ele></ele><time>2013-8-9T23:13:39Z</time></trkpt>
<trkpt lat="46.657174006104469" lon="7.091744039207697"><ele></ele><time>2013-8-9T23:13:42Z</time></trkpt>
<trkpt lat="46.657108962535858" lon="7.091873958706856"><ele></ele><time>2013-8-9T23:13:45Z</time></trkpt>
<trkpt lat="46.657054983079433" lon="7.091993987560272"><ele></ele><time>2013-8-9T23:13:48Z</time></trkpt>
<trkpt lat="46.656993040814996" lon="7.092109993100166"><ele></ele><time>2013-8-9T23:13:51Z</time></trkpt>
<trkpt lat="46.656916011124849" lon="7.092318031936884"><ele></ele><time>2013-8-9T23:13:54Z</time></trkpt>
<trkpt lat="46.656862031668425" lon="7.092519029974937"><ele></ele><time>2013-8-9T23:13:57Z</time></trkpt>
<trkpt lat="46.656774021685123" lon="7.092730002477765"><ele></ele><time>2013-8-9T23:14:0Z</time></trkpt>
<trkpt lat="46.656691962853074" lon="7.092957990244031"><ele></ele><time>2013-8-9T23:14:3Z</time></trkpt>
<trkpt lat="46.656665978953242" lon="7.093090005218983"><ele></ele><time>2013-8-9T23:14:6Z</time></trkpt>
<trkpt lat="46.656590960919857" lon="7.093305001035333"><ele></ele><time>2013-8-9T23:14:9Z</time></trkpt>
<trkpt lat="46.656579980626702" lon="7.093370966613293"><ele></ele><time>2013-8-9T23:14:12Z</time></trkpt>
<trkpt lat="46.656493982300162" lon="7.093637008219957"><ele></ele><time>2013-8-9T23:14:15Z</time></trkpt>
<trkpt lat="46.656456012278795" lon="7.093682019039989"><ele></ele><time>2013-8-9T23:14:18Z</time></trkpt>
<trkpt lat="46.656462969258428" lon="7.093695010989904"><ele></ele><time>2013-8-9T23:14:21Z</time></trkpt>
<trkpt lat="46.656471015885472" lon="7.093639019876719"><ele></ele><time>2013-8-9T23:14:24Z</time></trkpt>
<trkpt lat="46.656493982300162" lon="7.093569030985236"><ele></ele><time>2013-8-9T23:14:27Z</time></trkpt>
<trkpt lat="46.656524995341897" lon="7.09349300712347"><ele></ele><time>2013-8-9T23:14:30Z</time></trkpt>
<trkpt lat="46.656550979241729" lon="7.093367027118802"><ele></ele><time>2013-8-9T23:14:33Z</time></trkpt>
<trkpt lat="46.656578974798322" lon="7.09327700547874"><ele></ele><time>2013-8-9T23:14:36Z</time></trkpt>
<trkpt lat="46.656602025032043" lon="7.09319201298058"><ele></ele><time>2013-8-9T23:14:39Z</time></trkpt>
<trkpt lat="46.656630020588636" lon="7.093043988570571"><ele></ele><time>2013-8-9T23:14:42Z</time></trkpt>
<trkpt lat="46.656672013923526" lon="7.092969976365566"><ele></ele><time>2013-8-9T23:14:45Z</time></trkpt>
<trkpt lat="46.656808974221349" lon="7.092649033293128"><ele></ele><time>2013-8-9T23:14:48Z</time></trkpt>
<trkpt lat="46.656822971999645" lon="7.092578960582614"><ele></ele><time>2013-8-9T23:14:51Z</time></trkpt>
<trkpt lat="46.656954986974597" lon="7.092297999188304"><ele></ele><time>2013-8-9T23:14:54Z</time></trkpt>
<trkpt lat="46.656968984752893" lon="7.092282995581627"><ele></ele><time>2013-8-9T23:14:57Z</time></trkpt>
<trkpt lat="46.656995974481106" lon="7.09224502556026"><ele></ele><time>2013-8-9T23:15:0Z</time></trkpt>
<trkpt lat="46.657044002786279" lon="7.09207403473556"><ele></ele><time>2013-8-9T23:15:3Z</time></trkpt>
<trkpt lat="46.657088007777929" lon="7.091939002275467"><ele></ele><time>2013-8-9T23:15:6Z</time></trkpt>
<trkpt lat="46.657111980021" lon="7.091870019212365"><ele></ele><time>2013-8-9T23:15:9Z</time></trkpt>
<trkpt lat="46.657254975289106" lon="7.091561984270811"><ele></ele><time>2013-8-9T23:15:12Z</time></trkpt>
<trkpt lat="46.657266039401293" lon="7.091541029512882"><ele></ele><time>2013-8-9T23:15:15Z</time></trkpt>
<trkpt lat="46.657279031351209" lon="7.091504987329245"><ele></ele><time>2013-8-9T23:15:18Z</time></trkpt>
<trkpt lat="46.657289005815983" lon="7.091486966237426"><ele></ele><time>2013-8-9T23:15:21Z</time></trkpt>
<trkpt lat="46.65730400942266" lon="7.091468023136258"><ele></ele><time>2013-8-9T23:15:24Z</time></trkpt>
<trkpt lat="46.657373998314142" lon="7.091364003717899"><ele></ele><time>2013-8-9T23:15:27Z</time></trkpt>
<trkpt lat="46.657449016347528" lon="7.09123601205647"><ele></ele><time>2013-8-9T23:15:30Z</time></trkpt>
<trkpt lat="46.657472988590598" lon="7.091101985424757"><ele></ele><time>2013-8-9T23:15:33Z</time></trkpt>
<trkpt lat="46.657693013548851" lon="7.090915990993381"><ele></ele><time>2013-8-9T23:15:36Z</time></trkpt>
<trkpt lat="46.657890994101763" lon="7.090805014595389"><ele></ele><time>2013-8-9T23:15:39Z</time></trkpt>
<trkpt lat="46.65792996995151" lon="7.090719016268849"><ele></ele><time>2013-8-9T23:15:42Z</time></trkpt>
<trkpt lat="46.658037006855011" lon="7.090528998523951"><ele></ele><time>2013-8-9T23:15:45Z</time></trkpt>
<trkpt lat="46.658143037930131" lon="7.090372005477548"><ele></ele><time>2013-8-9T23:15:48Z</time></trkpt>
<trkpt lat="46.658162986859679" lon="7.090305034071207"><ele></ele><time>2013-8-9T23:15:51Z</time></trkpt>
<trkpt lat="46.658200034871697" lon="7.090218029916286"><ele></ele><time>2013-8-9T23:15:54Z</time></trkpt>
<trkpt lat="46.65822702459991" lon="7.090176958590746"><ele></ele><time>2013-8-9T23:15:57Z</time></trkpt>
<trkpt lat="46.658240016549826" lon="7.090162960812449"><ele></ele><time>2013-8-9T23:16:0Z</time></trkpt>
<trkpt lat="46.658263988792896" lon="7.090123984962702"><ele></ele><time>2013-8-9T23:16:3Z</time></trkpt>
<trkpt lat="46.658480996266007" lon="7.089873030781746"><ele></ele><time>2013-8-9T23:16:6Z</time></trkpt>
<trkpt lat="46.658695992082357" lon="7.089564995840192"><ele></ele><time>2013-8-9T23:16:9Z</time></trkpt>
<trkpt lat="46.658718036487699" lon="7.089486960321665"><ele></ele><time>2013-8-9T23:16:12Z</time></trkpt>
<trkpt lat="46.658705966547132" lon="7.089423006400466"><ele></ele><time>2013-8-9T23:16:15Z</time></trkpt>
<trkpt lat="46.658531036227942" lon="7.089401967823505"><ele></ele><time>2013-8-9T23:16:18Z</time></trkpt>
<trkpt lat="46.658453000709414" lon="7.089440021663904"><ele></ele><time>2013-8-9T23:16:21Z</time></trkpt>
<trkpt lat="46.658277986571193" lon="7.089503975585103"><ele></ele><time>2013-8-9T23:16:24Z</time></trkpt>
<trkpt lat="46.658110013231635" lon="7.089626016095281"><ele></ele><time>2013-8-9T23:16:27Z</time></trkpt>
<trkpt lat="46.657857969403267" lon="7.089773034676909"><ele></ele><time>2013-8-9T23:16:30Z</time></trkpt>
<trkpt lat="46.65758203715086" lon="7.089899014681578"><ele></ele><time>2013-8-9T23:16:33Z</time></trkpt>
<trkpt lat="46.657536020502448" lon="7.089936984702945"><ele></ele><time>2013-8-9T23:16:36Z</time></trkpt>
<trkpt lat="46.657517999410629" lon="7.089944025501609"><ele></ele><time>2013-8-9T23:16:39Z</time></trkpt>
<trkpt lat="46.657451028004289" lon="7.089950982481241"><ele></ele><time>2013-8-9T23:16:42Z</time></trkpt>
<trkpt lat="46.657248018309474" lon="7.090116022154689"><ele></ele><time>2013-8-9T23:16:45Z</time></trkpt>
<trkpt lat="46.656976025551558" lon="7.090546013787389"><ele></ele><time>2013-8-9T23:16:48Z</time></trkpt>
<trkpt lat="46.656797993928194" lon="7.090977011248469"><ele></ele><time>2013-8-9T23:16:51Z</time></trkpt>
<trkpt lat="46.656774021685123" lon="7.091049011796713"><ele></ele><time>2013-8-9T23:16:54Z</time></trkpt>
<trkpt lat="46.656761029735208" lon="7.091126041486859"><ele></ele><time>2013-8-9T23:16:57Z</time></trkpt>
<trkpt lat="46.65674502030015" lon="7.0911930128932"><ele></ele><time>2013-8-9T23:17:0Z</time></trkpt>
<trkpt lat="46.656710989773273" lon="7.091242969036102"><ele></ele><time>2013-8-9T23:17:3Z</time></trkpt>
<trkpt lat="46.656678970903158" lon="7.091287979856133"><ele></ele><time>2013-8-9T23:17:6Z</time></trkpt>
<trkpt lat="46.656515020877123" lon="7.091506998986006"><ele></ele><time>2013-8-9T23:17:9Z</time></trkpt>
<trkpt lat="46.656479984521866" lon="7.091546980664134"><ele></ele><time>2013-8-9T23:17:12Z</time></trkpt>
<trkpt lat="46.656447965651751" lon="7.091586040332913"><ele></ele><time>2013-8-9T23:17:15Z</time></trkpt>
<trkpt lat="46.656418964266777" lon="7.091629039496183"><ele></ele><time>2013-8-9T23:17:18Z</time></trkpt>
<trkpt lat="46.656397003680468" lon="7.091672960668802"><ele></ele><time>2013-8-9T23:17:21Z</time></trkpt>
<trkpt lat="46.656378982588649" lon="7.091714031994343"><ele></ele><time>2013-8-9T23:17:24Z</time></trkpt>
<trkpt lat="46.656360039487481" lon="7.09175300784409"><ele></ele><time>2013-8-9T23:17:27Z</time></trkpt>
<trkpt lat="46.656339000910521" lon="7.091789972037077"><ele></ele><time>2013-8-9T23:17:30Z</time></trkpt>
<trkpt lat="46.656130040064454" lon="7.092128014191985"><ele></ele><time>2013-8-9T23:17:33Z</time></trkpt>
<trkpt lat="46.656087040901184" lon="7.092214012518525"><ele></ele><time>2013-8-9T23:17:36Z</time></trkpt>
<trkpt lat="46.656019985675812" lon="7.09252598695457"><ele></ele><time>2013-8-9T23:17:39Z</time></trkpt>
<trkpt lat="46.656021997332573" lon="7.092599999159575"><ele></ele><time>2013-8-9T23:17:42Z</time></trkpt>
<trkpt lat="46.656015040352941" lon="7.092677028849721"><ele></ele><time>2013-8-9T23:17:45Z</time></trkpt>
<trkpt lat="46.656011017039418" lon="7.092733019962907"><ele></ele><time>2013-8-9T23:17:48Z</time></trkpt>
<trkpt lat="46.655992995947599" lon="7.092781970277429"><ele></ele><time>2013-8-9T23:17:51Z</time></trkpt>
<trkpt lat="46.655855029821396" lon="7.093038037419319"><ele></ele><time>2013-8-9T23:17:54Z</time></trkpt>
<trkpt lat="46.655742963775992" lon="7.093077013269067"><ele></ele><time>2013-8-9T23:17:57Z</time></trkpt>
<trkpt lat="46.655748998746276" lon="7.093159994110465"><ele></ele><time>2013-8-9T23:18:0Z</time></trkpt>
<trkpt lat="46.655744975432754" lon="7.093173991888762"><ele></ele><time>2013-8-9T23:18:3Z</time></trkpt>
<trkpt lat="46.655732989311218" lon="7.093153037130833"><ele></ele><time>2013-8-9T23:18:6Z</time></trkpt>
<trkpt lat="46.655528973788023" lon="7.092880960553885"><ele></ele><time>2013-8-9T23:18:9Z</time></trkpt>
<trkpt lat="46.655291011556983" lon="7.092445017769933"><ele></ele><time>2013-8-9T23:18:12Z</time></trkpt>
<trkpt lat="46.655237032100558" lon="7.092364970594645"><ele></ele><time>2013-8-9T23:18:15Z</time></trkpt>
<trkpt lat="46.655126977711916" lon="7.092115022242069"><ele></ele><time>2013-8-9T23:18:18Z</time></trkpt>
<trkpt lat="46.654938971623778" lon="7.091635996475816"><ele></ele><time>2013-8-9T23:18:21Z</time></trkpt>
<trkpt lat="46.65449196472764" lon="7.091142972931266"><ele></ele><time>2013-8-9T23:18:24Z</time></trkpt>
<trkpt lat="46.653699958696961" lon="7.090480970218778"><ele></ele><time>2013-8-9T23:18:27Z</time></trkpt>
<trkpt lat="46.653449004516006" lon="7.09026999771595"><ele></ele><time>2013-8-9T23:18:30Z</time></trkpt>
<trkpt lat="46.653397036716342" lon="7.090231021866202"><ele></ele><time>2013-8-9T23:18:33Z</time></trkpt>
<trkpt lat="46.652659010142088" lon="7.089693993330002"><ele></ele><time>2013-8-9T23:18:36Z</time></trkpt>
<trkpt lat="46.652545016258955" lon="7.089587962254882"><ele></ele><time>2013-8-9T23:18:39Z</time></trkpt>
<trkpt lat="46.652506962418556" lon="7.089552003890276"><ele></ele><time>2013-8-9T23:18:42Z</time></trkpt>
<trkpt lat="46.652424987405539" lon="7.089484026655555"><ele></ele><time>2013-8-9T23:18:45Z</time></trkpt>
<trkpt lat="46.652375031262636" lon="7.089460976421833"><ele></ele><time>2013-8-9T23:18:48Z</time></trkpt>
<trkpt lat="46.652315016835928" lon="7.08945301361382"><ele></ele><time>2013-8-9T23:18:51Z</time></trkpt>
<trkpt lat="46.652248967438936" lon="7.089469023048878"><ele></ele><time>2013-8-9T23:18:54Z</time></trkpt>
<trkpt lat="46.652177972719073" lon="7.089500036090612"><ele></ele><time>2013-8-9T23:18:57Z</time></trkpt>
<trkpt lat="46.651867004111409" lon="7.089648982509971"><ele></ele><time>2013-8-9T23:19:0Z</time></trkpt>
<trkpt lat="46.651786034926772" lon="7.089669015258551"><ele></ele><time>2013-8-9T23:19:3Z</time></trkpt>
<trkpt lat="46.651702970266342" lon="7.089657029137015"><ele></ele><time>2013-8-9T23:19:6Z</time></trkpt>
<trkpt lat="46.651620995253325" lon="7.089624004438519"><ele></ele><time>2013-8-9T23:19:9Z</time></trkpt>
<trkpt lat="46.651541031897068" lon="7.089579999446869"><ele></ele><time>2013-8-9T23:19:12Z</time></trkpt>
<trkpt lat="46.651298962533474" lon="7.089398028329015"><ele></ele><time>2013-8-9T23:19:15Z</time></trkpt>
<trkpt lat="46.651128977537155" lon="7.089269030839205"><ele></ele><time>2013-8-9T23:19:18Z</time></trkpt>
<trkpt lat="46.650872994214296" lon="7.089097034186125"><ele></ele><time>2013-8-9T23:19:21Z</time></trkpt>
<trkpt lat="46.65064400061965" lon="7.088940963149071"><ele></ele><time>2013-8-9T23:19:24Z</time></trkpt>
<trkpt lat="46.65057803504169" lon="7.088866028934717"><ele></ele><time>2013-8-9T23:19:27Z</time></trkpt>
<trkpt lat="46.650533024221659" lon="7.088771983981133"><ele></ele><time>2013-8-9T23:19:30Z</time></trkpt>
<trkpt lat="46.650319034233689" lon="7.088060025125742"><ele></ele><time>2013-8-9T23:19:33Z</time></trkpt>
<trkpt lat="46.650305958464742" lon="7.087976960465312"><ele></ele><time>2013-8-9T23:19:36Z</time></trkpt>
<trkpt lat="46.650292966514826" lon="7.087896997109056"><ele></ele><time>2013-8-9T23:19:39Z</time></trkpt>
<trkpt lat="46.650275029242039" lon="7.087822984904051"><ele></ele><time>2013-8-9T23:19:42Z</time></trkpt>
<trkpt lat="46.650243010371923" lon="7.087760958820581"><ele></ele><time>2013-8-9T23:19:45Z</time></trkpt>
<trkpt lat="46.650199005380273" lon="7.08773497492075"><ele></ele><time>2013-8-9T23:19:48Z</time></trkpt>
<trkpt lat="46.650159023702145" lon="7.087748972699046"><ele></ele><time>2013-8-9T23:19:51Z</time></trkpt>
<trkpt lat="46.650133039802313" lon="7.087791971862316"><ele></ele><time>2013-8-9T23:19:54Z</time></trkpt>
<trkpt lat="46.650119964033365" lon="7.087852992117405"><ele></ele><time>2013-8-9T23:19:57Z</time></trkpt>
<trkpt lat="46.650127004832029" lon="7.087929015979171"><ele></ele><time>2013-8-9T23:20:0Z</time></trkpt>
<trkpt lat="46.650149971246719" lon="7.08801300264895"><ele></ele><time>2013-8-9T23:20:3Z</time></trkpt>
<trkpt lat="46.650181990116835" lon="7.088096989318728"><ele></ele><time>2013-8-9T23:20:6Z</time></trkpt>
<trkpt lat="46.650216020643711" lon="7.088180975988507"><ele></ele><time>2013-8-9T23:20:9Z</time></trkpt>
<trkpt lat="46.650247033685446" lon="7.088265968486667"><ele></ele><time>2013-8-9T23:20:12Z</time></trkpt>
<trkpt lat="46.650767968967557" lon="7.089553009718657"><ele></ele><time>2013-8-9T23:20:15Z</time></trkpt>
<trkpt lat="46.651125038042665" lon="7.090010996907949"><ele></ele><time>2013-8-9T23:20:18Z</time></trkpt>
<trkpt lat="46.651198966428638" lon="7.090074028819799"><ele></ele><time>2013-8-9T23:20:21Z</time></trkpt>
<trkpt lat="46.651442963629961" lon="7.09024703130126"><ele></ele><time>2013-8-9T23:20:24Z</time></trkpt>
<trkpt lat="46.651881001889706" lon="7.090524975210428"><ele></ele><time>2013-8-9T23:20:27Z</time></trkpt>
<trkpt lat="46.652244022116065" lon="7.090747011825442"><ele></ele><time>2013-8-9T23:20:30Z</time></trkpt>
<trkpt lat="46.652817009016871" lon="7.091080024838448"><ele></ele><time>2013-8-9T23:20:33Z</time></trkpt>
<trkpt lat="46.653321012854576" lon="7.091341037303209"><ele></ele><time>2013-8-9T23:20:36Z</time></trkpt>
<trkpt lat="46.653604991734028" lon="7.091590985655785"><ele></ele><time>2013-8-9T23:20:39Z</time></trkpt>
<trkpt lat="46.653688978403807" lon="7.091691987589002"><ele></ele><time>2013-8-9T23:20:42Z</time></trkpt>
<trkpt lat="46.653843959793448" lon="7.091916035860777"><ele></ele><time>2013-8-9T23:20:45Z</time></trkpt>
<trkpt lat="46.654053004458547" lon="7.092285007238388"><ele></ele><time>2013-8-9T23:20:48Z</time></trkpt>
<trkpt lat="46.65440496057272" lon="7.092904010787606"><ele></ele><time>2013-8-9T23:20:51Z</time></trkpt>
<trkpt lat="46.654813997447491" lon="7.093642959371209"><ele></ele><time>2013-8-9T23:20:54Z</time></trkpt>
<trkpt lat="46.655082972720265" lon="7.094346033409238"><ele></ele><time>2013-8-9T23:20:57Z</time></trkpt>
<trkpt lat="46.655149022117257" lon="7.094643004238605"><ele></ele><time>2013-8-9T23:21:0Z</time></trkpt>
<trkpt lat="46.655324036255479" lon="7.095809010788798"><ele></ele><time>2013-8-9T23:21:3Z</time></trkpt>
<trkpt lat="46.655339961871505" lon="7.095918981358409"><ele></ele><time>2013-8-9T23:21:6Z</time></trkpt>
<trkpt lat="46.65537198074162" lon="7.096141017973423"><ele></ele><time>2013-8-9T23:21:9Z</time></trkpt>
<trkpt lat="46.655463008210063" lon="7.097024973481894"><ele></ele><time>2013-8-9T23:21:12Z</time></trkpt>
<trkpt lat="46.655454961583018" lon="7.097128992900252"><ele></ele><time>2013-8-9T23:21:15Z</time></trkpt>
<trkpt lat="46.655333004891872" lon="7.097970033064485"><ele></ele><time>2013-8-9T23:21:18Z</time></trkpt>
<trkpt lat="46.655293023213744" lon="7.098409999161959"><ele></ele><time>2013-8-9T23:21:21Z</time></trkpt>
<trkpt lat="46.655296040698886" lon="7.098495997488499"><ele></ele><time>2013-8-9T23:21:24Z</time></trkpt>
<trkpt lat="46.655305009335279" lon="7.0985840074718"><ele></ele><time>2013-8-9T23:21:27Z</time></trkpt>
<trkpt lat="46.655323030427098" lon="7.09867000579834"><ele></ele><time>2013-8-9T23:21:30Z</time></trkpt>
<trkpt lat="46.65534901432693" lon="7.098750974982977"><ele></ele><time>2013-8-9T23:21:33Z</time></trkpt>
<trkpt lat="46.655378015711904" lon="7.098825993016362"><ele></ele><time>2013-8-9T23:21:36Z</time></trkpt>
<trkpt lat="46.655413974076509" lon="7.098893970251083"><ele></ele><time>2013-8-9T23:21:39Z</time></trkpt>
<trkpt lat="46.655454039573669" lon="7.098947027698159"><ele></ele><time>2013-8-9T23:21:42Z</time></trkpt>
<trkpt lat="46.65550097823143" lon="7.09899203851819"><ele></ele><time>2013-8-9T23:21:45Z</time></trkpt>
<trkpt lat="46.655546994879842" lon="7.099032020196319"><ele></ele><time>2013-8-9T23:21:48Z</time></trkpt>
<trkpt lat="46.655592005699873" lon="7.099062027409673"><ele></ele><time>2013-8-9T23:21:51Z</time></trkpt>
<trkpt lat="46.655641039833426" lon="7.099085999652743"><ele></ele><time>2013-8-9T23:21:54Z</time></trkpt>
<trkpt lat="46.655687978491187" lon="7.099107960239053"><ele></ele><time>2013-8-9T23:21:57Z</time></trkpt>
<trkpt lat="46.655724020674825" lon="7.099124975502491"><ele></ele><time>2013-8-9T23:22:0Z</time></trkpt>
<trkpt lat="46.65575897321105" lon="7.099135033786297"><ele></ele><time>2013-8-9T23:22:3Z</time></trkpt>
<trkpt lat="46.655851006507874" lon="7.099162023514509"><ele></ele><time>2013-8-9T23:22:6Z</time></trkpt>
<trkpt lat="46.656124005094171" lon="7.099212985485792"><ele></ele><time>2013-8-9T23:22:9Z</time></trkpt>
<trkpt lat="46.656678970903158" lon="7.099660998210311"><ele></ele><time>2013-8-9T23:22:12Z</time></trkpt>
<trkpt lat="46.6569600161165" lon="7.100040027871728"><ele></ele><time>2013-8-9T23:22:15Z</time></trkpt>
<trkpt lat="46.65715598501265" lon="7.100284025073051"><ele></ele><time>2013-8-9T23:22:18Z</time></trkpt>
<trkpt lat="46.657188003882766" lon="7.100323000922799"><ele></ele><time>2013-8-9T23:22:21Z</time></trkpt>
<trkpt lat="46.657213987782598" lon="7.100366000086069"><ele></ele><time>2013-8-9T23:22:24Z</time></trkpt>
<trkpt lat="46.657237960025668" lon="7.100408999249339"><ele></ele><time>2013-8-9T23:22:27Z</time></trkpt>
<trkpt lat="46.657266961410642" lon="7.100447975099087"><ele></ele><time>2013-8-9T23:22:30Z</time></trkpt>
<trkpt lat="46.657722014933825" lon="7.100848965346813"><ele></ele><time>2013-8-9T23:22:33Z</time></trkpt>
<trkpt lat="46.65814203210175" lon="7.100896993651986"><ele></ele><time>2013-8-9T23:22:36Z</time></trkpt>
<trkpt lat="46.658698003739119" lon="7.100814012810588"><ele></ele><time>2013-8-9T23:22:39Z</time></trkpt>
<trkpt lat="46.659133024513721" lon="7.101051975041628"><ele></ele><time>2013-8-9T23:22:42Z</time></trkpt>
<trkpt lat="46.659255987033248" lon="7.101670978590846"><ele></ele><time>2013-8-9T23:22:45Z</time></trkpt>
<trkpt lat="46.65928297676146" lon="7.102887025102973"><ele></ele><time>2013-8-9T23:22:48Z</time></trkpt>
<trkpt lat="46.659308038651943" lon="7.104125032201409"><ele></ele><time>2013-8-9T23:22:51Z</time></trkpt>
<trkpt lat="46.659310972318053" lon="7.104949979111552"><ele></ele><time>2013-8-9T23:22:54Z</time></trkpt>
<trkpt lat="46.659310972318053" lon="7.105018040165305"><ele></ele><time>2013-8-9T23:22:57Z</time></trkpt>
<trkpt lat="46.659295968711376" lon="7.105479966849089"><ele></ele><time>2013-8-9T23:23:0Z</time></trkpt>
<trkpt lat="46.659280965104699" lon="7.105542998760939"><ele></ele><time>2013-8-9T23:23:3Z</time></trkpt>
<trkpt lat="46.659256992861629" lon="7.105597984045744"><ele></ele><time>2013-8-9T23:23:6Z</time></trkpt>
<trkpt lat="46.659230003133416" lon="7.105648024007678"><ele></ele><time>2013-8-9T23:23:9Z</time></trkpt>
<trkpt lat="46.659212987869978" lon="7.105707032606006"><ele></ele><time>2013-8-9T23:23:12Z</time></trkpt>
<trkpt lat="46.659209970384836" lon="7.105775009840727"><ele></ele><time>2013-8-9T23:23:15Z</time></trkpt>
<trkpt lat="46.659222040325403" lon="7.105842987075448"><ele></ele><time>2013-8-9T23:23:18Z</time></trkpt>
<trkpt lat="46.659244000911713" lon="7.105908030644059"><ele></ele><time>2013-8-9T23:23:21Z</time></trkpt>
<trkpt lat="46.659274008125067" lon="7.105964021757245"><ele></ele><time>2013-8-9T23:23:24Z</time></trkpt>
<trkpt lat="46.659305021166801" lon="7.106022024527192"><ele></ele><time>2013-8-9T23:23:27Z</time></trkpt>
<trkpt lat="46.659335028380156" lon="7.10608497262001"><ele></ele><time>2013-8-9T23:23:30Z</time></trkpt>
<trkpt lat="46.659353971481323" lon="7.106154961511493"><ele></ele><time>2013-8-9T23:23:33Z</time></trkpt>
<trkpt lat="46.659355983138084" lon="7.106223022565246"><ele></ele><time>2013-8-9T23:23:36Z</time></trkpt>
<trkpt lat="46.659351959824562" lon="7.106286976486444"><ele></ele><time>2013-8-9T23:23:39Z</time></trkpt>
<trkpt lat="46.659339973703027" lon="7.106398036703467"><ele></ele><time>2013-8-9T23:23:42Z</time></trkpt>
<trkpt lat="46.659240983426571" lon="7.106994995847344"><ele></ele><time>2013-8-9T23:23:45Z</time></trkpt>
<trkpt lat="46.659034034237266" lon="7.107365978881717"><ele></ele><time>2013-8-9T23:23:48Z</time></trkpt>
<trkpt lat="46.658944012597203" lon="7.107765963301063"><ele></ele><time>2013-8-9T23:23:51Z</time></trkpt>
<trkpt lat="46.658848961815238" lon="7.108051031827927"><ele></ele><time>2013-8-9T23:23:54Z</time></trkpt>
<trkpt lat="46.658840999007225" lon="7.108127977699041"><ele></ele><time>2013-8-9T23:23:57Z</time></trkpt>
<trkpt lat="46.658833036199212" lon="7.108154967427254"><ele></ele><time>2013-8-9T23:24:0Z</time></trkpt>
<trkpt lat="46.65882901288569" lon="7.108186986297369"><ele></ele><time>2013-8-9T23:24:3Z</time></trkpt>
<trkpt lat="46.658822977915406" lon="7.108220010995865"><ele></ele><time>2013-8-9T23:24:6Z</time></trkpt>
<trkpt lat="46.658818032592535" lon="7.108250018209219"><ele></ele><time>2013-8-9T23:24:9Z</time></trkpt>
<trkpt lat="46.658756006509066" lon="7.108543971553445"><ele></ele><time>2013-8-9T23:24:12Z</time></trkpt>
<trkpt lat="46.658645030111074" lon="7.108814958482981"><ele></ele><time>2013-8-9T23:24:15Z</time></trkpt>
<trkpt lat="46.658661961555481" lon="7.109163980931044"><ele></ele><time>2013-8-9T23:24:18Z</time></trkpt>
<trkpt lat="46.658685011789203" lon="7.109289038926363"><ele></ele><time>2013-8-9T23:24:21Z</time></trkpt>
<trkpt lat="46.65868098847568" lon="7.109310999512672"><ele></ele><time>2013-8-9T23:24:24Z</time></trkpt>
<trkpt lat="46.65868098847568" lon="7.109332038089633"><ele></ele><time>2013-8-9T23:24:27Z</time></trkpt>
<trkpt lat="46.658656010404229" lon="7.109667984768748"><ele></ele><time>2013-8-9T23:24:30Z</time></trkpt>
<trkpt lat="46.658411007374525" lon="7.109560025855899"><ele></ele><time>2013-8-9T23:24:33Z</time></trkpt>
<trkpt lat="46.65822803042829" lon="7.109451983124018"><ele></ele><time>2013-8-9T23:24:36Z</time></trkpt>
<trkpt lat="46.658123005181551" lon="7.109448965638876"><ele></ele><time>2013-8-9T23:24:39Z</time></trkpt>
<trkpt lat="46.657913038507104" lon="7.109473021700978"><ele></ele><time>2013-8-9T23:24:42Z</time></trkpt>
<trkpt lat="46.657718997448683" lon="7.109570000320673"><ele></ele><time>2013-8-9T23:24:45Z</time></trkpt>
<trkpt lat="46.657514981925488" lon="7.109811985865235"><ele></ele><time>2013-8-9T23:24:48Z</time></trkpt>
<trkpt lat="46.657383972778916" lon="7.110079033300281"><ele></ele><time>2013-8-9T23:24:51Z</time></trkpt>
<trkpt lat="46.657329993322492" lon="7.110376004129648"><ele></ele><time>2013-8-9T23:24:54Z</time></trkpt>
<trkpt lat="46.657292023301125" lon="7.110586976632476"><ele></ele><time>2013-8-9T23:24:57Z</time></trkpt>
<trkpt lat="46.657290011644363" lon="7.110606003552675"><ele></ele><time>2013-8-9T23:25:0Z</time></trkpt>
<trkpt lat="46.657221028581262" lon="7.110928958281875"><ele></ele><time>2013-8-9T23:25:3Z</time></trkpt>
<trkpt lat="46.657128995284438" lon="7.111060973256826"><ele></ele><time>2013-8-9T23:25:6Z</time></trkpt>
<trkpt lat="46.657113991677761" lon="7.111069019883871"><ele></ele><time>2013-8-9T23:25:9Z</time></trkpt>
<trkpt lat="46.657100999727845" lon="7.111076982691884"><ele></ele><time>2013-8-9T23:25:12Z</time></trkpt>
<trkpt lat="46.65708901360631" lon="7.111084023490548"><ele></ele><time>2013-8-9T23:25:15Z</time></trkpt>
<trkpt lat="46.657078033313155" lon="7.111092992126942"><ele></ele><time>2013-8-9T23:25:18Z</time></trkpt>
<trkpt lat="46.656881980597973" lon="7.111213020980358"><ele></ele><time>2013-8-9T23:25:21Z</time></trkpt>
<trkpt lat="46.656867982819676" lon="7.111206986010075"><ele></ele><time>2013-8-9T23:25:24Z</time></trkpt>
<trkpt lat="46.65685398504138" lon="7.111208997666836"><ele></ele><time>2013-8-9T23:25:27Z</time></trkpt>
<trkpt lat="46.656634965911508" lon="7.11128200404346"><ele></ele><time>2013-8-9T23:25:30Z</time></trkpt>
<trkpt lat="46.656450983136892" lon="7.11139197461307"><ele></ele><time>2013-8-9T23:25:33Z</time></trkpt>
<trkpt lat="46.656351992860436" lon="7.111719036474824"><ele></ele><time>2013-8-9T23:25:36Z</time></trkpt>
<trkpt lat="46.656132973730564" lon="7.111881980672479"><ele></ele><time>2013-8-9T23:25:39Z</time></trkpt>
<trkpt lat="46.655900962650776" lon="7.111919028684497"><ele></ele><time>2013-8-9T23:25:42Z</time></trkpt>
<trkpt lat="46.655674986541271" lon="7.112007960677147"><ele></ele><time>2013-8-9T23:25:45Z</time></trkpt>
<trkpt lat="46.655513970181346" lon="7.112060012295842"><ele></ele><time>2013-8-9T23:25:48Z</time></trkpt>
<trkpt lat="46.655505001544952" lon="7.11207702755928"><ele></ele><time>2013-8-9T23:25:51Z</time></trkpt>
<trkpt lat="46.655491003766656" lon="7.112089013680816"><ele></ele><time>2013-8-9T23:25:54Z</time></trkpt>
<trkpt lat="46.655476000159979" lon="7.112093959003687"><ele></ele><time>2013-8-9T23:25:57Z</time></trkpt>
<trkpt lat="46.655460996553302" lon="7.112093959003687"><ele></ele><time>2013-8-9T23:26:0Z</time></trkpt>
<trkpt lat="46.655325964093208" lon="7.112148022279143"><ele></ele><time>2013-8-9T23:26:3Z</time></trkpt>
<trkpt lat="46.655311966314912" lon="7.112150033935905"><ele></ele><time>2013-8-9T23:26:6Z</time></trkpt>
<trkpt lat="46.655298974364996" lon="7.112150033935905"><ele></ele><time>2013-8-9T23:26:9Z</time></trkpt>
<trkpt lat="46.655284976586699" lon="7.112151961773634"><ele></ele><time>2013-8-9T23:26:12Z</time></trkpt>
<trkpt lat="46.655270978808403" lon="7.112157996743917"><ele></ele><time>2013-8-9T23:26:15Z</time></trkpt>
<trkpt lat="46.655080961063504" lon="7.112246006727219"><ele></ele><time>2013-8-9T23:26:18Z</time></trkpt>
<trkpt lat="46.654853979125619" lon="7.112336028367281"><ele></ele><time>2013-8-9T23:26:21Z</time></trkpt>
<trkpt lat="46.654658010229468" lon="7.112450022250414"><ele></ele><time>2013-8-9T23:26:24Z</time></trkpt>
<trkpt lat="46.654516020789742" lon="7.112582037225366"><ele></ele><time>2013-8-9T23:26:27Z</time></trkpt>
<trkpt lat="46.654504034668207" lon="7.11259201169014"><ele></ele><time>2013-8-9T23:26:30Z</time></trkpt>
<trkpt lat="46.654493976384401" lon="7.112601986154914"><ele></ele><time>2013-8-9T23:26:33Z</time></trkpt>
<trkpt lat="46.654303036630154" lon="7.112793009728193"><ele></ele><time>2013-8-9T23:26:36Z</time></trkpt>
<trkpt lat="46.654284009709954" lon="7.112815976142883"><ele></ele><time>2013-8-9T23:26:39Z</time></trkpt>
<trkpt lat="46.65427403524518" lon="7.112827962264419"><ele></ele><time>2013-8-9T23:26:42Z</time></trkpt>
<trkpt lat="46.654263976961374" lon="7.112838020548224"><ele></ele><time>2013-8-9T23:26:45Z</time></trkpt>
<trkpt lat="46.654255008324981" lon="7.11285101249814"><ele></ele><time>2013-8-9T23:26:48Z</time></trkpt>
<trkpt lat="46.654246961697936" lon="7.112865010276437"><ele></ele><time>2013-8-9T23:26:51Z</time></trkpt>
<trkpt lat="46.654236987233162" lon="7.112878002226353"><ele></ele><time>2013-8-9T23:26:54Z</time></trkpt>
<trkpt lat="46.654226006940007" lon="7.112889988347888"><ele></ele><time>2013-8-9T23:26:57Z</time></trkpt>
<trkpt lat="46.654016962274909" lon="7.113054022192955"><ele></ele><time>2013-8-9T23:27:0Z</time></trkpt>
<trkpt lat="46.653832979500294" lon="7.11315100081265"><ele></ele><time>2013-8-9T23:27:3Z</time></trkpt>
<trkpt lat="46.653614966198802" lon="7.113201040774584"><ele></ele><time>2013-8-9T23:27:6Z</time></trkpt>
<trkpt lat="46.653569033369422" lon="7.113189976662397"><ele></ele><time>2013-8-9T23:27:9Z</time></trkpt>
<trkpt lat="46.653555035591125" lon="7.113189976662397"><ele></ele><time>2013-8-9T23:27:12Z</time></trkpt>
<trkpt lat="46.653540031984448" lon="7.113191988319159"><ele></ele><time>2013-8-9T23:27:15Z</time></trkpt>
<trkpt lat="46.653525028377771" lon="7.113191988319159"><ele></ele><time>2013-8-9T23:27:18Z</time></trkpt>
<trkpt lat="46.653320007026196" lon="7.113177990540862"><ele></ele><time>2013-8-9T23:27:21Z</time></trkpt>
<trkpt lat="46.653079027310014" lon="7.113232975825667"><ele></ele><time>2013-8-9T23:27:24Z</time></trkpt>
<trkpt lat="46.652842992916703" lon="7.113363984972239"><ele></ele><time>2013-8-9T23:27:27Z</time></trkpt>
<trkpt lat="46.652837041765451" lon="7.113385023549199"><ele></ele><time>2013-8-9T23:27:30Z</time></trkpt>
<trkpt lat="46.65283503010869" lon="7.113406984135509"><ele></ele><time>2013-8-9T23:27:33Z</time></trkpt>
<trkpt lat="46.65283402428031" lon="7.11342902854085"><ele></ele><time>2013-8-9T23:27:36Z</time></trkpt>
<trkpt lat="46.65283503010869" lon="7.113450989127159"><ele></ele><time>2013-8-9T23:27:39Z</time></trkpt>
<trkpt lat="46.6528379637748" lon="7.11347496137023"><ele></ele><time>2013-8-9T23:27:42Z</time></trkpt>
<trkpt lat="46.652843998745084" lon="7.11349599994719"><ele></ele><time>2013-8-9T23:27:45Z</time></trkpt>
<trkpt lat="46.652851039543748" lon="7.11351603269577"><ele></ele><time>2013-8-9T23:27:48Z</time></trkpt>
<trkpt lat="46.65285799652338" lon="7.113533969968557"><ele></ele><time>2013-8-9T23:27:51Z</time></trkpt>
<trkpt lat="46.652869982644916" lon="7.113549979403615"><ele></ele><time>2013-8-9T23:27:54Z</time></trkpt>
<trkpt lat="46.652883980423212" lon="7.113560037687421"><ele></ele><time>2013-8-9T23:27:57Z</time></trkpt>
<trkpt lat="46.653138035908341" lon="7.113681994378567"><ele></ele><time>2013-8-9T23:28:0Z</time></trkpt>
<trkpt lat="46.653334004804492" lon="7.113896990194917"><ele></ele><time>2013-8-9T23:28:3Z</time></trkpt>
<trkpt lat="46.653407011181116" lon="7.114122966304421"><ele></ele><time>2013-8-9T23:28:6Z</time></trkpt>
<trkpt lat="46.653406005352736" lon="7.114145010709763"><ele></ele><time>2013-8-9T23:28:9Z</time></trkpt>
<trkpt lat="46.653408017009497" lon="7.114165965467691"><ele></ele><time>2013-8-9T23:28:12Z</time></trkpt>
<trkpt lat="46.653411034494638" lon="7.114187004044652"><ele></ele><time>2013-8-9T23:28:15Z</time></trkpt>
<trkpt lat="46.65341597981751" lon="7.114207958802581"><ele></ele><time>2013-8-9T23:28:18Z</time></trkpt>
<trkpt lat="46.653417991474271" lon="7.11422698572278"><ele></ele><time>2013-8-9T23:28:21Z</time></trkpt>
<trkpt lat="46.653414973989129" lon="7.11424701847136"><ele></ele><time>2013-8-9T23:28:24Z</time></trkpt>
<trkpt lat="46.653411034494638" lon="7.11426998488605"><ele></ele><time>2013-8-9T23:28:27Z</time></trkpt>
<trkpt lat="46.653408017009497" lon="7.114292029291391"><ele></ele><time>2013-8-9T23:28:30Z</time></trkpt>
<trkpt lat="46.653407011181116" lon="7.11431298404932"><ele></ele><time>2013-8-9T23:28:33Z</time></trkpt>
<trkpt lat="46.653293017297983" lon="7.114511970430613"><ele></ele><time>2013-8-9T23:28:36Z</time></trkpt>
<trkpt lat="46.653279019519687" lon="7.114516999572515"><ele></ele><time>2013-8-9T23:28:39Z</time></trkpt>
<trkpt lat="46.65326401591301" lon="7.114521022886038"><ele></ele><time>2013-8-9T23:28:42Z</time></trkpt>
<trkpt lat="46.653249012306333" lon="7.114524962380528"><ele></ele><time>2013-8-9T23:28:45Z</time></trkpt>
<trkpt lat="46.653235014528036" lon="7.114529991522431"><ele></ele><time>2013-8-9T23:28:48Z</time></trkpt>
<trkpt lat="46.65322101674974" lon="7.114534014835954"><ele></ele><time>2013-8-9T23:28:51Z</time></trkpt>
<trkpt lat="46.653210958465934" lon="7.114542983472347"><ele></ele><time>2013-8-9T23:28:54Z</time></trkpt>
<trkpt lat="46.65320198982954" lon="7.114553963765502"><ele></ele><time>2013-8-9T23:28:57Z</time></trkpt>
<trkpt lat="46.653193021193147" lon="7.114564022049308"><ele></ele><time>2013-8-9T23:29:0Z</time></trkpt>
<trkpt lat="46.653183968737721" lon="7.11457097902894"><ele></ele><time>2013-8-9T23:29:3Z</time></trkpt>
<trkpt lat="46.653169970959425" lon="7.114573996514082"><ele></ele><time>2013-8-9T23:29:6Z</time></trkpt>
<trkpt lat="46.653142981231213" lon="7.114581959322095"><ele></ele><time>2013-8-9T23:29:9Z</time></trkpt>
<trkpt lat="46.653132000938058" lon="7.114592017605901"><ele></ele><time>2013-8-9T23:29:12Z</time></trkpt>
<trkpt lat="46.653123032301664" lon="7.114604003727436"><ele></ele><time>2013-8-9T23:29:15Z</time></trkpt>
<trkpt lat="46.653112974017859" lon="7.114618001505733"><ele></ele><time>2013-8-9T23:29:18Z</time></trkpt>
<trkpt lat="46.653101993724704" lon="7.114627975970507"><ele></ele><time>2013-8-9T23:29:21Z</time></trkpt>
<trkpt lat="46.653090007603168" lon="7.114635016769171"><ele></ele><time>2013-8-9T23:29:24Z</time></trkpt>
<trkpt lat="46.653079027310014" lon="7.114640967920423"><ele></ele><time>2013-8-9T23:29:27Z</time></trkpt>
<trkpt lat="46.653067041188478" lon="7.114645997062325"><ele></ele><time>2013-8-9T23:29:30Z</time></trkpt>
<trkpt lat="46.653053965419531" lon="7.114645997062325"><ele></ele><time>2013-8-9T23:29:33Z</time></trkpt>
<trkpt lat="46.653040973469615" lon="7.114649014547467"><ele></ele><time>2013-8-9T23:29:36Z</time></trkpt>
<trkpt lat="46.652866965159774" lon="7.114733001217246"><ele></ele><time>2013-8-9T23:29:39Z</time></trkpt>
<trkpt lat="46.652812985703349" lon="7.114788992330432"><ele></ele><time>2013-8-9T23:29:42Z</time></trkpt>
<trkpt lat="46.652800999581814" lon="7.114795027300715"><ele></ele><time>2013-8-9T23:29:45Z</time></trkpt>
<trkpt lat="46.652626991271973" lon="7.114887982606888"><ele></ele><time>2013-8-9T23:29:48Z</time></trkpt>
<trkpt lat="46.652463963255286" lon="7.114967023953795"><ele></ele><time>2013-8-9T23:29:51Z</time></trkpt>
<trkpt lat="46.6524079721421" lon="7.114996025338769"><ele></ele><time>2013-8-9T23:29:54Z</time></trkpt>
<trkpt lat="46.652215020731091" lon="7.115097027271986"><ele></ele><time>2013-8-9T23:29:57Z</time></trkpt>
<trkpt lat="46.652122987434268" lon="7.115377988666296"><ele></ele><time>2013-8-9T23:30:0Z</time></trkpt>
<trkpt lat="46.652122987434268" lon="7.115639001131058"><ele></ele><time>2013-8-9T23:30:3Z</time></trkpt>
<trkpt lat="46.652091974392533" lon="7.115907976403832"><ele></ele><time>2013-8-9T23:30:6Z</time></trkpt>
<trkpt lat="46.652072025462985" lon="7.116184998303652"><ele></ele><time>2013-8-9T23:30:9Z</time></trkpt>
<trkpt lat="46.652006981894374" lon="7.116485992446542"><ele></ele><time>2013-8-9T23:30:12Z</time></trkpt>
<trkpt lat="46.652001030743122" lon="7.116500996053219"><ele></ele><time>2013-8-9T23:30:15Z</time></trkpt>
<trkpt lat="46.65186901576817" lon="7.116634016856551"><ele></ele><time>2013-8-9T23:30:18Z</time></trkpt>
<trkpt lat="46.65163398720324" lon="7.116692019626498"><ele></ele><time>2013-8-9T23:30:21Z</time></trkpt>
<trkpt lat="46.651519993320107" lon="7.116798972710967"><ele></ele><time>2013-8-9T23:30:24Z</time></trkpt>
<trkpt lat="46.651508007198572" lon="7.116801990196109"><ele></ele><time>2013-8-9T23:30:27Z</time></trkpt>
<trkpt lat="46.651496021077037" lon="7.116808025166392"><ele></ele><time>2013-8-9T23:30:30Z</time></trkpt>
<trkpt lat="46.651485040783882" lon="7.116814982146025"><ele></ele><time>2013-8-9T23:30:33Z</time></trkpt>
<trkpt lat="46.651472970843315" lon="7.116825040429831"><ele></ele><time>2013-8-9T23:30:36Z</time></trkpt>
<trkpt lat="46.65146098472178" lon="7.116836020722985"><ele></ele><time>2013-8-9T23:30:39Z</time></trkpt>
<trkpt lat="46.651451010257006" lon="7.116849012672901"><ele></ele><time>2013-8-9T23:30:42Z</time></trkpt>
<trkpt lat="46.651441035792232" lon="7.116863010451198"><ele></ele><time>2013-8-9T23:30:45Z</time></trkpt>
<trkpt lat="46.651249006390572" lon="7.116958983242512"><ele></ele><time>2013-8-9T23:30:48Z</time></trkpt>
<trkpt lat="46.651130989193916" lon="7.116968035697937"><ele></ele><time>2013-8-9T23:30:51Z</time></trkpt>
<trkpt lat="46.651119003072381" lon="7.116978010162711"><ele></ele><time>2013-8-9T23:30:54Z</time></trkpt>
<trkpt lat="46.651106011122465" lon="7.116989996284246"><ele></ele><time>2013-8-9T23:30:57Z</time></trkpt>
<trkpt lat="46.651091007515788" lon="7.116995025426149"><ele></ele><time>2013-8-9T23:31:0Z</time></trkpt>
<trkpt lat="46.651078015565872" lon="7.116994019597769"><ele></ele><time>2013-8-9T23:31:3Z</time></trkpt>
<trkpt lat="46.651064017787576" lon="7.116991002112627"><ele></ele><time>2013-8-9T23:31:6Z</time></trkpt>
<trkpt lat="46.650881040841341" lon="7.117115976288915"><ele></ele><time>2013-8-9T23:31:9Z</time></trkpt>
<trkpt lat="46.65075003169477" lon="7.117369025945663"><ele></ele><time>2013-8-9T23:31:12Z</time></trkpt>
<trkpt lat="46.650607036426663" lon="7.117648981511593"><ele></ele><time>2013-8-9T23:31:15Z</time></trkpt>
<trkpt lat="46.650496982038021" lon="7.11787898093462"><ele></ele><time>2013-8-9T23:31:18Z</time></trkpt>
<trkpt lat="46.650490025058389" lon="7.1178990136832"><ele></ele><time>2013-8-9T23:31:21Z</time></trkpt>
<trkpt lat="46.650481978431344" lon="7.117918962612748"><ele></ele><time>2013-8-9T23:31:24Z</time></trkpt>
<trkpt lat="46.650314005091786" lon="7.118247030302882"><ele></ele><time>2013-8-9T23:31:27Z</time></trkpt>
<trkpt lat="46.650109989568591" lon="7.118598986417055"><ele></ele><time>2013-8-9T23:31:30Z</time></trkpt>
<trkpt lat="46.649951990693808" lon="7.118900986388326"><ele></ele><time>2013-8-9T23:31:33Z</time></trkpt>
<trkpt lat="46.649822993203998" lon="7.119118999689817"><ele></ele><time>2013-8-9T23:31:36Z</time></trkpt>
<trkpt lat="46.649853000417352" lon="7.119415970519185"><ele></ele><time>2013-8-9T23:31:39Z</time></trkpt>
<trkpt lat="46.64987001568079" lon="7.119417982175946"><ele></ele><time>2013-8-9T23:31:42Z</time></trkpt>
<trkpt lat="46.649889964610338" lon="7.119416976347566"><ele></ele><time>2013-8-9T23:31:45Z</time></trkpt>
<trkpt lat="46.650075959041715" lon="7.119319997727871"><ele></ele><time>2013-8-9T23:31:48Z</time></trkpt>
<trkpt lat="46.650091968476772" lon="7.119310023263097"><ele></ele><time>2013-8-9T23:31:51Z</time></trkpt>
<trkpt lat="46.650105966255069" lon="7.11929501965642"><ele></ele><time>2013-8-9T23:31:54Z</time></trkpt>
<trkpt lat="46.65023697540164" lon="7.119086980819702"><ele></ele><time>2013-8-9T23:31:57Z</time></trkpt>
<trkpt lat="46.650253990665078" lon="7.119078012183309"><ele></ele><time>2013-8-9T23:32:0Z</time></trkpt>
<trkpt lat="46.650273017585278" lon="7.119070971384645"><ele></ele><time>2013-8-9T23:32:3Z</time></trkpt>
<trkpt lat="46.650292966514826" lon="7.119066026061773"><ele></ele><time>2013-8-9T23:32:6Z</time></trkpt>
<trkpt lat="46.650311993435025" lon="7.119058985263109"><ele></ele><time>2013-8-9T23:32:9Z</time></trkpt>
<trkpt lat="46.650330014526844" lon="7.119054039940238"><ele></ele><time>2013-8-9T23:32:12Z</time></trkpt>
<trkpt lat="46.650489019230008" lon="7.11906099691987"><ele></ele><time>2013-8-9T23:32:15Z</time></trkpt>
<trkpt lat="46.650722036138177" lon="7.118929987773299"><ele></ele><time>2013-8-9T23:32:18Z</time></trkpt>
<trkpt lat="46.650928985327482" lon="7.118902998045087"><ele></ele><time>2013-8-9T23:32:21Z</time></trkpt>
<trkpt lat="46.651155967265368" lon="7.119077006354928"><ele></ele><time>2013-8-9T23:32:24Z</time></trkpt>
<trkpt lat="46.65137498639524" lon="7.119184965267777"><ele></ele><time>2013-8-9T23:32:27Z</time></trkpt>
<trkpt lat="46.651425026357174" lon="7.119186976924539"><ele></ele><time>2013-8-9T23:32:30Z</time></trkpt>
<trkpt lat="46.65143902413547" lon="7.119195023551583"><ele></ele><time>2013-8-9T23:32:33Z</time></trkpt>
<trkpt lat="46.651453021913767" lon="7.119202986359596"><ele></ele><time>2013-8-9T23:32:36Z</time></trkpt>
<trkpt lat="46.651467019692063" lon="7.11920902132988"><ele></ele><time>2013-8-9T23:32:39Z</time></trkpt>
<trkpt lat="46.65148202329874" lon="7.119212038815022"><ele></ele><time>2013-8-9T23:32:42Z</time></trkpt>
<trkpt lat="46.651732977479696" lon="7.119241040199995"><ele></ele><time>2013-8-9T23:32:45Z</time></trkpt>
<trkpt lat="46.651919977739453" lon="7.119183037430048"><ele></ele><time>2013-8-9T23:32:48Z</time></trkpt>
<trkpt lat="46.652094991877675" lon="7.11921002715826"><ele></ele><time>2013-8-9T23:32:51Z</time></trkpt>
<trkpt lat="46.65210597217083" lon="7.119214972481132"><ele></ele><time>2013-8-9T23:32:54Z</time></trkpt>
<trkpt lat="46.652150982990861" lon="7.119238022714853"><ele></ele><time>2013-8-9T23:32:57Z</time></trkpt>
<trkpt lat="46.652162969112396" lon="7.119238022714853"><ele></ele><time>2013-8-9T23:33:0Z</time></trkpt>
<trkpt lat="46.652346029877663" lon="7.119303988292813"><ele></ele><time>2013-8-9T23:33:3Z</time></trkpt>
<trkpt lat="46.652521966025233" lon="7.119385041296482"><ele></ele><time>2013-8-9T23:33:6Z</time></trkpt>
<trkpt lat="46.652635037899017" lon="7.119496017694473"><ele></ele><time>2013-8-9T23:33:9Z</time></trkpt>
<trkpt lat="46.652646018192172" lon="7.119505992159247"><ele></ele><time>2013-8-9T23:33:12Z</time></trkpt>
<trkpt lat="46.652735034003854" lon="7.119592996314168"><ele></ele><time>2013-8-9T23:33:15Z</time></trkpt>
<trkpt lat="46.652745008468628" lon="7.119604982435703"><ele></ele><time>2013-8-9T23:33:18Z</time></trkpt>
<trkpt lat="46.65275196544826" lon="7.119618980214"><ele></ele><time>2013-8-9T23:33:21Z</time></trkpt>
<trkpt lat="46.652759006246924" lon="7.119634989649057"><ele></ele><time>2013-8-9T23:33:24Z</time></trkpt>
<trkpt lat="46.652908036485314" lon="7.119787959381938"><ele></ele><time>2013-8-9T23:33:27Z</time></trkpt>
<trkpt lat="46.652996968477964" lon="7.119853002950549"><ele></ele><time>2013-8-9T23:33:30Z</time></trkpt>
<trkpt lat="46.653210036456585" lon="7.119870018213987"><ele></ele><time>2013-8-9T23:33:33Z</time></trkpt>
<trkpt lat="46.653345990926027" lon="7.119808997958899"><ele></ele><time>2013-8-9T23:33:36Z</time></trkpt>
<trkpt lat="46.653404999524355" lon="7.119813021272421"><ele></ele><time>2013-8-9T23:33:39Z</time></trkpt>
<trkpt lat="46.653434000909328" lon="7.119829030707479"><ele></ele><time>2013-8-9T23:33:42Z</time></trkpt>
<trkpt lat="46.653519999235868" lon="7.1198970079422"><ele></ele><time>2013-8-9T23:33:45Z</time></trkpt>
<trkpt lat="46.653546988964081" lon="7.119932966306806"><ele></ele><time>2013-8-9T23:33:48Z</time></trkpt>
<trkpt lat="46.653568027541041" lon="7.11996397934854"><ele></ele><time>2013-8-9T23:33:51Z</time></trkpt>
<trkpt lat="46.65380397811532" lon="7.120407968759537"><ele></ele><time>2013-8-9T23:33:54Z</time></trkpt>
<trkpt lat="46.653924006968737" lon="7.120592035353184"><ele></ele><time>2013-8-9T23:33:57Z</time></trkpt>
<trkpt lat="46.65393297560513" lon="7.1206050273031"><ele></ele><time>2013-8-9T23:34:0Z</time></trkpt>
<trkpt lat="46.654073959216475" lon="7.120785992592573"><ele></ele><time>2013-8-9T23:34:3Z</time></trkpt>
<trkpt lat="46.654084017500281" lon="7.120809964835644"><ele></ele><time>2013-8-9T23:34:6Z</time></trkpt>
<trkpt lat="46.654142020270228" lon="7.121203998103738"><ele></ele><time>2013-8-9T23:34:9Z</time></trkpt>
<trkpt lat="46.65414503775537" lon="7.121309023350477"><ele></ele><time>2013-8-9T23:34:12Z</time></trkpt>
<trkpt lat="46.654145959764719" lon="7.121331989765167"><ele></ele><time>2013-8-9T23:34:15Z</time></trkpt>
<trkpt lat="46.65414503775537" lon="7.121353028342128"><ele></ele><time>2013-8-9T23:34:18Z</time></trkpt>
<trkpt lat="46.6541469655931" lon="7.121374988928437"><ele></ele><time>2013-8-9T23:34:21Z</time></trkpt>
<trkpt lat="46.65414797142148" lon="7.121397033333778"><ele></ele><time>2013-8-9T23:34:24Z</time></trkpt>
<trkpt lat="46.65421100333333" lon="7.121652010828257"><ele></ele><time>2013-8-9T23:34:27Z</time></trkpt>
<trkpt lat="46.654222989454865" lon="7.121671959757805"><ele></ele><time>2013-8-9T23:34:30Z</time></trkpt>
<trkpt lat="46.654231958091259" lon="7.121695009991527"><ele></ele><time>2013-8-9T23:34:33Z</time></trkpt>
<trkpt lat="46.654243022203445" lon="7.121716970577836"><ele></ele><time>2013-8-9T23:34:36Z</time></trkpt>
<trkpt lat="46.65425299666822" lon="7.1217430382967"><ele></ele><time>2013-8-9T23:34:39Z</time></trkpt>
<trkpt lat="46.654260959476233" lon="7.121764998883009"><ele></ele><time>2013-8-9T23:34:42Z</time></trkpt>
<trkpt lat="46.654269006103277" lon="7.121783019974828"><ele></ele><time>2013-8-9T23:34:45Z</time></trkpt>
<trkpt lat="46.65427403524518" lon="7.121802968904376"><ele></ele><time>2013-8-9T23:34:48Z</time></trkpt>
<trkpt lat="46.654281998053193" lon="7.121820989996195"><ele></ele><time>2013-8-9T23:34:51Z</time></trkpt>
<trkpt lat="46.654289960861206" lon="7.121841022744775"><ele></ele><time>2013-8-9T23:34:54Z</time></trkpt>
<trkpt lat="46.654292978346348" lon="7.121861977502704"><ele></ele><time>2013-8-9T23:34:57Z</time></trkpt>
<trkpt lat="46.654306976124644" lon="7.121944036334753"><ele></ele><time>2013-8-9T23:35:0Z</time></trkpt>
<trkpt lat="46.654312005266547" lon="7.121959961950779"><ele></ele><time>2013-8-9T23:35:3Z</time></trkpt>
<trkpt lat="46.654315022751689" lon="7.121978988870978"><ele></ele><time>2013-8-9T23:35:6Z</time></trkpt>
<trkpt lat="46.65431896224618" lon="7.122000027447939"><ele></ele><time>2013-8-9T23:35:9Z</time></trkpt>
<trkpt lat="46.654320973902941" lon="7.12202399969101"><ele></ele><time>2013-8-9T23:35:12Z</time></trkpt>
<trkpt lat="46.654323991388083" lon="7.12204403243959"><ele></ele><time>2013-8-9T23:35:15Z</time></trkpt>
<trkpt lat="46.654322985559702" lon="7.122061969712377"><ele></ele><time>2013-8-9T23:35:18Z</time></trkpt>
<trkpt lat="46.654321979731321" lon="7.122079990804195"><ele></ele><time>2013-8-9T23:35:21Z</time></trkpt>
<trkpt lat="46.654321979731321" lon="7.122098011896014"><ele></ele><time>2013-8-9T23:35:24Z</time></trkpt>
<trkpt lat="46.65431996807456" lon="7.122116032987833"><ele></ele><time>2013-8-9T23:35:27Z</time></trkpt>
<trkpt lat="46.65431703440845" lon="7.122135981917381"><ele></ele><time>2013-8-9T23:35:30Z</time></trkpt>
<trkpt lat="46.654315022751689" lon="7.122156014665961"><ele></ele><time>2013-8-9T23:35:33Z</time></trkpt>
<trkpt lat="46.65431703440845" lon="7.122179986909032"><ele></ele><time>2013-8-9T23:35:36Z</time></trkpt>
<trkpt lat="46.654321979731321" lon="7.122207982465625"><ele></ele><time>2013-8-9T23:35:39Z</time></trkpt>
<trkpt lat="46.654328014701605" lon="7.122232038527727"><ele></ele><time>2013-8-9T23:35:42Z</time></trkpt>
<trkpt lat="46.654358021914959" lon="7.122320970520377"><ele></ele><time>2013-8-9T23:35:45Z</time></trkpt>
<trkpt lat="46.654367996379733" lon="7.122337985783815"><ele></ele><time>2013-8-9T23:35:48Z</time></trkpt>
<trkpt lat="46.654377970844507" lon="7.122358018532395"><ele></ele><time>2013-8-9T23:35:51Z</time></trkpt>
<trkpt lat="46.654389034956694" lon="7.122380984947085"><ele></ele><time>2013-8-9T23:35:54Z</time></trkpt>
<trkpt lat="46.654431028291583" lon="7.122433036565781"><ele></ele><time>2013-8-9T23:35:57Z</time></trkpt>
<trkpt lat="46.654442008584738" lon="7.122438987717032"><ele></ele><time>2013-8-9T23:36:0Z</time></trkpt>
<trkpt lat="46.654594978317618" lon="7.122544012963772"><ele></ele><time>2013-8-9T23:36:3Z</time></trkpt>
<trkpt lat="46.65476999245584" lon="7.122722966596484"><ele></ele><time>2013-8-9T23:36:6Z</time></trkpt>
<trkpt lat="46.654890021309257" lon="7.12290502153337"><ele></ele><time>2013-8-9T23:36:9Z</time></trkpt>
<trkpt lat="46.655057994648814" lon="7.123123034834862"><ele></ele><time>2013-8-9T23:36:12Z</time></trkpt>
<trkpt lat="46.655244994908571" lon="7.123360997065902"><ele></ele><time>2013-8-9T23:36:15Z</time></trkpt>
<trkpt lat="46.655302997678518" lon="7.123426040634513"><ele></ele><time>2013-8-9T23:36:18Z</time></trkpt>
<trkpt lat="46.655320012941957" lon="7.123426962643862"><ele></ele><time>2013-8-9T23:36:21Z</time></trkpt>
<trkpt lat="46.655540959909558" lon="7.123327972367406"><ele></ele><time>2013-8-9T23:36:24Z</time></trkpt>
<trkpt lat="46.655571972951293" lon="7.123307017609477"><ele></ele><time>2013-8-9T23:36:27Z</time></trkpt>
<trkpt lat="46.655809013172984" lon="7.123325038701296"><ele></ele><time>2013-8-9T23:36:30Z</time></trkpt>
<trkpt lat="46.655840026214719" lon="7.123364014551044"><ele></ele><time>2013-8-9T23:36:33Z</time></trkpt>
<trkpt lat="46.656046975404024" lon="7.123652016744018"><ele></ele><time>2013-8-9T23:36:36Z</time></trkpt>
<trkpt lat="46.656134985387325" lon="7.123839017003775"><ele></ele><time>2013-8-9T23:36:39Z</time></trkpt>
<trkpt lat="46.656246967613697" lon="7.12413196451962"><ele></ele><time>2013-8-9T23:36:42Z</time></trkpt>
<trkpt lat="46.656411001458764" lon="7.124289963394403"><ele></ele><time>2013-8-9T23:36:45Z</time></trkpt>
<trkpt lat="46.656599007546902" lon="7.124289041385055"><ele></ele><time>2013-8-9T23:36:48Z</time></trkpt>
<trkpt lat="46.6566819883883" lon="7.124265991151333"><ele></ele><time>2013-8-9T23:36:51Z</time></trkpt>
<trkpt lat="46.656944006681442" lon="7.124271020293236"><ele></ele><time>2013-8-9T23:36:54Z</time></trkpt>
<trkpt lat="46.657152967527509" lon="7.124348971992731"><ele></ele><time>2013-8-9T23:36:57Z</time></trkpt>
<trkpt lat="46.657300991937518" lon="7.124447040259838"><ele></ele><time>2013-8-9T23:37:0Z</time></trkpt>
<trkpt lat="46.657495032995939" lon="7.124376967549324"><ele></ele><time>2013-8-9T23:37:3Z</time></trkpt>
<trkpt lat="46.65777800604701" lon="7.124314019456506"><ele></ele><time>2013-8-9T23:37:6Z</time></trkpt>
<trkpt lat="46.657958971336484" lon="7.124481992796063"><ele></ele><time>2013-8-9T23:37:9Z</time></trkpt>
<trkpt lat="46.658042035996914" lon="7.12466798722744"><ele></ele><time>2013-8-9T23:37:12Z</time></trkpt>
<trkpt lat="46.657916978001595" lon="7.124846018850803"><ele></ele><time>2013-8-9T23:37:15Z</time></trkpt>
<trkpt lat="46.657825028523803" lon="7.124867979437113"><ele></ele><time>2013-8-9T23:37:18Z</time></trkpt>
<trkpt lat="46.657545994967222" lon="7.125017009675503"><ele></ele><time>2013-8-9T23:37:21Z</time></trkpt>
<trkpt lat="46.657373998314142" lon="7.125393021851778"><ele></ele><time>2013-8-9T23:37:24Z</time></trkpt>
<trkpt lat="46.657157996669412" lon="7.125731986016035"><ele></ele><time>2013-8-9T23:37:27Z</time></trkpt>
<trkpt lat="46.656869994476438" lon="7.125831982120872"><ele></ele><time>2013-8-9T23:37:30Z</time></trkpt>
<trkpt lat="46.656617028638721" lon="7.12580700404942"><ele></ele><time>2013-8-9T23:37:33Z</time></trkpt>
<trkpt lat="46.656369008123875" lon="7.125767022371292"><ele></ele><time>2013-8-9T23:37:36Z</time></trkpt>
<trkpt lat="46.656230036169291" lon="7.125746989622712"><ele></ele><time>2013-8-9T23:37:39Z</time></trkpt>
<trkpt lat="46.656078994274139" lon="7.125725029036403"><ele></ele><time>2013-8-9T23:37:42Z</time></trkpt>
<trkpt lat="46.656001964583993" lon="7.125765010714531"><ele></ele><time>2013-8-9T23:37:45Z</time></trkpt>
<trkpt lat="46.655772970989347" lon="7.125880010426044"><ele></ele><time>2013-8-9T23:37:48Z</time></trkpt>
<trkpt lat="46.655553029850125" lon="7.125953016802669"><ele></ele><time>2013-8-9T23:37:51Z</time></trkpt>
<trkpt lat="46.655370974913239" lon="7.126006996259093"><ele></ele><time>2013-8-9T23:37:54Z</time></trkpt>
<trkpt lat="46.655218005180359" lon="7.12600196711719"><ele></ele><time>2013-8-9T23:37:57Z</time></trkpt>
<trkpt lat="46.655000997707248" lon="7.126114033162594"><ele></ele><time>2013-8-9T23:38:0Z</time></trkpt>
<trkpt lat="46.654895972460508" lon="7.126462971791625"><ele></ele><time>2013-8-9T23:38:3Z</time></trkpt>
<trkpt lat="46.654910976067185" lon="7.12655701674521"><ele></ele><time>2013-8-9T23:38:6Z</time></trkpt>
<trkpt lat="46.655099987983704" lon="7.126690037548542"><ele></ele><time>2013-8-9T23:38:9Z</time></trkpt>
<trkpt lat="46.655155979096889" lon="7.126661036163568"><ele></ele><time>2013-8-9T23:38:12Z</time></trkpt>
<trkpt lat="46.655276007950306" lon="7.12662298232317"><ele></ele><time>2013-8-9T23:38:15Z</time></trkpt>
<trkpt lat="46.655365023761988" lon="7.126681990921497"><ele></ele><time>2013-8-9T23:38:18Z</time></trkpt>
<trkpt lat="46.655408022925258" lon="7.126791961491108"><ele></ele><time>2013-8-9T23:38:21Z</time></trkpt>
<trkpt lat="46.655416991561651" lon="7.126889023929834"><ele></ele><time>2013-8-9T23:38:24Z</time></trkpt>
<trkpt lat="46.655465019866824" lon="7.12705297395587"><ele></ele><time>2013-8-9T23:38:27Z</time></trkpt>
<trkpt lat="46.655530985444784" lon="7.127366038039327"><ele></ele><time>2013-8-9T23:38:30Z</time></trkpt>
<trkpt lat="46.655539032071829" lon="7.127405013889074"><ele></ele><time>2013-8-9T23:38:33Z</time></trkpt>
<trkpt lat="46.655561998486519" lon="7.1275470033288"><ele></ele><time>2013-8-9T23:38:36Z</time></trkpt>
<trkpt lat="46.655612960457802" lon="7.127748001366854"><ele></ele><time>2013-8-9T23:38:39Z</time></trkpt>
<trkpt lat="46.655655959621072" lon="7.12786803022027"><ele></ele><time>2013-8-9T23:38:42Z</time></trkpt>
<trkpt lat="46.655679009854794" lon="7.127970959991217"><ele></ele><time>2013-8-9T23:38:45Z</time></trkpt>
<trkpt lat="46.65571304038167" lon="7.128054024651647"><ele></ele><time>2013-8-9T23:38:48Z</time></trkpt>
<trkpt lat="46.655780011788011" lon="7.128349989652634"><ele></ele><time>2013-8-9T23:38:51Z</time></trkpt>
<trkpt lat="46.655787974596024" lon="7.128368010744452"><ele></ele><time>2013-8-9T23:38:54Z</time></trkpt>
<trkpt lat="46.655810019001365" lon="7.12844897992909"><ele></ele><time>2013-8-9T23:38:57Z</time></trkpt>
<trkpt lat="46.655811024829745" lon="7.128488961607218"><ele></ele><time>2013-8-9T23:39:0Z</time></trkpt>
<trkpt lat="46.655834997072816" lon="7.128588035702705"><ele></ele><time>2013-8-9T23:39:3Z</time></trkpt>
<trkpt lat="46.655857963487506" lon="7.128736982122064"><ele></ele><time>2013-8-9T23:39:6Z</time></trkpt>
<trkpt lat="46.65588503703475" lon="7.128773024305701"><ele></ele><time>2013-8-9T23:39:9Z</time></trkpt>
<trkpt lat="46.655885959044099" lon="7.1288369782269"><ele></ele><time>2013-8-9T23:39:12Z</time></trkpt>
<trkpt lat="46.655997019261122" lon="7.129267975687981"><ele></ele><time>2013-8-9T23:39:15Z</time></trkpt>
<trkpt lat="46.655852012336254" lon="7.129460005089641"><ele></ele><time>2013-8-9T23:39:18Z</time></trkpt>
<trkpt lat="46.655827034264803" lon="7.129466040059924"><ele></ele><time>2013-8-9T23:39:21Z</time></trkpt>
<trkpt lat="46.655742963775992" lon="7.129535023123026"><ele></ele><time>2013-8-9T23:39:24Z</time></trkpt>
<trkpt lat="46.655491003766656" lon="7.12947903200984"><ele></ele><time>2013-8-9T23:39:27Z</time></trkpt>
<trkpt lat="46.655410034582019" lon="7.129464028403163"><ele></ele><time>2013-8-9T23:39:30Z</time></trkpt>
<trkpt lat="46.655304003506899" lon="7.129471991211176"><ele></ele><time>2013-8-9T23:39:33Z</time></trkpt>
<trkpt lat="46.655054977163672" lon="7.129380963742733"><ele></ele><time>2013-8-9T23:39:36Z</time></trkpt>
<trkpt lat="46.654791031032801" lon="7.129281973466277"><ele></ele><time>2013-8-9T23:39:39Z</time></trkpt>
<trkpt lat="46.654643006622791" lon="7.129202010110021"><ele></ele><time>2013-8-9T23:39:42Z</time></trkpt>
<trkpt lat="46.65457796305418" lon="7.129140989854932"><ele></ele><time>2013-8-9T23:39:45Z</time></trkpt>
<trkpt lat="46.654525995254517" lon="7.129111988469958"><ele></ele><time>2013-8-9T23:39:48Z</time></trkpt>
<trkpt lat="46.654433961957693" lon="7.1290079690516"><ele></ele><time>2013-8-9T23:39:51Z</time></trkpt>
<trkpt lat="46.654375037178397" lon="7.129010986536741"><ele></ele><time>2013-8-9T23:39:54Z</time></trkpt>
<trkpt lat="46.654208991676569" lon="7.12887997739017"><ele></ele><time>2013-8-9T23:39:57Z</time></trkpt>
<trkpt lat="46.65416800417006" lon="7.128866985440254"><ele></ele><time>2013-8-9T23:40:0Z</time></trkpt>
<trkpt lat="46.654143026098609" lon="7.128852987661958"><ele></ele><time>2013-8-9T23:40:3Z</time></trkpt>
<trkpt lat="46.653992990031838" lon="7.128778975456953"><ele></ele><time>2013-8-9T23:40:6Z</time></trkpt>
<trkpt lat="46.65380003862083" lon="7.128689959645271"><ele></ele><time>2013-8-9T23:40:9Z</time></trkpt>
<trkpt lat="46.653627958148718" lon="7.128705969080329"><ele></ele><time>2013-8-9T23:40:12Z</time></trkpt>
<trkpt lat="46.653498960658908" lon="7.128629023209214"><ele></ele><time>2013-8-9T23:40:15Z</time></trkpt>
<trkpt lat="46.653474988415837" lon="7.128550987690687"><ele></ele><time>2013-8-9T23:40:18Z</time></trkpt>
<trkpt lat="46.653368035331368" lon="7.128391982987523"><ele></ele><time>2013-8-9T23:40:21Z</time></trkpt>
<trkpt lat="46.653220010921359" lon="7.128372034057975"><ele></ele><time>2013-8-9T23:40:24Z</time></trkpt>
<trkpt lat="46.653124960139394" lon="7.128373039886355"><ele></ele><time>2013-8-9T23:40:27Z</time></trkpt>
<trkpt lat="46.653018007054925" lon="7.128544030711055"><ele></ele><time>2013-8-9T23:40:30Z</time></trkpt>
<trkpt lat="46.652949023991823" lon="7.128866985440254"><ele></ele><time>2013-8-9T23:40:33Z</time></trkpt>
<trkpt lat="46.652936032041907" lon="7.129009980708361"><ele></ele><time>2013-8-9T23:40:36Z</time></trkpt>
<trkpt lat="46.652896972373128" lon="7.129149036481977"><ele></ele><time>2013-8-9T23:40:39Z</time></trkpt>
<trkpt lat="46.652808040380478" lon="7.129226988181472"><ele></ele><time>2013-8-9T23:40:42Z</time></trkpt>
<trkpt lat="46.652753977105021" lon="7.129220031201839"><ele></ele><time>2013-8-9T23:40:45Z</time></trkpt>
<trkpt lat="46.652575023472309" lon="7.129210978746414"><ele></ele><time>2013-8-9T23:40:48Z</time></trkpt>
<trkpt lat="46.652438985183835" lon="7.129318015649915"><ele></ele><time>2013-8-9T23:40:51Z</time></trkpt>
<trkpt lat="46.652413001284003" lon="7.129339976236224"><ele></ele><time>2013-8-9T23:40:54Z</time></trkpt>
<trkpt lat="46.652413001284003" lon="7.129339976236224"><ele></ele><time>2013-8-9T23:40:57Z</time></trkpt>
<trkpt lat="46.652413001284003" lon="7.129339976236224"><ele></ele><time>2013-8-9T23:41:0Z</time></trkpt>
<trkpt lat="46.652413001284003" lon="7.129339976236224"><ele></ele><time>2013-8-9T23:41:3Z</time></trkpt>
<trkpt lat="46.652413001284003" lon="7.129339976236224"><ele></ele><time>2013-8-9T23:41:6Z</time></trkpt>
<trkpt lat="46.652413001284003" lon="7.129339976236224"><ele></ele><time>2013-8-9T23:41:9Z</time></trkpt>
<trkpt lat="46.652189958840609" lon="7.129553966224194"><ele></ele><time>2013-8-9T23:41:12Z</time></trkpt>
<trkpt lat="46.652004970237613" lon="7.129715988412499"><ele></ele><time>2013-8-9T23:41:15Z</time></trkpt>
<trkpt lat="46.651935987174511" lon="7.129767034202814"><ele></ele><time>2013-8-9T23:41:18Z</time></trkpt>
<trkpt lat="46.651864992454648" lon="7.129808021709323"><ele></ele><time>2013-8-9T23:41:21Z</time></trkpt>
<trkpt lat="46.651563998311758" lon="7.129969960078597"><ele></ele><time>2013-8-9T23:41:24Z</time></trkpt>
<trkpt lat="46.651505995541811" lon="7.129972977563739"><ele></ele><time>2013-8-9T23:41:27Z</time></trkpt>
<trkpt lat="46.651446986943483" lon="7.129958979785442"><ele></ele><time>2013-8-9T23:41:30Z</time></trkpt>
<trkpt lat="46.651385966688395" lon="7.129928972572088"><ele></ele><time>2013-8-9T23:41:33Z</time></trkpt>
<trkpt lat="46.651327041909099" lon="7.129883039742708"><ele></ele><time>2013-8-9T23:41:36Z</time></trkpt>
<trkpt lat="46.651269039139152" lon="7.129823025316"><ele></ele><time>2013-8-9T23:41:39Z</time></trkpt>
<trkpt lat="46.650996962562203" lon="7.129506021738052"><ele></ele><time>2013-8-9T23:41:42Z</time></trkpt>
<trkpt lat="46.650915993377566" lon="7.129426980391145"><ele></ele><time>2013-8-9T23:41:45Z</time></trkpt>
<trkpt lat="46.650827983394265" lon="7.129360008984804"><ele></ele><time>2013-8-9T23:41:48Z</time></trkpt>
<trkpt lat="46.650736033916473" lon="7.129294965416193"><ele></ele><time>2013-8-9T23:41:51Z</time></trkpt>
<trkpt lat="46.650478960946202" lon="7.129084998741746"><ele></ele><time>2013-8-9T23:41:54Z</time></trkpt>
<trkpt lat="46.650406960397959" lon="7.128995982930064"><ele></ele><time>2013-8-9T23:41:57Z</time></trkpt>
<trkpt lat="46.650285003706813" lon="7.128818035125732"><ele></ele><time>2013-8-9T23:42:0Z</time></trkpt>
<trkpt lat="46.650123987346888" lon="7.128572026267648"><ele></ele><time>2013-8-9T23:42:3Z</time></trkpt>
<trkpt lat="46.650005970150232" lon="7.128377985209227"><ele></ele><time>2013-8-9T23:42:6Z</time></trkpt>
<trkpt lat="46.649853000417352" lon="7.128122001886368"><ele></ele><time>2013-8-9T23:42:9Z</time></trkpt>
<trkpt lat="46.649615960195661" lon="7.127766022458673"><ele></ele><time>2013-8-9T23:42:12Z</time></trkpt>
<trkpt lat="46.649406999349594" lon="7.127447007223964"><ele></ele><time>2013-8-9T23:42:15Z</time></trkpt>
<trkpt lat="46.649371040984988" lon="7.127124974504113"><ele></ele><time>2013-8-9T23:42:18Z</time></trkpt>
<trkpt lat="46.649309014901519" lon="7.126743011176586"><ele></ele><time>2013-8-9T23:42:21Z</time></trkpt>
<trkpt lat="46.64905596524477" lon="7.12651401758194"><ele></ele><time>2013-8-9T23:42:24Z</time></trkpt>
<trkpt lat="46.649017995223403" lon="7.126431036740541"><ele></ele><time>2013-8-9T23:42:27Z</time></trkpt>
<trkpt lat="46.648999974131584" lon="7.126368004828691"><ele></ele><time>2013-8-9T23:42:30Z</time></trkpt>
<trkpt lat="46.64896996691823" lon="7.126291980966926"><ele></ele><time>2013-8-9T23:42:33Z</time></trkpt>
<trkpt lat="46.648916993290186" lon="7.126212017610669"><ele></ele><time>2013-8-9T23:42:36Z</time></trkpt>
<trkpt lat="46.648829989135265" lon="7.126129036769271"><ele></ele><time>2013-8-9T23:42:39Z</time></trkpt>
<trkpt lat="46.648735022172332" lon="7.126061981543899"><ele></ele><time>2013-8-9T23:42:42Z</time></trkpt>
<trkpt lat="46.648417012766004" lon="7.125873975455761"><ele></ele><time>2013-8-9T23:42:45Z</time></trkpt>
<trkpt lat="46.648196987807751" lon="7.125765010714531"><ele></ele><time>2013-8-9T23:42:48Z</time></trkpt>
<trkpt lat="46.647891970351338" lon="7.12561103515327"><ele></ele><time>2013-8-9T23:42:51Z</time></trkpt>
<trkpt lat="46.647801026701927" lon="7.125543979927897"><ele></ele><time>2013-8-9T23:42:54Z</time></trkpt>
<trkpt lat="46.647582007572055" lon="7.125335019081831"><ele></ele><time>2013-8-9T23:42:57Z</time></trkpt>
<trkpt lat="46.64752702228725" lon="7.125230999663472"><ele></ele><time>2013-8-9T23:43:0Z</time></trkpt>
<trkpt lat="46.647438006475568" lon="7.125001000240445"><ele></ele><time>2013-8-9T23:43:3Z</time></trkpt>
<trkpt lat="46.647341027855873" lon="7.124826991930604"><ele></ele><time>2013-8-9T23:43:6Z</time></trkpt>
<trkpt lat="46.647287970408797" lon="7.12477502413094"><ele></ele><time>2013-8-9T23:43:9Z</time></trkpt>
<trkpt lat="46.647230973467231" lon="7.124759014695883"><ele></ele><time>2013-8-9T23:43:12Z</time></trkpt>
<trkpt lat="46.647168025374413" lon="7.124778963625431"><ele></ele><time>2013-8-9T23:43:15Z</time></trkpt>
<trkpt lat="46.647109016776085" lon="7.124823974445462"><ele></ele><time>2013-8-9T23:43:18Z</time></trkpt>
<trkpt lat="46.647058976814151" lon="7.12488398887217"><ele></ele><time>2013-8-9T23:43:21Z</time></trkpt>
<trkpt lat="46.647020000964403" lon="7.124962024390697"><ele></ele><time>2013-8-9T23:43:24Z</time></trkpt>
<trkpt lat="46.646988987922668" lon="7.125050034373999"><ele></ele><time>2013-8-9T23:43:27Z</time></trkpt>
<trkpt lat="46.64688496850431" lon="7.12531004101038"><ele></ele><time>2013-8-9T23:43:30Z</time></trkpt>
<trkpt lat="46.646836018189788" lon="7.125372989103198"><ele></ele><time>2013-8-9T23:43:33Z</time></trkpt>
<trkpt lat="46.646780027076602" lon="7.12541900575161"><ele></ele><time>2013-8-9T23:43:36Z</time></trkpt>
<trkpt lat="46.646723030135036" lon="7.125450018793344"><ele></ele><time>2013-8-9T23:43:39Z</time></trkpt>
<trkpt lat="46.646675001829863" lon="7.12546301074326"><ele></ele><time>2013-8-9T23:43:42Z</time></trkpt>
<trkpt lat="46.646636025980115" lon="7.125471979379654"><ele></ele><time>2013-8-9T23:43:45Z</time></trkpt>
<trkpt lat="46.64660501293838" lon="7.12548497132957"><ele></ele><time>2013-8-9T23:43:48Z</time></trkpt>
<trkpt lat="46.64647500962019" lon="7.125536017119884"><ele></ele><time>2013-8-9T23:43:51Z</time></trkpt>
<trkpt lat="46.64645598269999" lon="7.125556971877813"><ele></ele><time>2013-8-9T23:43:54Z</time></trkpt>
<trkpt lat="46.646437961608171" lon="7.125578010454774"><ele></ele><time>2013-8-9T23:43:57Z</time></trkpt>
<trkpt lat="46.646418012678623" lon="7.125597037374973"><ele></ele><time>2013-8-9T23:44:0Z</time></trkpt>
<trkpt lat="46.646394040435553" lon="7.125616986304522"><ele></ele><time>2013-8-9T23:44:3Z</time></trkpt>
<trkpt lat="46.646374007686973" lon="7.125642970204353"><ele></ele><time>2013-8-9T23:44:6Z</time></trkpt>
<trkpt lat="46.646280968561769" lon="7.125983024016023"><ele></ele><time>2013-8-9T23:44:9Z</time></trkpt>
<trkpt lat="46.646167980507016" lon="7.126627005636692"><ele></ele><time>2013-8-9T23:44:12Z</time></trkpt>
<trkpt lat="46.64598198607564" lon="7.127024978399277"><ele></ele><time>2013-8-9T23:44:15Z</time></trkpt>
<trkpt lat="46.645757015794516" lon="7.127491012215614"><ele></ele><time>2013-8-9T23:44:18Z</time></trkpt>
<trkpt lat="46.645445041358471" lon="7.127789994701743"><ele></ele><time>2013-8-9T23:44:21Z</time></trkpt>
<trkpt lat="46.645075986161828" lon="7.127964003011584"><ele></ele><time>2013-8-9T23:44:24Z</time></trkpt>
<trkpt lat="46.645017983391881" lon="7.128280000761151"><ele></ele><time>2013-8-9T23:44:27Z</time></trkpt>
<trkpt lat="46.64501597173512" lon="7.128302967175841"><ele></ele><time>2013-8-9T23:44:30Z</time></trkpt>
<trkpt lat="46.645005997270346" lon="7.128321994096041"><ele></ele><time>2013-8-9T23:44:33Z</time></trkpt>
<trkpt lat="46.645000968128443" lon="7.128344038501382"><ele></ele><time>2013-8-9T23:44:36Z</time></trkpt>
<trkpt lat="46.644995016977191" lon="7.128370022401214"><ele></ele><time>2013-8-9T23:44:39Z</time></trkpt>
<trkpt lat="46.644755965098739" lon="7.128632040694356"><ele></ele><time>2013-8-9T23:44:42Z</time></trkpt>
<trkpt lat="46.644734004512429" lon="7.128736982122064"><ele></ele><time>2013-8-9T23:44:45Z</time></trkpt>
<trkpt lat="46.644728975370526" lon="7.129292031750083"><ele></ele><time>2013-8-9T23:44:48Z</time></trkpt>
<trkpt lat="46.64473601616919" lon="7.129843980073929"><ele></ele><time>2013-8-9T23:44:51Z</time></trkpt>
<trkpt lat="46.644764011725783" lon="7.130304984748363"><ele></ele><time>2013-8-9T23:44:54Z</time></trkpt>
<trkpt lat="46.644641971215606" lon="7.130531966686249"><ele></ele><time>2013-8-9T23:44:57Z</time></trkpt>
<trkpt lat="46.644614981487393" lon="7.130536995828152"><ele></ele><time>2013-8-9T23:45:0Z</time></trkpt>
<trkpt lat="46.644614981487393" lon="7.130536995828152"><ele></ele><time>2013-8-9T23:45:3Z</time></trkpt>
<trkpt lat="46.644614981487393" lon="7.130536995828152"><ele></ele><time>2013-8-9T23:45:6Z</time></trkpt>
<trkpt lat="46.644630990922451" lon="7.130509000271559"><ele></ele><time>2013-8-9T23:45:9Z</time></trkpt>
<trkpt lat="46.644760994240642" lon="7.130413027480245"><ele></ele><time>2013-8-9T23:45:12Z</time></trkpt>
<trkpt lat="46.644795024767518" lon="7.130332980304956"><ele></ele><time>2013-8-9T23:45:15Z</time></trkpt>
<trkpt lat="46.64477800950408" lon="7.130283024162054"><ele></ele><time>2013-8-9T23:45:18Z</time></trkpt>
<trkpt lat="46.64477800950408" lon="7.130283024162054"><ele></ele><time>2013-8-9T23:45:21Z</time></trkpt>
<trkpt lat="46.644780021160841" lon="7.130281012505293"><ele></ele><time>2013-8-9T23:45:24Z</time></trkpt>
<trkpt lat="46.644780021160841" lon="7.130281012505293"><ele></ele><time>2013-8-9T23:45:27Z</time></trkpt>
<trkpt lat="46.644780021160841" lon="7.130281012505293"><ele></ele><time>2013-8-9T23:45:30Z</time></trkpt>
<trkpt lat="46.644780021160841" lon="7.130281012505293"><ele></ele><time>2013-8-9T23:45:33Z</time></trkpt>
<trkpt lat="46.644777003675699" lon="7.130276989191771"><ele></ele><time>2013-8-9T23:45:36Z</time></trkpt>
<trkpt lat="46.644774992018938" lon="7.130107004195452"><ele></ele><time>2013-8-9T23:45:39Z</time></trkpt>
<trkpt lat="46.644766023382545" lon="7.129985969513655"><ele></ele><time>2013-8-9T23:45:42Z</time></trkpt>
<trkpt lat="46.644772980362177" lon="7.129917992278934"><ele></ele><time>2013-8-9T23:45:45Z</time></trkpt>
<trkpt lat="46.644769040867686" lon="7.129826964810491"><ele></ele><time>2013-8-9T23:45:48Z</time></trkpt>
<trkpt lat="46.644769962877035" lon="7.129812967032194"><ele></ele><time>2013-8-9T23:45:51Z</time></trkpt>
<trkpt lat="46.644774992018938" lon="7.129781031981111"><ele></ele><time>2013-8-9T23:45:54Z</time></trkpt>
<trkpt lat="46.644767029210925" lon="7.129743983969092"><ele></ele><time>2013-8-9T23:45:57Z</time></trkpt>
<trkpt lat="46.644765017554164" lon="7.129669971764088"><ele></ele><time>2013-8-9T23:46:0Z</time></trkpt>
<trkpt lat="46.644770968705416" lon="7.129245009273291"><ele></ele><time>2013-8-9T23:46:3Z</time></trkpt>
<trkpt lat="46.644795024767518" lon="7.128966981545091"><ele></ele><time>2013-8-9T23:46:6Z</time></trkpt>
<trkpt lat="46.644850010052323" lon="7.128859022632241"><ele></ele><time>2013-8-9T23:46:9Z</time></trkpt>
<trkpt lat="46.644766023382545" lon="7.129107965156436"><ele></ele><time>2013-8-9T23:46:12Z</time></trkpt>
<trkpt lat="46.644751019775867" lon="7.129188012331724"><ele></ele><time>2013-8-9T23:46:15Z</time></trkpt>
<trkpt lat="46.644759988412261" lon="7.129468973726034"><ele></ele><time>2013-8-9T23:46:18Z</time></trkpt>
<trkpt lat="46.644769962877035" lon="7.129532005637884"><ele></ele><time>2013-8-9T23:46:21Z</time></trkpt>
<trkpt lat="46.644770968705416" lon="7.129555977880955"><ele></ele><time>2013-8-9T23:46:24Z</time></trkpt>
<trkpt lat="46.644765017554164" lon="7.12965102866292"><ele></ele><time>2013-8-9T23:46:27Z</time></trkpt>
<trkpt lat="46.644768035039306" lon="7.129814978688955"><ele></ele><time>2013-8-9T23:46:30Z</time></trkpt>
<trkpt lat="46.644826037809253" lon="7.130174981430173"><ele></ele><time>2013-8-9T23:46:33Z</time></trkpt>
<trkpt lat="46.644799970090389" lon="7.130357036367059"><ele></ele><time>2013-8-9T23:46:36Z</time></trkpt>
<trkpt lat="46.644792007282376" lon="7.130376985296607"><ele></ele><time>2013-8-9T23:46:39Z</time></trkpt>
<trkpt lat="46.644602995365858" lon="7.130551999434829"><ele></ele><time>2013-8-9T23:46:42Z</time></trkpt>
<trkpt lat="46.644492018967867" lon="7.130591981112957"><ele></ele><time>2013-8-9T23:46:45Z</time></trkpt>
<trkpt lat="46.644418006762862" lon="7.130617965012789"><ele></ele><time>2013-8-9T23:46:48Z</time></trkpt>
<trkpt lat="46.64434801787138" lon="7.130628023296595"><ele></ele><time>2013-8-9T23:46:51Z</time></trkpt>
<trkpt lat="46.644308036193252" lon="7.130650989711285"><ele></ele><time>2013-8-9T23:46:54Z</time></trkpt>
<trkpt lat="46.644308036193252" lon="7.130650989711285"><ele></ele><time>2013-8-9T23:46:57Z</time></trkpt>
<trkpt lat="46.644308036193252" lon="7.130650989711285"><ele></ele><time>2013-8-9T23:47:0Z</time></trkpt>
<trkpt lat="46.644308036193252" lon="7.130650989711285"><ele></ele><time>2013-8-9T23:47:3Z</time></trkpt>
<trkpt lat="46.64430602453649" lon="7.130653001368046"><ele></ele><time>2013-8-9T23:47:6Z</time></trkpt>
<trkpt lat="46.64430501870811" lon="7.130654007196426"><ele></ele><time>2013-8-9T23:47:9Z</time></trkpt>
<trkpt lat="46.64430501870811" lon="7.130654007196426"><ele></ele><time>2013-8-9T23:47:12Z</time></trkpt>
<trkpt lat="46.64430501870811" lon="7.130654007196426"><ele></ele><time>2013-8-9T23:47:15Z</time></trkpt>
<trkpt lat="46.64430501870811" lon="7.130654007196426"><ele></ele><time>2013-8-9T23:47:18Z</time></trkpt>
<trkpt lat="46.64430602453649" lon="7.130654007196426"><ele></ele><time>2013-8-9T23:47:21Z</time></trkpt>
<trkpt lat="46.644304012879729" lon="7.130660964176059"><ele></ele><time>2013-8-9T23:47:24Z</time></trkpt>
<trkpt lat="46.644304012879729" lon="7.130660964176059"><ele></ele><time>2013-8-9T23:47:27Z</time></trkpt>
<trkpt lat="46.644146014004946" lon="7.130733970552683"><ele></ele><time>2013-8-9T23:47:30Z</time></trkpt>
<trkpt lat="46.644037971273065" lon="7.130883000791073"><ele></ele><time>2013-8-9T23:47:33Z</time></trkpt>
<trkpt lat="46.643986003473401" lon="7.130936980247498"><ele></ele><time>2013-8-9T23:47:36Z</time></trkpt>
<trkpt lat="46.64383202791214" lon="7.1308349724859"><ele></ele><time>2013-8-9T23:47:39Z</time></trkpt>
<trkpt lat="46.643653996288776" lon="7.130798008292913"><ele></ele><time>2013-8-9T23:47:42Z</time></trkpt>
<trkpt lat="46.64363999851048" lon="7.130801025778055"><ele></ele><time>2013-8-9T23:47:45Z</time></trkpt>
<trkpt lat="46.643601022660732" lon="7.130805971100926"><ele></ele><time>2013-8-9T23:47:48Z</time></trkpt>
<trkpt lat="46.643412010744214" lon="7.130857016891241"><ele></ele><time>2013-8-9T23:47:51Z</time></trkpt>
<trkpt lat="46.643264992162585" lon="7.130765989422798"><ele></ele><time>2013-8-9T23:47:54Z</time></trkpt>
<trkpt lat="46.643117973580956" lon="7.130712009966373"><ele></ele><time>2013-8-9T23:47:57Z</time></trkpt>
<trkpt lat="46.642864001914859" lon="7.130693988874555"><ele></ele><time>2013-8-9T23:48:0Z</time></trkpt>
<trkpt lat="46.642785966396332" lon="7.130704969167709"><ele></ele><time>2013-8-9T23:48:3Z</time></trkpt>
<trkpt lat="46.642621010541916" lon="7.130688037723303"><ele></ele><time>2013-8-9T23:48:6Z</time></trkpt>
<trkpt lat="46.642383970320225" lon="7.130522998049855"><ele></ele><time>2013-8-9T23:48:9Z</time></trkpt>
<trkpt lat="46.642277017235756" lon="7.130445968359709"><ele></ele><time>2013-8-9T23:48:12Z</time></trkpt>
<trkpt lat="46.64222102612257" lon="7.130400035530329"><ele></ele><time>2013-8-9T23:48:15Z</time></trkpt>
<trkpt lat="46.642125975340605" lon="7.130316970869899"><ele></ele><time>2013-8-9T23:48:18Z</time></trkpt>
<trkpt lat="46.642030002549291" lon="7.130297021940351"><ele></ele><time>2013-8-9T23:48:21Z</time></trkpt>
<trkpt lat="46.641860017552972" lon="7.130371034145355"><ele></ele><time>2013-8-9T23:48:24Z</time></trkpt>
<trkpt lat="46.641734959557652" lon="7.130364999175072"><ele></ele><time>2013-8-9T23:48:27Z</time></trkpt>
<trkpt lat="46.641644015908241" lon="7.130360975861549"><ele></ele><time>2013-8-9T23:48:30Z</time></trkpt>
<trkpt lat="46.641590958461165" lon="7.130449991673231"><ele></ele><time>2013-8-9T23:48:33Z</time></trkpt>
<trkpt lat="46.64153597317636" lon="7.130590975284576"><ele></ele><time>2013-8-9T23:48:36Z</time></trkpt>
<trkpt lat="46.641516024246812" lon="7.130712009966373"><ele></ele><time>2013-8-9T23:48:39Z</time></trkpt>
<trkpt lat="46.641507977619767" lon="7.130780993029475"><ele></ele><time>2013-8-9T23:48:42Z</time></trkpt>
<trkpt lat="46.641498003154993" lon="7.130938991904259"><ele></ele><time>2013-8-9T23:48:45Z</time></trkpt>
<trkpt lat="46.641486017033458" lon="7.131020966917276"><ele></ele><time>2013-8-9T23:48:48Z</time></trkpt>
<trkpt lat="46.641493979841471" lon="7.131171002984047"><ele></ele><time>2013-8-9T23:48:51Z</time></trkpt>
<trkpt lat="46.641582995653152" lon="7.131272004917264"><ele></ele><time>2013-8-9T23:48:54Z</time></trkpt>
<trkpt lat="46.64170503616333" lon="7.131353979930282"><ele></ele><time>2013-8-9T23:48:57Z</time></trkpt>
<trkpt lat="46.641794973984361" lon="7.131488006561995"><ele></ele><time>2013-8-9T23:49:0Z</time></trkpt>
<trkpt lat="46.641850965097547" lon="7.131596971303225"><ele></ele><time>2013-8-9T23:49:3Z</time></trkpt>
<trkpt lat="46.641906034201384" lon="7.131709959357977"><ele></ele><time>2013-8-9T23:49:6Z</time></trkpt>
<trkpt lat="46.641935035586357" lon="7.131781037896872"><ele></ele><time>2013-8-9T23:49:9Z</time></trkpt>
<trkpt lat="46.641949033364654" lon="7.131808027625084"><ele></ele><time>2013-8-9T23:49:12Z</time></trkpt>
<trkpt lat="46.642020028084517" lon="7.131956974044442"><ele></ele><time>2013-8-9T23:49:15Z</time></trkpt>
<trkpt lat="46.642083982005715" lon="7.132074991241097"><ele></ele><time>2013-8-9T23:49:18Z</time></trkpt>
<trkpt lat="46.642121030017734" lon="7.132203988730907"><ele></ele><time>2013-8-9T23:49:21Z</time></trkpt>
<trkpt lat="46.642195964232087" lon="7.132416972890496"><ele></ele><time>2013-8-9T23:49:24Z</time></trkpt>
<trkpt lat="46.642252961173654" lon="7.132605984807014"><ele></ele><time>2013-8-9T23:49:27Z</time></trkpt>
<trkpt lat="46.642223037779331" lon="7.13270103558898"><ele></ele><time>2013-8-9T23:49:30Z</time></trkpt>
<trkpt lat="46.6421780269593" lon="7.132714027538896"><ele></ele><time>2013-8-9T23:49:33Z</time></trkpt>
<trkpt lat="46.642062021419406" lon="7.132688965648413"><ele></ele><time>2013-8-9T23:49:36Z</time></trkpt>
<trkpt lat="46.641956996172667" lon="7.132648983970284"><ele></ele><time>2013-8-9T23:49:39Z</time></trkpt>
<trkpt lat="46.641884995624423" lon="7.132654013112187"><ele></ele><time>2013-8-9T23:49:42Z</time></trkpt>
<trkpt lat="46.641849037259817" lon="7.132730036973953"><ele></ele><time>2013-8-9T23:49:45Z</time></trkpt>
<trkpt lat="46.64185599423945" lon="7.132756020873785"><ele></ele><time>2013-8-9T23:49:48Z</time></trkpt>
<trkpt lat="46.641858005896211" lon="7.13276800699532"><ele></ele><time>2013-8-9T23:49:51Z</time></trkpt>
<trkpt lat="46.641867980360985" lon="7.132764989510179"><ele></ele><time>2013-8-9T23:49:54Z</time></trkpt>
<trkpt lat="46.641886001452804" lon="7.132878983393312"><ele></ele><time>2013-8-9T23:49:57Z</time></trkpt>
<trkpt lat="46.641904022544622" lon="7.132973028346896"><ele></ele><time>2013-8-9T23:50:0Z</time></trkpt>
<trkpt lat="46.641906034201384" lon="7.13298199698329"><ele></ele><time>2013-8-9T23:50:3Z</time></trkpt>
<trkpt lat="46.641950039193034" lon="7.133098002523184"><ele></ele><time>2013-8-9T23:50:6Z</time></trkpt>
<trkpt lat="46.641997983679175" lon="7.133205961436033"><ele></ele><time>2013-8-9T23:50:9Z</time></trkpt>
<trkpt lat="46.642017010599375" lon="7.13326396420598"><ele></ele><time>2013-8-9T23:50:12Z</time></trkpt>
<trkpt lat="46.642027990892529" lon="7.13334996253252"><ele></ele><time>2013-8-9T23:50:15Z</time></trkpt>
<trkpt lat="46.64202899672091" lon="7.133360020816326"><ele></ele><time>2013-8-9T23:50:18Z</time></trkpt>
<trkpt lat="46.642044000327587" lon="7.133452976122499"><ele></ele><time>2013-8-9T23:50:21Z</time></trkpt>
<trkpt lat="46.642080964520574" lon="7.13351902551949"><ele></ele><time>2013-8-9T23:50:24Z</time></trkpt>
<trkpt lat="46.642141984775662" lon="7.133621033281088"><ele></ele><time>2013-8-9T23:50:27Z</time></trkpt>
<trkpt lat="46.642177021130919" lon="7.133677024394274"><ele></ele><time>2013-8-9T23:50:30Z</time></trkpt>
<trkpt lat="46.642234018072486" lon="7.133745001628995"><ele></ele><time>2013-8-9T23:50:33Z</time></trkpt>
<trkpt lat="46.642284980043769" lon="7.133837034925818"><ele></ele><time>2013-8-9T23:50:36Z</time></trkpt>
<trkpt lat="46.642334014177322" lon="7.133915992453694"><ele></ele><time>2013-8-9T23:50:39Z</time></trkpt>
<trkpt lat="46.642410960048437" lon="7.134029986336827"><ele></ele><time>2013-8-9T23:50:42Z</time></trkpt>
<trkpt lat="46.64247902110219" lon="7.134122019633651"><ele></ele><time>2013-8-9T23:50:45Z</time></trkpt>
<trkpt lat="46.642527971416712" lon="7.134192008525133"><ele></ele><time>2013-8-9T23:50:48Z</time></trkpt>
<trkpt lat="46.642577005550265" lon="7.134269960224628"><ele></ele><time>2013-8-9T23:50:51Z</time></trkpt>
<trkpt lat="46.642683036625385" lon="7.13444103486836"><ele></ele><time>2013-8-9T23:50:54Z</time></trkpt>
<trkpt lat="46.642744978889823" lon="7.134526027366519"><ele></ele><time>2013-8-9T23:50:57Z</time></trkpt>
<trkpt lat="46.642813039943576" lon="7.134701041504741"><ele></ele><time>2013-8-9T23:51:0Z</time></trkpt>
<trkpt lat="46.642827037721872" lon="7.134717972949147"><ele></ele><time>2013-8-9T23:51:3Z</time></trkpt>
<trkpt lat="46.642899038270116" lon="7.134810006245971"><ele></ele><time>2013-8-9T23:51:6Z</time></trkpt>
<trkpt lat="46.642902977764606" lon="7.134839007630944"><ele></ele><time>2013-8-9T23:51:9Z</time></trkpt>
<trkpt lat="46.642900966107845" lon="7.134855017066002"><ele></ele><time>2013-8-9T23:51:12Z</time></trkpt>
<trkpt lat="46.642934996634722" lon="7.134898016229272"><ele></ele><time>2013-8-9T23:51:15Z</time></trkpt>
<trkpt lat="46.642975984141231" lon="7.134945960715413"><ele></ele><time>2013-8-9T23:51:18Z</time></trkpt>
<trkpt lat="46.643094001337886" lon="7.135114017874002"><ele></ele><time>2013-8-9T23:51:21Z</time></trkpt>
<trkpt lat="46.643183017149568" lon="7.135287020355463"><ele></ele><time>2013-8-9T23:51:24Z</time></trkpt>
<trkpt lat="46.643256023526192" lon="7.135337982326746"><ele></ele><time>2013-8-9T23:51:27Z</time></trkpt>
<trkpt lat="46.643326012417674" lon="7.135359020903707"><ele></ele><time>2013-8-9T23:51:30Z</time></trkpt>
<trkpt lat="46.643344033509493" lon="7.135376958176494"><ele></ele><time>2013-8-9T23:51:33Z</time></trkpt>
<trkpt lat="46.643430031836033" lon="7.135460022836924"><ele></ele><time>2013-8-9T23:51:36Z</time></trkpt>
<trkpt lat="46.64349096827209" lon="7.135566975921392"><ele></ele><time>2013-8-9T23:51:39Z</time></trkpt>
<trkpt lat="46.643566992133856" lon="7.135705025866628"><ele></ele><time>2013-8-9T23:51:42Z</time></trkpt>
<trkpt lat="46.643618959933519" lon="7.13577501475811"><ele></ele><time>2013-8-9T23:51:45Z</time></trkpt>
<trkpt lat="46.643770001828671" lon="7.135966038331389"><ele></ele><time>2013-8-9T23:51:48Z</time></trkpt>
<trkpt lat="46.64387502707541" lon="7.136099981144071"><ele></ele><time>2013-8-9T23:51:51Z</time></trkpt>
<trkpt lat="46.643973011523485" lon="7.1362279728055"><ele></ele><time>2013-8-9T23:51:54Z</time></trkpt>
<trkpt lat="46.644000001251698" lon="7.13627097196877"><ele></ele><time>2013-8-9T23:51:57Z</time></trkpt>
<trkpt lat="46.644118018448353" lon="7.136441962793469"><ele></ele><time>2013-8-9T23:52:0Z</time></trkpt>
<trkpt lat="46.644196975976229" lon="7.136573977768421"><ele></ele><time>2013-8-9T23:52:3Z</time></trkpt>
<trkpt lat="46.644253972917795" lon="7.13665503077209"><ele></ele><time>2013-8-9T23:52:6Z</time></trkpt>
<trkpt lat="46.644320022314787" lon="7.136791991069913"><ele></ele><time>2013-8-9T23:52:9Z</time></trkpt>
<trkpt lat="46.644394034519792" lon="7.136942027136683"><ele></ele><time>2013-8-9T23:52:12Z</time></trkpt>
<trkpt lat="46.644461005926132" lon="7.137058032676578"><ele></ele><time>2013-8-9T23:52:15Z</time></trkpt>
<trkpt lat="46.644539963454008" lon="7.137173032388091"><ele></ele><time>2013-8-9T23:52:18Z</time></trkpt>
<trkpt lat="46.644549015909433" lon="7.13719398714602"><ele></ele><time>2013-8-9T23:52:21Z</time></trkpt>
<trkpt lat="46.644541975110769" lon="7.137168003246188"><ele></ele><time>2013-8-9T23:52:24Z</time></trkpt>
<trkpt lat="46.644557984545827" lon="7.137184012681246"><ele></ele><time>2013-8-9T23:52:27Z</time></trkpt>
<trkpt lat="46.644557984545827" lon="7.137184012681246"><ele></ele><time>2013-8-9T23:52:30Z</time></trkpt>
<trkpt lat="46.644581034779549" lon="7.13721502572298"><ele></ele><time>2013-8-9T23:52:33Z</time></trkpt>
<trkpt lat="46.644645994529128" lon="7.137323990464211"><ele></ele><time>2013-8-9T23:52:36Z</time></trkpt>
<trkpt lat="46.644701985642314" lon="7.137403031811118"><ele></ele><time>2013-8-9T23:52:39Z</time></trkpt>
<trkpt lat="46.644711038097739" lon="7.137433961033821"><ele></ele><time>2013-8-9T23:52:42Z</time></trkpt>
<trkpt lat="46.644712965935469" lon="7.137457011267543"><ele></ele><time>2013-8-9T23:52:45Z</time></trkpt>
<trkpt lat="46.644744984805584" lon="7.137550972402096"><ele></ele><time>2013-8-9T23:52:48Z</time></trkpt>
<trkpt lat="46.644777003675699" lon="7.137671001255512"><ele></ele><time>2013-8-9T23:52:51Z</time></trkpt>
<trkpt lat="46.644738027825952" lon="7.13779304176569"><ele></ele><time>2013-8-9T23:52:54Z</time></trkpt>
<trkpt lat="46.644711038097739" lon="7.137898989021778"><ele></ele><time>2013-8-9T23:52:57Z</time></trkpt>
<trkpt lat="46.644707014784217" lon="7.137932013720274"><ele></ele><time>2013-8-9T23:53:0Z</time></trkpt>
<trkpt lat="46.644713971763849" lon="7.138033015653491"><ele></ele><time>2013-8-9T23:53:3Z</time></trkpt>
<trkpt lat="46.64471598342061" lon="7.138049025088549"><ele></ele><time>2013-8-9T23:53:6Z</time></trkpt>
<trkpt lat="46.644749008119106" lon="7.138109039515257"><ele></ele><time>2013-8-9T23:53:9Z</time></trkpt>
<trkpt lat="46.644783038645983" lon="7.138302996754646"><ele></ele><time>2013-8-9T23:53:12Z</time></trkpt>
<trkpt lat="46.644795024767518" lon="7.138387989252806"><ele></ele><time>2013-8-9T23:53:15Z</time></trkpt>
<trkpt lat="46.644829977303743" lon="7.138566020876169"><ele></ele><time>2013-8-9T23:53:18Z</time></trkpt>
<trkpt lat="46.644876999780536" lon="7.138770036399364"><ele></ele><time>2013-8-9T23:53:21Z</time></trkpt>
<trkpt lat="46.644892003387213" lon="7.138929963111877"><ele></ele><time>2013-8-9T23:53:24Z</time></trkpt>
<trkpt lat="46.644913963973522" lon="7.139081005007029"><ele></ele><time>2013-8-9T23:53:27Z</time></trkpt>
<trkpt lat="46.644961992278695" lon="7.13927898555994"><ele></ele><time>2013-8-9T23:53:30Z</time></trkpt>
<trkpt lat="46.644983030855656" lon="7.139337994158268"><ele></ele><time>2013-8-9T23:53:33Z</time></trkpt>
<trkpt lat="46.644983030855656" lon="7.139337994158268"><ele></ele><time>2013-8-9T23:53:36Z</time></trkpt>
<trkpt lat="46.645054025575519" lon="7.139362972229719"><ele></ele><time>2013-8-9T23:53:39Z</time></trkpt>
<trkpt lat="46.645050002261996" lon="7.139368001371622"><ele></ele><time>2013-8-9T23:53:42Z</time></trkpt>
<trkpt lat="46.645129965618253" lon="7.139508984982967"><ele></ele><time>2013-8-9T23:53:45Z</time></trkpt>
<trkpt lat="46.645167013630271" lon="7.139605041593313"><ele></ele><time>2013-8-9T23:53:48Z</time></trkpt>
<trkpt lat="46.645210012793541" lon="7.139721969142556"><ele></ele><time>2013-8-9T23:53:51Z</time></trkpt>
<trkpt lat="46.64525100030005" lon="7.139787012711167"><ele></ele><time>2013-8-9T23:53:54Z</time></trkpt>
<trkpt lat="46.645373962819576" lon="7.139935037121177"><ele></ele><time>2013-8-9T23:53:57Z</time></trkpt>
<trkpt lat="46.645384021103382" lon="7.139939982444048"><ele></ele><time>2013-8-9T23:54:0Z</time></trkpt>
<trkpt lat="46.6454469691962" lon="7.13992397300899"><ele></ele><time>2013-8-9T23:54:3Z</time></trkpt>
<trkpt lat="46.645718039944768" lon="7.139845015481114"><ele></ele><time>2013-8-9T23:54:6Z</time></trkpt>
<trkpt lat="46.645859023556113" lon="7.139800004661083"><ele></ele><time>2013-8-9T23:54:9Z</time></trkpt>
<trkpt lat="46.645965976640582" lon="7.139774020761251"><ele></ele><time>2013-8-9T23:54:12Z</time></trkpt>
<trkpt lat="46.646090028807521" lon="7.139755999669433"><ele></ele><time>2013-8-9T23:54:15Z</time></trkpt>
<trkpt lat="46.646109977737069" lon="7.139749964699149"><ele></ele><time>2013-8-9T23:54:18Z</time></trkpt>
<trkpt lat="46.64613202214241" lon="7.13974803686142"><ele></ele><time>2013-8-9T23:54:21Z</time></trkpt>
<trkpt lat="46.646280968561769" lon="7.139722974970937"><ele></ele><time>2013-8-9T23:54:24Z</time></trkpt>
<trkpt lat="46.646363027393818" lon="7.139725992456079"><ele></ele><time>2013-8-9T23:54:27Z</time></trkpt>
<trkpt lat="46.646594032645226" lon="7.139761028811336"><ele></ele><time>2013-8-9T23:54:30Z</time></trkpt>
<trkpt lat="46.646784972399473" lon="7.139764968305826"><ele></ele><time>2013-8-9T23:54:33Z</time></trkpt>
<trkpt lat="46.646875999867916" lon="7.139752982184291"><ele></ele><time>2013-8-9T23:54:36Z</time></trkpt>
<trkpt lat="46.647073980420828" lon="7.139721969142556"><ele></ele><time>2013-8-9T23:54:39Z</time></trkpt>
<trkpt lat="46.647299034520984" lon="7.139667989686131"><ele></ele><time>2013-8-9T23:54:42Z</time></trkpt>
<trkpt lat="46.647375980392098" lon="7.139629013836384"><ele></ele><time>2013-8-9T23:54:45Z</time></trkpt>
<trkpt lat="46.6474449634552" lon="7.139582997187972"><ele></ele><time>2013-8-9T23:54:48Z</time></trkpt>
<trkpt lat="46.647501038387418" lon="7.139539998024702"><ele></ele><time>2013-8-9T23:54:51Z</time></trkpt>
<trkpt lat="46.647687032818794" lon="7.139371018856764"><ele></ele><time>2013-8-9T23:54:54Z</time></trkpt>
<trkpt lat="46.64778501726687" lon="7.13927797973156"><ele></ele><time>2013-8-9T23:54:57Z</time></trkpt>
<trkpt lat="46.647815024480224" lon="7.139269011095166"><ele></ele><time>2013-8-9T23:55:0Z</time></trkpt>
<trkpt lat="46.647842014208436" lon="7.13927898555994"><ele></ele><time>2013-8-9T23:55:3Z</time></trkpt>
<trkpt lat="46.647855006158352" lon="7.139292983338237"><ele></ele><time>2013-8-9T23:55:6Z</time></trkpt>
<trkpt lat="46.64787202142179" lon="7.139305975288153"><ele></ele><time>2013-8-9T23:55:9Z</time></trkpt>
<trkpt lat="46.647889958694577" lon="7.13932198472321"><ele></ele><time>2013-8-9T23:55:12Z</time></trkpt>
<trkpt lat="46.647913008928299" lon="7.13934101164341"><ele></ele><time>2013-8-9T23:55:15Z</time></trkpt>
<trkpt lat="46.647935975342989" lon="7.139371018856764"><ele></ele><time>2013-8-9T23:55:18Z</time></trkpt>
<trkpt lat="46.64795701391995" lon="7.139412006363273"><ele></ele><time>2013-8-9T23:55:21Z</time></trkpt>
<trkpt lat="46.647975035011768" lon="7.139460034668446"><ele></ele><time>2013-8-9T23:55:24Z</time></trkpt>
<trkpt lat="46.647991966456175" lon="7.13951300829649"><ele></ele><time>2013-8-9T23:55:27Z</time></trkpt>
<trkpt lat="46.648004036396742" lon="7.139572016894817"><ele></ele><time>2013-8-9T23:55:30Z</time></trkpt>
<trkpt lat="46.648008981719613" lon="7.139639994129539"><ele></ele><time>2013-8-9T23:55:33Z</time></trkpt>
<trkpt lat="46.647999007254839" lon="7.139715012162924"><ele></ele><time>2013-8-9T23:55:36Z</time></trkpt>
<trkpt lat="46.647978974506259" lon="7.13979497551918"><ele></ele><time>2013-8-9T23:55:39Z</time></trkpt>
<trkpt lat="46.647948967292905" lon="7.139978958293796"><ele></ele><time>2013-8-9T23:55:42Z</time></trkpt>
<trkpt lat="46.647928012534976" lon="7.140570972114801"><ele></ele><time>2013-8-9T23:55:45Z</time></trkpt>
<trkpt lat="46.647923989221454" lon="7.140980008989573"><ele></ele><time>2013-8-9T23:55:48Z</time></trkpt>
<trkpt lat="46.647831033915281" lon="7.141514020040631"><ele></ele><time>2013-8-9T23:55:51Z</time></trkpt>
<trkpt lat="46.647833967581391" lon="7.141656009480357"><ele></ele><time>2013-8-9T23:55:54Z</time></trkpt>
<trkpt lat="46.64785198867321" lon="7.141803028061986"><ele></ele><time>2013-8-9T23:55:57Z</time></trkpt>
<trkpt lat="46.647881995886564" lon="7.141952980309725"><ele></ele><time>2013-8-9T23:56:0Z</time></trkpt>
<trkpt lat="46.647923989221454" lon="7.142104022204876"><ele></ele><time>2013-8-9T23:56:3Z</time></trkpt>
<trkpt lat="46.647972017526627" lon="7.142250034958124"><ele></ele><time>2013-8-9T23:56:6Z</time></trkpt>
<trkpt lat="46.648021973669529" lon="7.142380038276315"><ele></ele><time>2013-8-9T23:56:9Z</time></trkpt>
<trkpt lat="46.648163041099906" lon="7.142698969691992"><ele></ele><time>2013-8-9T23:56:12Z</time></trkpt>
<trkpt lat="46.648222971707582" lon="7.142768958583474"><ele></ele><time>2013-8-9T23:56:15Z</time></trkpt>
<trkpt lat="46.648295978084207" lon="7.142811035737395"><ele></ele><time>2013-8-9T23:56:18Z</time></trkpt>
<trkpt lat="46.648380970582366" lon="7.142820004373789"><ele></ele><time>2013-8-9T23:56:21Z</time></trkpt>
<trkpt lat="46.648469986394048" lon="7.142821010202169"><ele></ele><time>2013-8-9T23:56:24Z</time></trkpt>
<trkpt lat="46.648559002205729" lon="7.142843976616859"><ele></ele><time>2013-8-9T23:56:27Z</time></trkpt>
<trkpt lat="46.648643994703889" lon="7.142902985215187"><ele></ele><time>2013-8-9T23:56:30Z</time></trkpt>
<trkpt lat="46.648717001080513" lon="7.142995018512011"><ele></ele><time>2013-8-9T23:56:33Z</time></trkpt>
<trkpt lat="46.648778021335602" lon="7.143110018223524"><ele></ele><time>2013-8-9T23:56:36Z</time></trkpt>
<trkpt lat="46.648834012448788" lon="7.143234992399812"><ele></ele><time>2013-8-9T23:56:39Z</time></trkpt>
<trkpt lat="46.649050014093518" lon="7.143758023157716"><ele></ele><time>2013-8-9T23:56:42Z</time></trkpt>
<trkpt lat="46.649198960512877" lon="7.144123977050185"><ele></ele><time>2013-8-9T23:56:45Z</time></trkpt>
<trkpt lat="46.649241959676147" lon="7.14422196149826"><ele></ele><time>2013-8-9T23:56:48Z</time></trkpt>
<trkpt lat="46.649286970496178" lon="7.144293040037155"><ele></ele><time>2013-8-9T23:56:51Z</time></trkpt>
<trkpt lat="46.649334998801351" lon="7.144345007836819"><ele></ele><time>2013-8-9T23:56:54Z</time></trkpt>
<trkpt lat="46.649389984086156" lon="7.144380966201425"><ele></ele><time>2013-8-9T23:56:57Z</time></trkpt>
<trkpt lat="46.649451004341245" lon="7.144405022263527"><ele></ele><time>2013-8-9T23:57:0Z</time></trkpt>
<trkpt lat="46.649515964090824" lon="7.14441298507154"><ele></ele><time>2013-8-9T23:57:3Z</time></trkpt>
<trkpt lat="46.649581007659435" lon="7.144384989514947"><ele></ele><time>2013-8-9T23:57:6Z</time></trkpt>
<trkpt lat="46.649807989597321" lon="7.144336961209774"><ele></ele><time>2013-8-9T23:57:9Z</time></trkpt>
<trkpt lat="46.649888958781958" lon="7.144350036978722"><ele></ele><time>2013-8-9T23:57:12Z</time></trkpt>
<trkpt lat="46.649954002350569" lon="7.14439102448523"><ele></ele><time>2013-8-9T23:57:15Z</time></trkpt>
<trkpt lat="46.650002030655742" lon="7.144459001719952"><ele></ele><time>2013-8-9T23:57:18Z</time></trkpt>
<trkpt lat="46.650071013718843" lon="7.144624041393399"><ele></ele><time>2013-8-9T23:57:21Z</time></trkpt>
<trkpt lat="46.650091968476772" lon="7.144719008356333"><ele></ele><time>2013-8-9T23:57:24Z</time></trkpt>
<trkpt lat="46.650100015103817" lon="7.144814981147647"><ele></ele><time>2013-8-9T23:57:27Z</time></trkpt>
<trkpt lat="46.650099009275436" lon="7.144910031929612"><ele></ele><time>2013-8-9T23:57:30Z</time></trkpt>
<trkpt lat="46.650088028982282" lon="7.145001981407404"><ele></ele><time>2013-8-9T23:57:33Z</time></trkpt>
<trkpt lat="46.650067996233702" lon="7.145089991390705"><ele></ele><time>2013-8-9T23:57:36Z</time></trkpt>
<trkpt lat="46.650052992627025" lon="7.145171966403723"><ele></ele><time>2013-8-9T23:57:39Z</time></trkpt>
<trkpt lat="46.650040000677109" lon="7.145245978608727"><ele></ele><time>2013-8-9T23:57:42Z</time></trkpt>
<trkpt lat="46.649993984028697" lon="7.14552903547883"><ele></ele><time>2013-8-9T23:57:45Z</time></trkpt>
<trkpt lat="46.649974035099149" lon="7.145607993006706"><ele></ele><time>2013-8-9T23:57:48Z</time></trkpt>
<trkpt lat="46.649938998743892" lon="7.145678987726569"><ele></ele><time>2013-8-9T23:57:51Z</time></trkpt>
<trkpt lat="46.649887030944228" lon="7.145716035738587"><ele></ele><time>2013-8-9T23:57:54Z</time></trkpt>
<trkpt lat="46.64982701651752" lon="7.145732967182994"><ele></ele><time>2013-8-9T23:57:57Z</time></trkpt>
<trkpt lat="46.649768007919192" lon="7.145745037123561"><ele></ele><time>2013-8-9T23:58:0Z</time></trkpt>
<trkpt lat="46.649716962128878" lon="7.145779989659786"><ele></ele><time>2013-8-9T23:58:3Z</time></trkpt>
<trkpt lat="46.64967798627913" lon="7.145843021571636"><ele></ele><time>2013-8-9T23:58:6Z</time></trkpt>
<trkpt lat="46.649653008207679" lon="7.145924996584654"><ele></ele><time>2013-8-9T23:58:9Z</time></trkpt>
<trkpt lat="46.649645967409015" lon="7.146020969375968"><ele></ele><time>2013-8-9T23:58:12Z</time></trkpt>
<trkpt lat="46.649656025692821" lon="7.146119959652424"><ele></ele><time>2013-8-9T23:58:15Z</time></trkpt>
<trkpt lat="46.649666000157595" lon="7.146220961585641"><ele></ele><time>2013-8-9T23:58:18Z</time></trkpt>
<trkpt lat="46.649696007370949" lon="7.146421037614346"><ele></ele><time>2013-8-9T23:58:21Z</time></trkpt>
<trkpt lat="46.6497209854424" lon="7.146521033719182"><ele></ele><time>2013-8-9T23:58:24Z</time></trkpt>
<trkpt lat="46.649798015132546" lon="7.146826973184943"><ele></ele><time>2013-8-9T23:58:27Z</time></trkpt>
<trkpt lat="46.649803966283798" lon="7.146944990381598"><ele></ele><time>2013-8-9T23:58:30Z</time></trkpt>
<trkpt lat="46.649792985990644" lon="7.147065019235015"><ele></ele><time>2013-8-9T23:58:33Z</time></trkpt>
<trkpt lat="46.649724002927542" lon="7.147604981437325"><ele></ele><time>2013-8-9T23:58:36Z</time></trkpt>
<trkpt lat="46.649715034291148" lon="7.147761974483728"><ele></ele><time>2013-8-9T23:58:39Z</time></trkpt>
<trkpt lat="46.649722997099161" lon="7.147923996672034"><ele></ele><time>2013-8-9T23:58:42Z</time></trkpt>
<trkpt lat="46.649744035676122" lon="7.148092975839972"><ele></ele><time>2013-8-9T23:58:45Z</time></trkpt>
<trkpt lat="46.649773037061095" lon="7.148256003856659"><ele></ele><time>2013-8-9T23:58:48Z</time></trkpt>
<trkpt lat="46.649802038446069" lon="7.148400004953146"><ele></ele><time>2013-8-9T23:58:51Z</time></trkpt>
<trkpt lat="46.649848977103829" lon="7.148647019639611"><ele></ele><time>2013-8-9T23:58:54Z</time></trkpt>
<trkpt lat="46.649847971275449" lon="7.14875397272408"><ele></ele><time>2013-8-9T23:58:57Z</time></trkpt>
<trkpt lat="46.649823999032378" lon="7.148849023506045"><ele></ele><time>2013-8-9T23:59:0Z</time></trkpt>
<trkpt lat="46.649745041504502" lon="7.149135014042258"><ele></ele><time>2013-8-9T23:59:3Z</time></trkpt>
<trkpt lat="46.649743029847741" lon="7.149245990440249"><ele></ele><time>2013-8-9T23:59:6Z</time></trkpt>
<trkpt lat="46.649769013747573" lon="7.149350009858608"><ele></ele><time>2013-8-9T23:59:9Z</time></trkpt>
<trkpt lat="46.649802960455418" lon="7.149436008185148"><ele></ele><time>2013-8-9T23:59:12Z</time></trkpt>
<trkpt lat="46.649843025952578" lon="7.149502979591489"><ele></ele><time>2013-8-9T23:59:15Z</time></trkpt>
<trkpt lat="46.649865992367268" lon="7.149554025381804"><ele></ele><time>2013-8-9T23:59:18Z</time></trkpt>
<trkpt lat="46.649883007630706" lon="7.149593001231551"><ele></ele><time>2013-8-9T23:59:21Z</time></trkpt>
<trkpt lat="46.649878984317183" lon="7.149625020101666"><ele></ele><time>2013-8-9T23:59:24Z</time></trkpt>
<trkpt lat="46.649853000417352" lon="7.149651004001498"><ele></ele><time>2013-8-9T23:59:27Z</time></trkpt>
<trkpt lat="46.649811007082462" lon="7.149671958759427"><ele></ele><time>2013-8-9T23:59:30Z</time></trkpt>
<trkpt lat="46.649758033454418" lon="7.149684028699994"><ele></ele><time>2013-8-9T23:59:33Z</time></trkpt>
<trkpt lat="46.649461984634399" lon="7.149729961529374"><ele></ele><time>2013-8-9T23:59:36Z</time></trkpt>
<trkpt lat="46.649279007688165" lon="7.149785030633211"><ele></ele><time>2013-8-9T23:59:39Z</time></trkpt>
<trkpt lat="46.649111034348607" lon="7.149883015081286"><ele></ele><time>2013-8-9T23:59:42Z</time></trkpt>
<trkpt lat="46.649030987173319" lon="7.149924002587795"><ele></ele><time>2013-8-9T23:59:45Z</time></trkpt>
<trkpt lat="46.648948006331921" lon="7.149947974830866"><ele></ele><time>2013-8-9T23:59:48Z</time></trkpt>
<trkpt lat="46.648868964985013" lon="7.149931965395808"><ele></ele><time>2013-8-9T23:59:51Z</time></trkpt>
<trkpt lat="46.648787995800376" lon="7.149849990382791"><ele></ele><time>2013-8-9T23:59:54Z</time></trkpt>
<trkpt lat="46.648720018565655" lon="7.149749994277954"><ele></ele><time>2013-8-9T23:59:57Z</time></trkpt>
<trkpt lat="46.648669978603721" lon="7.149625020101666"><ele></ele><time>2013-8-10T0:0:0Z</time></trkpt>
<trkpt lat="46.648637959733605" lon="7.149483030661941"><ele></ele><time>2013-8-10T0:0:3Z</time></trkpt>
<trkpt lat="46.648624967783689" lon="7.149328971281648"><ele></ele><time>2013-8-10T0:0:6Z</time></trkpt>
<trkpt lat="46.648620022460818" lon="7.149158986285329"><ele></ele><time>2013-8-10T0:0:9Z</time></trkpt>
<trkpt lat="46.648623961955309" lon="7.148664034903049"><ele></ele><time>2013-8-10T0:0:12Z</time></trkpt>
<trkpt lat="46.648637959733605" lon="7.148533025756478"><ele></ele><time>2013-8-10T0:0:15Z</time></trkpt>
<trkpt lat="46.648661009967327" lon="7.148321969434619"><ele></ele><time>2013-8-10T0:0:18Z</time></trkpt>
<trkpt lat="46.648653969168663" lon="7.148227002471685"><ele></ele><time>2013-8-10T0:0:21Z</time></trkpt>
<trkpt lat="46.648622034117579" lon="7.148131029680371"><ele></ele><time>2013-8-10T0:0:24Z</time></trkpt>
<trkpt lat="46.648565959185362" lon="7.148049976676702"><ele></ele><time>2013-8-10T0:0:27Z</time></trkpt>
<trkpt lat="46.648503011092544" lon="7.147987028583884"><ele></ele><time>2013-8-10T0:0:30Z</time></trkpt>
<trkpt lat="46.648432016372681" lon="7.147941011935472"><ele></ele><time>2013-8-10T0:0:33Z</time></trkpt>
<trkpt lat="46.648346018046141" lon="7.147925002500415"><ele></ele><time>2013-8-10T0:0:36Z</time></trkpt>
<trkpt lat="46.64825901389122" lon="7.147930031642318"><ele></ele><time>2013-8-10T0:0:39Z</time></trkpt>
<trkpt lat="46.648171003907919" lon="7.147948974743485"><ele></ele><time>2013-8-10T0:0:42Z</time></trkpt>
<trkpt lat="46.648078970611095" lon="7.147973030805588"><ele></ele><time>2013-8-10T0:0:45Z</time></trkpt>
<trkpt lat="46.647991966456175" lon="7.148015024140477"><ele></ele><time>2013-8-10T0:0:48Z</time></trkpt>
<trkpt lat="46.64785098284483" lon="7.148105967789888"><ele></ele><time>2013-8-10T0:0:51Z</time></trkpt>
<trkpt lat="46.647795997560024" lon="7.148106973618269"><ele></ele><time>2013-8-10T0:0:54Z</time></trkpt>
<trkpt lat="46.647758027538657" lon="7.148069003596902"><ele></ele><time>2013-8-10T0:0:57Z</time></trkpt>
<trkpt lat="46.647704970091581" lon="7.147946963086724"><ele></ele><time>2013-8-10T0:1:0Z</time></trkpt>
<trkpt lat="46.647645961493254" lon="7.147813020274043"><ele></ele><time>2013-8-10T0:1:3Z</time></trkpt>
<trkpt lat="46.647594999521971" lon="7.147770021110773"><ele></ele><time>2013-8-10T0:1:6Z</time></trkpt>
<trkpt lat="46.647535990923643" lon="7.147747976705432"><ele></ele><time>2013-8-10T0:1:9Z</time></trkpt>
<trkpt lat="46.647483017295599" lon="7.14774202555418"><ele></ele><time>2013-8-10T0:1:12Z</time></trkpt>
<trkpt lat="46.6474449634552" lon="7.147756023332477"><ele></ele><time>2013-8-10T0:1:15Z</time></trkpt>
<trkpt lat="46.647427026182413" lon="7.147800028324127"><ele></ele><time>2013-8-10T0:1:18Z</time></trkpt>
<trkpt lat="46.647424008697271" lon="7.14787102304399"><ele></ele><time>2013-8-10T0:1:21Z</time></trkpt>
<trkpt lat="46.647431971505284" lon="7.147963978350163"><ele></ele><time>2013-8-10T0:1:24Z</time></trkpt>
<trkpt lat="46.647444041445851" lon="7.148072021082044"><ele></ele><time>2013-8-10T0:1:27Z</time></trkpt>
<trkpt lat="46.6474449634552" lon="7.148181991651654"><ele></ele><time>2013-8-10T0:1:30Z</time></trkpt>
<trkpt lat="46.647435994818807" lon="7.148291962221265"><ele></ele><time>2013-8-10T0:1:33Z</time></trkpt>
<trkpt lat="46.64742099121213" lon="7.148406039923429"><ele></ele><time>2013-8-10T0:1:36Z</time></trkpt>
<trkpt lat="46.647407999262214" lon="7.148529002442956"><ele></ele><time>2013-8-10T0:1:39Z</time></trkpt>
<trkpt lat="46.647366005927324" lon="7.148831002414227"><ele></ele><time>2013-8-10T0:1:42Z</time></trkpt>
<trkpt lat="46.647344967350364" lon="7.149210032075644"><ele></ele><time>2013-8-10T0:1:45Z</time></trkpt>
<trkpt lat="46.647325018420815" lon="7.149349004030228"><ele></ele><time>2013-8-10T0:1:48Z</time></trkpt>
<trkpt lat="46.647275984287262" lon="7.149483030661941"><ele></ele><time>2013-8-10T0:1:51Z</time></trkpt>
<trkpt lat="46.647276990115643" lon="7.149567017331719"><ele></ele><time>2013-8-10T0:1:54Z</time></trkpt>
<trkpt lat="46.647311020642519" lon="7.149636000394821"><ele></ele><time>2013-8-10T0:1:57Z</time></trkpt>
<trkpt lat="46.647368017584085" lon="7.14969702064991"><ele></ele><time>2013-8-10T0:2:0Z</time></trkpt>
<trkpt lat="46.64742099121213" lon="7.149770027026534"><ele></ele><time>2013-8-10T0:2:3Z</time></trkpt>
<trkpt lat="46.647471031174064" lon="7.14984898455441"><ele></ele><time>2013-8-10T0:2:6Z</time></trkpt>
<trkpt lat="46.647509001195431" lon="7.149929031729698"><ele></ele><time>2013-8-10T0:2:9Z</time></trkpt>
<trkpt lat="46.647544037550688" lon="7.150003965944052"><ele></ele><time>2013-8-10T0:2:12Z</time></trkpt>
<trkpt lat="46.647631963714957" lon="7.150264978408813"><ele></ele><time>2013-8-10T0:2:15Z</time></trkpt>
<trkpt lat="46.647647973150015" lon="7.150380983948708"><ele></ele><time>2013-8-10T0:2:18Z</time></trkpt>
<trkpt lat="46.647615032270551" lon="7.150531020015478"><ele></ele><time>2013-8-10T0:2:21Z</time></trkpt>
<trkpt lat="46.64757002145052" lon="7.150808963924646"><ele></ele><time>2013-8-10T0:2:24Z</time></trkpt>
<trkpt lat="46.647573038935661" lon="7.150936033576727"><ele></ele><time>2013-8-10T0:2:27Z</time></trkpt>
<trkpt lat="46.647538002580404" lon="7.151097971946001"><ele></ele><time>2013-8-10T0:2:30Z</time></trkpt>
<trkpt lat="46.647562980651855" lon="7.151317996904254"><ele></ele><time>2013-8-10T0:2:33Z</time></trkpt>
<trkpt lat="46.647576978430152" lon="7.15141799300909"><ele></ele><time>2013-8-10T0:2:36Z</time></trkpt>
<trkpt lat="46.647583013400435" lon="7.151515977457166"><ele></ele><time>2013-8-10T0:2:39Z</time></trkpt>
<trkpt lat="46.64761302061379" lon="7.151797022670507"><ele></ele><time>2013-8-10T0:2:42Z</time></trkpt>
<trkpt lat="46.647643027827144" lon="7.151881009340286"><ele></ele><time>2013-8-10T0:2:45Z</time></trkpt>
<trkpt lat="46.64770295843482" lon="7.15201998129487"><ele></ele><time>2013-8-10T0:2:48Z</time></trkpt>
<trkpt lat="46.647740006446838" lon="7.152057029306889"><ele></ele><time>2013-8-10T0:2:51Z</time></trkpt>
<trkpt lat="46.647884007543325" lon="7.152115032076836"><ele></ele><time>2013-8-10T0:2:54Z</time></trkpt>
<trkpt lat="46.647924995049834" lon="7.152131963521242"><ele></ele><time>2013-8-10T0:2:57Z</time></trkpt>
<trkpt lat="46.647961037233472" lon="7.152170017361641"><ele></ele><time>2013-8-10T0:3:0Z</time></trkpt>
<trkpt lat="46.647994983941317" lon="7.152218967676163"><ele></ele><time>2013-8-10T0:3:3Z</time></trkpt>
<trkpt lat="46.648014010861516" lon="7.15227697044611"><ele></ele><time>2013-8-10T0:3:6Z</time></trkpt>
<trkpt lat="46.648037983104587" lon="7.152409991249442"><ele></ele><time>2013-8-10T0:3:9Z</time></trkpt>
<trkpt lat="46.648042006418109" lon="7.152477968484163"><ele></ele><time>2013-8-10T0:3:12Z</time></trkpt>
<trkpt lat="46.648038988932967" lon="7.152546029537916"><ele></ele><time>2013-8-10T0:3:15Z</time></trkpt>
<trkpt lat="46.648031026124954" lon="7.152614006772637"><ele></ele><time>2013-8-10T0:3:18Z</time></trkpt>
<trkpt lat="46.648019962012768" lon="7.152677038684487"><ele></ele><time>2013-8-10T0:3:21Z</time></trkpt>
<trkpt lat="46.647991966456175" lon="7.15279396623373"><ele></ele><time>2013-8-10T0:3:24Z</time></trkpt>
<trkpt lat="46.647972017526627" lon="7.152847023680806"><ele></ele><time>2013-8-10T0:3:27Z</time></trkpt>
<trkpt lat="46.64793698117137" lon="7.152970992028713"><ele></ele><time>2013-8-10T0:3:30Z</time></trkpt>
<trkpt lat="46.647927006706595" lon="7.153045004233718"><ele></ele><time>2013-8-10T0:3:33Z</time></trkpt>
<trkpt lat="46.647927006706595" lon="7.153123039752245"><ele></ele><time>2013-8-10T0:3:36Z</time></trkpt>
<trkpt lat="46.647933963686228" lon="7.153201997280121"><ele></ele><time>2013-8-10T0:3:39Z</time></trkpt>
<trkpt lat="46.647947961464524" lon="7.153278021141887"><ele></ele><time>2013-8-10T0:3:42Z</time></trkpt>
<trkpt lat="46.647966988384724" lon="7.153343986719847"><ele></ele><time>2013-8-10T0:3:45Z</time></trkpt>
<trkpt lat="46.647990960627794" lon="7.153396960347891"><ele></ele><time>2013-8-10T0:3:48Z</time></trkpt>
<trkpt lat="46.648033037781715" lon="7.153439959511161"><ele></ele><time>2013-8-10T0:3:51Z</time></trkpt>
<trkpt lat="46.648091040551662" lon="7.153468038886786"><ele></ele><time>2013-8-10T0:3:54Z</time></trkpt>
<trkpt lat="46.648149965330958" lon="7.153486981987953"><ele></ele><time>2013-8-10T0:3:57Z</time></trkpt>
<trkpt lat="46.648527989163995" lon="7.153579015284777"><ele></ele><time>2013-8-10T0:4:0Z</time></trkpt>
<trkpt lat="46.648786989971995" lon="7.153668031096458"><ele></ele><time>2013-8-10T0:4:3Z</time></trkpt>
<trkpt lat="46.648882962763309" lon="7.153669036924839"><ele></ele><time>2013-8-10T0:4:6Z</time></trkpt>
<trkpt lat="46.648976001888514" lon="7.153644980862737"><ele></ele><time>2013-8-10T0:4:9Z</time></trkpt>
<trkpt lat="46.649062000215054" lon="7.153601981699467"><ele></ele><time>2013-8-10T0:4:12Z</time></trkpt>
<trkpt lat="46.6491390299052" lon="7.153569040820003"><ele></ele><time>2013-8-10T0:4:15Z</time></trkpt>
<trkpt lat="46.649212958291173" lon="7.153570968657732"><ele></ele><time>2013-8-10T0:4:18Z</time></trkpt>
<trkpt lat="46.649281019344926" lon="7.153611034154892"><ele></ele><time>2013-8-10T0:4:21Z</time></trkpt>
<trkpt lat="46.649329969659448" lon="7.153684040531516"><ele></ele><time>2013-8-10T0:4:24Z</time></trkpt>
<trkpt lat="46.649345979094505" lon="7.153771966695786"><ele></ele><time>2013-8-10T0:4:27Z</time></trkpt>
<trkpt lat="46.649339022114873" lon="7.153860982507467"><ele></ele><time>2013-8-10T0:4:30Z</time></trkpt>
<trkpt lat="46.649317983537912" lon="7.153942035511136"><ele></ele><time>2013-8-10T0:4:33Z</time></trkpt>
<trkpt lat="46.649283031001687" lon="7.154015963897109"><ele></ele><time>2013-8-10T0:4:36Z</time></trkpt>
<trkpt lat="46.649240031838417" lon="7.154085030779243"><ele></ele><time>2013-8-10T0:4:39Z</time></trkpt>
<trkpt lat="46.649190997704864" lon="7.154148984700441"><ele></ele><time>2013-8-10T0:4:42Z</time></trkpt>
<trkpt lat="46.6491390299052" lon="7.154200030490756"><ele></ele><time>2013-8-10T0:4:45Z</time></trkpt>
<trkpt lat="46.649099970236421" lon="7.1542530041188"><ele></ele><time>2013-8-10T0:4:48Z</time></trkpt>
<trkpt lat="46.649089995771646" lon="7.15433799661696"><ele></ele><time>2013-8-10T0:4:51Z</time></trkpt>
<trkpt lat="46.649111034348607" lon="7.154437992721796"><ele></ele><time>2013-8-10T0:4:54Z</time></trkpt>
<trkpt lat="46.649153027683496" lon="7.154532037675381"><ele></ele><time>2013-8-10T0:4:57Z</time></trkpt>
<trkpt lat="46.649198960512877" lon="7.154637984931469"><ele></ele><time>2013-8-10T0:5:0Z</time></trkpt>
<trkpt lat="46.649239026010036" lon="7.154748039320111"><ele></ele><time>2013-8-10T0:5:3Z</time></trkpt>
<trkpt lat="46.649295017123222" lon="7.154950965195894"><ele></ele><time>2013-8-10T0:5:6Z</time></trkpt>
<trkpt lat="46.649301974102855" lon="7.155040986835957"><ele></ele><time>2013-8-10T0:5:9Z</time></trkpt>
<trkpt lat="46.649282025173306" lon="7.15513302013278"><ele></ele><time>2013-8-10T0:5:12Z</time></trkpt>
<trkpt lat="46.649230979382992" lon="7.155218012630939"><ele></ele><time>2013-8-10T0:5:15Z</time></trkpt>
<trkpt lat="46.649169037118554" lon="7.155289007350802"><ele></ele><time>2013-8-10T0:5:18Z</time></trkpt>
<trkpt lat="46.649095024913549" lon="7.155349021777511"><ele></ele><time>2013-8-10T0:5:21Z</time></trkpt>
<trkpt lat="46.6490129660815" lon="7.155403001233935"><ele></ele><time>2013-8-10T0:5:24Z</time></trkpt>
<trkpt lat="46.648641983047128" lon="7.155635012313724"><ele></ele><time>2013-8-10T0:5:27Z</time></trkpt>
<trkpt lat="46.648480966687202" lon="7.155748000368476"><ele></ele><time>2013-8-10T0:5:30Z</time></trkpt>
<trkpt lat="46.648416006937623" lon="7.155822012573481"><ele></ele><time>2013-8-10T0:5:33Z</time></trkpt>
<trkpt lat="46.648360015824437" lon="7.155901975929737"><ele></ele><time>2013-8-10T0:5:36Z</time></trkpt>
<trkpt lat="46.648311987519264" lon="7.155987974256277"><ele></ele><time>2013-8-10T0:5:39Z</time></trkpt>
<trkpt lat="46.648266976699233" lon="7.156074978411198"><ele></ele><time>2013-8-10T0:5:42Z</time></trkpt>
<trkpt lat="46.648222971707582" lon="7.156180003657937"><ele></ele><time>2013-8-10T0:5:45Z</time></trkpt>
<trkpt lat="46.648186007514596" lon="7.156296009197831"><ele></ele><time>2013-8-10T0:5:48Z</time></trkpt>
<trkpt lat="46.64817301556468" lon="7.156420983374119"><ele></ele><time>2013-8-10T0:5:51Z</time></trkpt>
<trkpt lat="46.648229006677866" lon="7.156632039695978"><ele></ele><time>2013-8-10T0:5:54Z</time></trkpt>
<trkpt lat="46.648255996406078" lon="7.156750978901982"><ele></ele><time>2013-8-10T0:5:57Z</time></trkpt>
<trkpt lat="46.648300001397729" lon="7.156842006370425"><ele></ele><time>2013-8-10T0:6:0Z</time></trkpt>
<trkpt lat="46.648363033309579" lon="7.156906966120005"><ele></ele><time>2013-8-10T0:6:3Z</time></trkpt>
<trkpt lat="46.648438973352313" lon="7.156954994425178"><ele></ele><time>2013-8-10T0:6:6Z</time></trkpt>
<trkpt lat="46.648508040234447" lon="7.15700302273035"><ele></ele><time>2013-8-10T0:6:9Z</time></trkpt>
<trkpt lat="46.648563025519252" lon="7.157054990530014"><ele></ele><time>2013-8-10T0:6:12Z</time></trkpt>
<trkpt lat="46.64860300719738" lon="7.157106036320329"><ele></ele><time>2013-8-10T0:6:15Z</time></trkpt>
<trkpt lat="46.648627985268831" lon="7.157155992463231"><ele></ele><time>2013-8-10T0:6:18Z</time></trkpt>
<trkpt lat="46.648638965561986" lon="7.157203014940023"><ele></ele><time>2013-8-10T0:6:21Z</time></trkpt>
<trkpt lat="46.648636031895876" lon="7.157245008274913"><ele></ele><time>2013-8-10T0:6:24Z</time></trkpt>
<trkpt lat="46.648622034117579" lon="7.157279960811138"><ele></ele><time>2013-8-10T0:6:27Z</time></trkpt>
<trkpt lat="46.648596972227097" lon="7.157293958589435"><ele></ele><time>2013-8-10T0:6:30Z</time></trkpt>
<trkpt lat="46.648557996377349" lon="7.157290019094944"><ele></ele><time>2013-8-10T0:6:33Z</time></trkpt>
<trkpt lat="46.648518014699221" lon="7.157267974689603"><ele></ele><time>2013-8-10T0:6:36Z</time></trkpt>
<trkpt lat="46.648483984172344" lon="7.157235033810139"><ele></ele><time>2013-8-10T0:6:39Z</time></trkpt>
<trkpt lat="46.648450037464499" lon="7.157201003283262"><ele></ele><time>2013-8-10T0:6:42Z</time></trkpt>
<trkpt lat="46.648418018594384" lon="7.157166972756386"><ele></ele><time>2013-8-10T0:6:45Z</time></trkpt>
<trkpt lat="46.648380970582366" lon="7.15713101439178"><ele></ele><time>2013-8-10T0:6:48Z</time></trkpt>
<trkpt lat="46.648337971419096" lon="7.157101007178426"><ele></ele><time>2013-8-10T0:6:51Z</time></trkpt>
<trkpt lat="46.648286003619432" lon="7.157075023278594"><ele></ele><time>2013-8-10T0:6:54Z</time></trkpt>
<trkpt lat="46.648235963657498" lon="7.157058008015156"><ele></ele><time>2013-8-10T0:6:57Z</time></trkpt>
<trkpt lat="46.648203022778034" lon="7.157049039378762"><ele></ele><time>2013-8-10T0:7:0Z</time></trkpt>
<trkpt lat="46.648070001974702" lon="7.157007968053222"><ele></ele><time>2013-8-10T0:7:3Z</time></trkpt>
<trkpt lat="46.648068996146321" lon="7.157034035772085"><ele></ele><time>2013-8-10T0:7:6Z</time></trkpt>
<trkpt lat="46.64808701723814" lon="7.157038981094956"><ele></ele><time>2013-8-10T0:7:9Z</time></trkpt>
<trkpt lat="46.648321039974689" lon="7.157105030491948"><ele></ele><time>2013-8-10T0:7:12Z</time></trkpt>
<trkpt lat="46.648551039397717" lon="7.157361013814807"><ele></ele><time>2013-8-10T0:7:15Z</time></trkpt>
<trkpt lat="46.648687999695539" lon="7.157696960493922"><ele></ele><time>2013-8-10T0:7:18Z</time></trkpt>
<trkpt lat="46.648724041879177" lon="7.15786300599575"><ele></ele><time>2013-8-10T0:7:21Z</time></trkpt>
<trkpt lat="46.648802999407053" lon="7.158303977921605"><ele></ele><time>2013-8-10T0:7:24Z</time></trkpt>
<trkpt lat="46.64884096942842" lon="7.15839902870357"><ele></ele><time>2013-8-10T0:7:27Z</time></trkpt>
<trkpt lat="46.648894026875496" lon="7.158496007323265"><ele></ele><time>2013-8-10T0:7:30Z</time></trkpt>
<trkpt lat="46.649054037407041" lon="7.158803958445787"><ele></ele><time>2013-8-10T0:7:33Z</time></trkpt>
<trkpt lat="46.649087984114885" lon="7.158919963985682"><ele></ele><time>2013-8-10T0:7:36Z</time></trkpt>
<trkpt lat="46.649110028520226" lon="7.159051978960633"><ele></ele><time>2013-8-10T0:7:39Z</time></trkpt>
<trkpt lat="46.649122014641762" lon="7.15919497422874"><ele></ele><time>2013-8-10T0:7:42Z</time></trkpt>
<trkpt lat="46.649127965793014" lon="7.159342998638749"><ele></ele><time>2013-8-10T0:7:45Z</time></trkpt>
<trkpt lat="46.649154033511877" lon="7.159925037994981"><ele></ele><time>2013-8-10T0:7:48Z</time></trkpt>
<trkpt lat="46.649153027683496" lon="7.160127963870764"><ele></ele><time>2013-8-10T0:7:51Z</time></trkpt>
<trkpt lat="46.649141041561961" lon="7.160207005217671"><ele></ele><time>2013-8-10T0:7:54Z</time></trkpt>
<trkpt lat="46.649112040176988" lon="7.160269031301141"><ele></ele><time>2013-8-10T0:7:57Z</time></trkpt>
<trkpt lat="46.649078009650111" lon="7.160318987444043"><ele></ele><time>2013-8-10T0:8:0Z</time></trkpt>
<trkpt lat="46.649048002436757" lon="7.160358969122171"><ele></ele><time>2013-8-10T0:8:3Z</time></trkpt>
<trkpt lat="46.648908024653792" lon="7.160485032945871"><ele></ele><time>2013-8-10T0:8:6Z</time></trkpt>
<trkpt lat="46.648888997733593" lon="7.160502970218658"><ele></ele><time>2013-8-10T0:8:9Z</time></trkpt>
<trkpt lat="46.648866031318903" lon="7.160517973825336"><ele></ele><time>2013-8-10T0:8:12Z</time></trkpt>
<trkpt lat="46.648780032992363" lon="7.160571031272411"><ele></ele><time>2013-8-10T0:8:15Z</time></trkpt>
<trkpt lat="46.648780032992363" lon="7.160571031272411"><ele></ele><time>2013-8-10T0:8:18Z</time></trkpt>
<trkpt lat="46.648545004427433" lon="7.160775968804955"><ele></ele><time>2013-8-10T0:8:21Z</time></trkpt>
<trkpt lat="46.648498987779021" lon="7.160846963524818"><ele></ele><time>2013-8-10T0:8:24Z</time></trkpt>
<trkpt lat="46.648461017757654" lon="7.1609359793365"><ele></ele><time>2013-8-10T0:8:27Z</time></trkpt>
<trkpt lat="46.648428998887539" lon="7.161033041775227"><ele></ele><time>2013-8-10T0:8:30Z</time></trkpt>
<trkpt lat="46.648403014987707" lon="7.161129014566541"><ele></ele><time>2013-8-10T0:8:33Z</time></trkpt>
<trkpt lat="46.648331014439464" lon="7.161437971517444"><ele></ele><time>2013-8-10T0:8:36Z</time></trkpt>
<trkpt lat="46.648346018046141" lon="7.161610973998904"><ele></ele><time>2013-8-10T0:8:39Z</time></trkpt>
<trkpt lat="46.648405026644468" lon="7.161867041140795"><ele></ele><time>2013-8-10T0:8:42Z</time></trkpt>
<trkpt lat="46.648416006937623" lon="7.161924038082361"><ele></ele><time>2013-8-10T0:8:45Z</time></trkpt>
<trkpt lat="46.648441990837455" lon="7.161904005333781"><ele></ele><time>2013-8-10T0:8:48Z</time></trkpt>
<trkpt lat="46.648441990837455" lon="7.16188196092844"><ele></ele><time>2013-8-10T0:8:51Z</time></trkpt>
<trkpt lat="46.648434028029442" lon="7.16185899451375"><ele></ele><time>2013-8-10T0:8:54Z</time></trkpt>
<trkpt lat="46.648338977247477" lon="7.16149396263063"><ele></ele><time>2013-8-10T0:8:57Z</time></trkpt>
<trkpt lat="46.648369990289211" lon="7.161219958215952"><ele></ele><time>2013-8-10T0:9:0Z</time></trkpt>
<trkpt lat="46.648462023586035" lon="7.160890968516469"><ele></ele><time>2013-8-10T0:9:3Z</time></trkpt>
<trkpt lat="46.648607030510902" lon="7.16069701127708"><ele></ele><time>2013-8-10T0:9:6Z</time></trkpt>
<trkpt lat="46.648808028548956" lon="7.16056901961565"><ele></ele><time>2013-8-10T0:9:9Z</time></trkpt>
<trkpt lat="46.649037022143602" lon="7.160384031012654"><ele></ele><time>2013-8-10T0:9:12Z</time></trkpt>
<trkpt lat="46.649138024076819" lon="7.160125030204654"><ele></ele><time>2013-8-10T0:9:15Z</time></trkpt>
<trkpt lat="46.64911899715662" lon="7.159606022760272"><ele></ele><time>2013-8-10T0:9:18Z</time></trkpt>
<trkpt lat="46.649093013256788" lon="7.15914904139936"><ele></ele><time>2013-8-10T0:9:21Z</time></trkpt>
<trkpt lat="46.649026963859797" lon="7.158772023394704"><ele></ele><time>2013-8-10T0:9:24Z</time></trkpt>
<trkpt lat="46.648872988298535" lon="7.158498018980026"><ele></ele><time>2013-8-10T0:9:27Z</time></trkpt>
<trkpt lat="46.648743990808725" lon="7.158152014017105"><ele></ele><time>2013-8-10T0:9:30Z</time></trkpt>
<trkpt lat="46.648739967495203" lon="7.158127035945654"><ele></ele><time>2013-8-10T0:9:33Z</time></trkpt>
<trkpt lat="46.648671990260482" lon="7.157674999907613"><ele></ele><time>2013-8-10T0:9:36Z</time></trkpt>
<trkpt lat="46.648395974189043" lon="7.157149035483599"><ele></ele><time>2013-8-10T0:9:39Z</time></trkpt>
<trkpt lat="46.648348029702902" lon="7.157109975814819"><ele></ele><time>2013-8-10T0:9:42Z</time></trkpt>
<trkpt lat="46.648294972255826" lon="7.157076029106975"><ele></ele><time>2013-8-10T0:9:45Z</time></trkpt>
<trkpt lat="46.648236969485879" lon="7.15704602189362"><ele></ele><time>2013-8-10T0:9:48Z</time></trkpt>
<trkpt lat="46.648177960887551" lon="7.157020960003138"><ele></ele><time>2013-8-10T0:9:51Z</time></trkpt>
<trkpt lat="46.647989032790065" lon="7.15696002356708"><ele></ele><time>2013-8-10T0:9:54Z</time></trkpt>
<trkpt lat="46.647924995049834" lon="7.15696002356708"><ele></ele><time>2013-8-10T0:9:57Z</time></trkpt>
<trkpt lat="46.647855006158352" lon="7.156983995810151"><ele></ele><time>2013-8-10T0:10:0Z</time></trkpt>
<trkpt lat="46.647649984806776" lon="7.157074017450213"><ele></ele><time>2013-8-10T0:10:3Z</time></trkpt>
<trkpt lat="46.647583013400435" lon="7.157075023278594"><ele></ele><time>2013-8-10T0:10:6Z</time></trkpt>
<trkpt lat="46.647519981488585" lon="7.157035041600466"><ele></ele><time>2013-8-10T0:10:9Z</time></trkpt>
<trkpt lat="46.647460972890258" lon="7.156974021345377"><ele></ele><time>2013-8-10T0:10:12Z</time></trkpt>
<trkpt lat="46.647397018969059" lon="7.156933033838868"><ele></ele><time>2013-8-10T0:10:15Z</time></trkpt>
<trkpt lat="46.647324012592435" lon="7.15693898499012"><ele></ele><time>2013-8-10T0:10:18Z</time></trkpt>
<trkpt lat="46.647253017872572" lon="7.156993970274925"><ele></ele><time>2013-8-10T0:10:21Z</time></trkpt>
<trkpt lat="46.647185040637851" lon="7.157077034935355"><ele></ele><time>2013-8-10T0:10:24Z</time></trkpt>
<trkpt lat="46.647113962098956" lon="7.157172001898289"><ele></ele><time>2013-8-10T0:10:27Z</time></trkpt>
<trkpt lat="46.646966021507978" lon="7.157383980229497"><ele></ele><time>2013-8-10T0:10:30Z</time></trkpt>
<trkpt lat="46.646784972399473" lon="7.15769100934267"><ele></ele><time>2013-8-10T0:10:33Z</time></trkpt>
<trkpt lat="46.646679025143385" lon="7.157843979075551"><ele></ele><time>2013-8-10T0:10:36Z</time></trkpt>
<trkpt lat="46.646621022373438" lon="7.157886978238821"><ele></ele><time>2013-8-10T0:10:39Z</time></trkpt>
<trkpt lat="46.646558996289968" lon="7.157901981845498"><ele></ele><time>2013-8-10T0:10:42Z</time></trkpt>
<trkpt lat="46.646493030712008" lon="7.157875997945666"><ele></ele><time>2013-8-10T0:10:45Z</time></trkpt>
<trkpt lat="46.646431004628539" lon="7.157803997397423"><ele></ele><time>2013-8-10T0:10:48Z</time></trkpt>
<trkpt lat="46.646378031000495" lon="7.157705007120967"><ele></ele><time>2013-8-10T0:10:51Z</time></trkpt>
<trkpt lat="46.646328996866941" lon="7.157594030722976"><ele></ele><time>2013-8-10T0:10:54Z</time></trkpt>
<trkpt lat="46.646157000213861" lon="7.157249031588435"><ele></ele><time>2013-8-10T0:10:57Z</time></trkpt>
<trkpt lat="46.645985003560781" lon="7.156995981931686"><ele></ele><time>2013-8-10T0:11:0Z</time></trkpt>
<trkpt lat="46.645928006619215" lon="7.156948037445545"><ele></ele><time>2013-8-10T0:11:3Z</time></trkpt>
<trkpt lat="46.645868998020887" lon="7.156922975555062"><ele></ele><time>2013-8-10T0:11:6Z</time></trkpt>
<trkpt lat="46.645816024392843" lon="7.156915012747049"><ele></ele><time>2013-8-10T0:11:9Z</time></trkpt>
<trkpt lat="46.645760033279657" lon="7.156931022182107"><ele></ele><time>2013-8-10T0:11:12Z</time></trkpt>
<trkpt lat="46.645698007196188" lon="7.156977038830519"><ele></ele><time>2013-8-10T0:11:15Z</time></trkpt>
<trkpt lat="46.645642016083002" lon="7.157093966379762"><ele></ele><time>2013-8-10T0:11:18Z</time></trkpt>
<trkpt lat="46.645582001656294" lon="7.157234027981758"><ele></ele><time>2013-8-10T0:11:21Z</time></trkpt>
<trkpt lat="46.645527016371489" lon="7.157376017421484"><ele></ele><time>2013-8-10T0:11:24Z</time></trkpt>
<trkpt lat="46.645483011379838" lon="7.157513983547688"><ele></ele><time>2013-8-10T0:11:27Z</time></trkpt>
<trkpt lat="46.6454469691962" lon="7.157651027664542"><ele></ele><time>2013-8-10T0:11:30Z</time></trkpt>
<trkpt lat="46.645417967811227" lon="7.157795028761029"><ele></ele><time>2013-8-10T0:11:33Z</time></trkpt>
<trkpt lat="46.645350996404886" lon="7.158228037878871"><ele></ele><time>2013-8-10T0:11:36Z</time></trkpt>
<trkpt lat="46.645286036655307" lon="7.158617964014411"><ele></ele><time>2013-8-10T0:11:39Z</time></trkpt>
<trkpt lat="46.645235996693373" lon="7.15900001116097"><ele></ele><time>2013-8-10T0:11:42Z</time></trkpt>
<trkpt lat="46.64525100030005" lon="7.159135965630412"><ele></ele><time>2013-8-10T0:11:45Z</time></trkpt>
<trkpt lat="46.645278995856643" lon="7.159273009747267"><ele></ele><time>2013-8-10T0:11:48Z</time></trkpt>
<trkpt lat="46.645425008609891" lon="7.159684980288148"><ele></ele><time>2013-8-10T0:11:51Z</time></trkpt>
<trkpt lat="46.645621983334422" lon="7.160092005506158"><ele></ele><time>2013-8-10T0:11:54Z</time></trkpt>
<trkpt lat="46.645801020786166" lon="7.16046298854053"><ele></ele><time>2013-8-10T0:11:57Z</time></trkpt>
<trkpt lat="46.645890036597848" lon="7.160626016557217"><ele></ele><time>2013-8-10T0:12:0Z</time></trkpt>
<trkpt lat="46.645907973870635" lon="7.160705979913473"><ele></ele><time>2013-8-10T0:12:3Z</time></trkpt>
<trkpt lat="46.645901016891003" lon="7.160782003775239"><ele></ele><time>2013-8-10T0:12:6Z</time></trkpt>
<trkpt lat="46.645855000242591" lon="7.160836989060044"><ele></ele><time>2013-8-10T0:12:9Z</time></trkpt>
<trkpt lat="46.645779982209206" lon="7.16084998100996"><ele></ele><time>2013-8-10T0:12:12Z</time></trkpt>
<trkpt lat="46.64570102468133" lon="7.160818967968225"><ele></ele><time>2013-8-10T0:12:15Z</time></trkpt>
<trkpt lat="46.645626006647944" lon="7.160759037360549"><ele></ele><time>2013-8-10T0:12:18Z</time></trkpt>
<trkpt lat="46.645549982786179" lon="7.160679996013641"><ele></ele><time>2013-8-10T0:12:21Z</time></trkpt>
<trkpt lat="46.645468007773161" lon="7.16059198603034"><ele></ele><time>2013-8-10T0:12:24Z</time></trkpt>
<trkpt lat="46.645243037492037" lon="7.160392999649048"><ele></ele><time>2013-8-10T0:12:27Z</time></trkpt>
<trkpt lat="46.645175982266665" lon="7.160390987992287"><ele></ele><time>2013-8-10T0:12:30Z</time></trkpt>
<trkpt lat="46.645124014467001" lon="7.160435998812318"><ele></ele><time>2013-8-10T0:12:33Z</time></trkpt>
<trkpt lat="46.645097024738789" lon="7.160514034330845"><ele></ele><time>2013-8-10T0:12:36Z</time></trkpt>
<trkpt lat="46.645099958404899" lon="7.16061201877892"><ele></ele><time>2013-8-10T0:12:39Z</time></trkpt>
<trkpt lat="46.645126026123762" lon="7.16072098352015"><ele></ele><time>2013-8-10T0:12:42Z</time></trkpt>
<trkpt lat="46.645157961174846" lon="7.160840006545186"><ele></ele><time>2013-8-10T0:12:45Z</time></trkpt>
<trkpt lat="46.6451879683882" lon="7.160974033176899"><ele></ele><time>2013-8-10T0:12:48Z</time></trkpt>
<trkpt lat="46.645237002521753" lon="7.16123403981328"><ele></ele><time>2013-8-10T0:12:51Z</time></trkpt>
<trkpt lat="46.645246976986527" lon="7.161361025646329"><ele></ele><time>2013-8-10T0:12:54Z</time></trkpt>
<trkpt lat="46.645244965329766" lon="7.161495974287391"><ele></ele><time>2013-8-10T0:12:57Z</time></trkpt>
<trkpt lat="46.645219987258315" lon="7.161645004525781"><ele></ele><time>2013-8-10T0:13:0Z</time></trkpt>
<trkpt lat="46.6451879683882" lon="7.161808032542467"><ele></ele><time>2013-8-10T0:13:3Z</time></trkpt>
<trkpt lat="46.64512200281024" lon="7.162140039727092"><ele></ele><time>2013-8-10T0:13:6Z</time></trkpt>
<trkpt lat="46.645041033625603" lon="7.162397028878331"><ele></ele><time>2013-8-10T0:13:9Z</time></trkpt>
<trkpt lat="46.644962998107076" lon="7.162630967795849"><ele></ele><time>2013-8-10T0:13:12Z</time></trkpt>
<trkpt lat="46.644952017813921" lon="7.162762982770801"><ele></ele><time>2013-8-10T0:13:15Z</time></trkpt>
<trkpt lat="46.644967021420598" lon="7.163018966093659"><ele></ele><time>2013-8-10T0:13:18Z</time></trkpt>
<trkpt lat="46.644988982006907" lon="7.163396989926696"><ele></ele><time>2013-8-10T0:13:21Z</time></trkpt>
<trkpt lat="46.64497003890574" lon="7.163517018780112"><ele></ele><time>2013-8-10T0:13:24Z</time></trkpt>
<trkpt lat="46.64492997340858" lon="7.163636963814497"><ele></ele><time>2013-8-10T0:13:27Z</time></trkpt>
<trkpt lat="46.644785972312093" lon="7.163998978212476"><ele></ele><time>2013-8-10T0:13:30Z</time></trkpt>
<trkpt lat="46.644751019775867" lon="7.164119007065892"><ele></ele><time>2013-8-10T0:13:33Z</time></trkpt>
<trkpt lat="46.644725035876036" lon="7.164224032312632"><ele></ele><time>2013-8-10T0:13:36Z</time></trkpt>
<trkpt lat="46.644696034491062" lon="7.16430701315403"><ele></ele><time>2013-8-10T0:13:39Z</time></trkpt>
<trkpt lat="46.644655968993902" lon="7.164355963468552"><ele></ele><time>2013-8-10T0:13:42Z</time></trkpt>
<trkpt lat="46.644606012851" lon="7.164366021752357"><ele></ele><time>2013-8-10T0:13:45Z</time></trkpt>
<trkpt lat="46.644555972889066" lon="7.164327967911959"><ele></ele><time>2013-8-10T0:13:48Z</time></trkpt>
<trkpt lat="46.644516997039318" lon="7.16424398124218"><ele></ele><time>2013-8-10T0:13:51Z</time></trkpt>
<trkpt lat="46.644497970119119" lon="7.16413501650095"><ele></ele><time>2013-8-10T0:13:54Z</time></trkpt>
<trkpt lat="46.644494030624628" lon="7.164011970162392"><ele></ele><time>2013-8-10T0:13:57Z</time></trkpt>
<trkpt lat="46.644508028402925" lon="7.163883978500962"><ele></ele><time>2013-8-10T0:14:0Z</time></trkpt>
<trkpt lat="46.644549015909433" lon="7.163759004324675"><ele></ele><time>2013-8-10T0:14:3Z</time></trkpt>
<trkpt lat="46.644596038386226" lon="7.163630006834865"><ele></ele><time>2013-8-10T0:14:6Z</time></trkpt>
<trkpt lat="46.644622022286057" lon="7.16349103488028"><ele></ele><time>2013-8-10T0:14:9Z</time></trkpt>
<trkpt lat="46.644617998972535" lon="7.163345022127032"><ele></ele><time>2013-8-10T0:14:12Z</time></trkpt>
<trkpt lat="46.644588997587562" lon="7.163195991888642"><ele></ele><time>2013-8-10T0:14:15Z</time></trkpt>
<trkpt lat="46.644547004252672" lon="7.163046961650252"><ele></ele><time>2013-8-10T0:14:18Z</time></trkpt>
<trkpt lat="46.644502999261022" lon="7.162900026887655"><ele></ele><time>2013-8-10T0:14:21Z</time></trkpt>
<trkpt lat="46.64445798844099" lon="7.162766000255942"><ele></ele><time>2013-8-10T0:14:24Z</time></trkpt>
<trkpt lat="46.644407026469707" lon="7.162649994716048"><ele></ele><time>2013-8-10T0:14:27Z</time></trkpt>
<trkpt lat="46.644339971244335" lon="7.162556033581495"><ele></ele><time>2013-8-10T0:14:30Z</time></trkpt>
<trkpt lat="46.644257996231318" lon="7.162490990012884"><ele></ele><time>2013-8-10T0:14:33Z</time></trkpt>
<trkpt lat="46.644168980419636" lon="7.162454025819898"><ele></ele><time>2013-8-10T0:14:36Z</time></trkpt>
<trkpt lat="46.644081976264715" lon="7.162445979192853"><ele></ele><time>2013-8-10T0:14:39Z</time></trkpt>
<trkpt lat="46.644001007080078" lon="7.162473974749446"><ele></ele><time>2013-8-10T0:14:42Z</time></trkpt>
<trkpt lat="46.643925989046693" lon="7.162518985569477"><ele></ele><time>2013-8-10T0:14:45Z</time></trkpt>
<trkpt lat="46.643785005435348" lon="7.162615964189172"><ele></ele><time>2013-8-10T0:14:48Z</time></trkpt>
<trkpt lat="46.643681991845369" lon="7.162741022184491"><ele></ele><time>2013-8-10T0:14:51Z</time></trkpt>
<trkpt lat="46.643645027652383" lon="7.162805981934071"><ele></ele><time>2013-8-10T0:14:54Z</time></trkpt>
<trkpt lat="46.643472025170922" lon="7.16316900216043"><ele></ele><time>2013-8-10T0:14:57Z</time></trkpt>
<trkpt lat="46.643256023526192" lon="7.163650039583445"><ele></ele><time>2013-8-10T0:15:0Z</time></trkpt>
<trkpt lat="46.643225010484457" lon="7.163759004324675"><ele></ele><time>2013-8-10T0:15:3Z</time></trkpt>
<trkpt lat="46.643196009099483" lon="7.163866041228175"><ele></ele><time>2013-8-10T0:15:6Z</time></trkpt>
<trkpt lat="46.643094001337886" lon="7.1641790214926"><ele></ele><time>2013-8-10T0:15:9Z</time></trkpt>
<trkpt lat="46.643031975254416" lon="7.164276000112295"><ele></ele><time>2013-8-10T0:15:12Z</time></trkpt>
<trkpt lat="46.64295201189816" lon="7.164359986782074"><ele></ele><time>2013-8-10T0:15:15Z</time></trkpt>
<trkpt lat="46.64286601357162" lon="7.164444979280233"><ele></ele><time>2013-8-10T0:15:18Z</time></trkpt>
<trkpt lat="46.642778003588319" lon="7.164538018405437"><ele></ele><time>2013-8-10T0:15:21Z</time></trkpt>
<trkpt lat="46.642325967550278" lon="7.164977984502912"><ele></ele><time>2013-8-10T0:15:24Z</time></trkpt>
<trkpt lat="46.642214991152287" lon="7.165039004758"><ele></ele><time>2013-8-10T0:15:27Z</time></trkpt>
<trkpt lat="46.642095968127251" lon="7.165086027234793"><ele></ele><time>2013-8-10T0:15:30Z</time></trkpt>
<trkpt lat="46.64198599755764" lon="7.165131960064173"><ele></ele><time>2013-8-10T0:15:33Z</time></trkpt>
<trkpt lat="46.641893964260817" lon="7.165180994197726"><ele></ele><time>2013-8-10T0:15:36Z</time></trkpt>
<trkpt lat="46.641818024218082" lon="7.165242014452815"><ele></ele><time>2013-8-10T0:15:39Z</time></trkpt>
<trkpt lat="46.641755998134613" lon="7.165310997515917"><ele></ele><time>2013-8-10T0:15:42Z</time></trkpt>
<trkpt lat="46.641705958172679" lon="7.165378974750638"><ele></ele><time>2013-8-10T0:15:45Z</time></trkpt>
<trkpt lat="46.641659019514918" lon="7.165439995005727"><ele></ele><time>2013-8-10T0:15:48Z</time></trkpt>
<trkpt lat="46.641606967896223" lon="7.165486011654139"><ele></ele><time>2013-8-10T0:15:51Z</time></trkpt>
<trkpt lat="46.641550976783037" lon="7.16551199555397"><ele></ele><time>2013-8-10T0:15:54Z</time></trkpt>
<trkpt lat="46.64149297401309" lon="7.165528004989028"><ele></ele><time>2013-8-10T0:15:57Z</time></trkpt>
<trkpt lat="46.640800964087248" lon="7.165916003286839"><ele></ele><time>2013-8-10T0:16:0Z</time></trkpt>
<trkpt lat="46.640758970752358" lon="7.165946010500193"><ele></ele><time>2013-8-10T0:16:3Z</time></trkpt>
<trkpt lat="46.640558978542686" lon="7.16609101742506"><ele></ele><time>2013-8-10T0:16:6Z</time></trkpt>
<trkpt lat="46.640399973839521" lon="7.166180033236742"><ele></ele><time>2013-8-10T0:16:9Z</time></trkpt>
<trkpt lat="46.640356974676251" lon="7.166189001873136"><ele></ele><time>2013-8-10T0:16:12Z</time></trkpt>
<trkpt lat="46.640312969684601" lon="7.166194031015038"><ele></ele><time>2013-8-10T0:16:15Z</time></trkpt>
<trkpt lat="46.640181038528681" lon="7.16619897633791"><ele></ele><time>2013-8-10T0:16:18Z</time></trkpt>
<trkpt lat="46.64013703353703" lon="7.166189001873136"><ele></ele><time>2013-8-10T0:16:21Z</time></trkpt>
<trkpt lat="46.640049023553729" lon="7.166153965517879"><ele></ele><time>2013-8-10T0:16:24Z</time></trkpt>
<trkpt lat="46.639875015243888" lon="7.166067967191339"><ele></ele><time>2013-8-10T0:16:27Z</time></trkpt>
<trkpt lat="46.639831010252237" lon="7.166051035746932"><ele></ele><time>2013-8-10T0:16:30Z</time></trkpt>
<trkpt lat="46.639787005260587" lon="7.166032008826733"><ele></ele><time>2013-8-10T0:16:33Z</time></trkpt>
<trkpt lat="46.639523981139064" lon="7.165928995236754"><ele></ele><time>2013-8-10T0:16:36Z</time></trkpt>
<trkpt lat="46.639477964490652" lon="7.165927989408374"><ele></ele><time>2013-8-10T0:16:39Z</time></trkpt>
<trkpt lat="46.639431025832891" lon="7.165933018550277"><ele></ele><time>2013-8-10T0:16:42Z</time></trkpt>
<trkpt lat="46.638787966221571" lon="7.166310958564281"><ele></ele><time>2013-8-10T0:16:45Z</time></trkpt>
<trkpt lat="46.638746978715062" lon="7.166360998526216"><ele></ele><time>2013-8-10T0:16:48Z</time></trkpt>
<trkpt lat="46.638593003153801" lon="7.16656400822103"><ele></ele><time>2013-8-10T0:16:51Z</time></trkpt>
<trkpt lat="46.638387981802225" lon="7.166809011250734"><ele></ele><time>2013-8-10T0:16:54Z</time></trkpt>
<trkpt lat="46.638339031487703" lon="7.166857039555907"><ele></ele><time>2013-8-10T0:16:57Z</time></trkpt>
<trkpt lat="46.638285974040627" lon="7.166899032890797"><ele></ele><time>2013-8-10T0:17:0Z</time></trkpt>
<trkpt lat="46.638229982927442" lon="7.16692803427577"><ele></ele><time>2013-8-10T0:17:3Z</time></trkpt>
<trkpt lat="46.638168040663004" lon="7.16695100069046"><ele></ele><time>2013-8-10T0:17:6Z</time></trkpt>
<trkpt lat="46.638104002922773" lon="7.166961980983615"><ele></ele><time>2013-8-10T0:17:9Z</time></trkpt>
<trkpt lat="46.638035019859672" lon="7.166961980983615"><ele></ele><time>2013-8-10T0:17:12Z</time></trkpt>
<trkpt lat="46.63796897046268" lon="7.166952006518841"><ele></ele><time>2013-8-10T0:17:15Z</time></trkpt>
<trkpt lat="46.6379040107131" lon="7.166932979598641"><ele></ele><time>2013-8-10T0:17:18Z</time></trkpt>
<trkpt lat="46.637701001018286" lon="7.166837006807327"><ele></ele><time>2013-8-10T0:17:21Z</time></trkpt>
<trkpt lat="46.637636041268706" lon="7.166781015694141"><ele></ele><time>2013-8-10T0:17:24Z</time></trkpt>
<trkpt lat="46.637574015185237" lon="7.16671203263104"><ele></ele><time>2013-8-10T0:17:27Z</time></trkpt>
<trkpt lat="46.637349966913462" lon="7.166382037103176"><ele></ele><time>2013-8-10T0:17:30Z</time></trkpt>
<trkpt lat="46.637305961921811" lon="7.166280029341578"><ele></ele><time>2013-8-10T0:17:33Z</time></trkpt>
<trkpt lat="46.637271009385586" lon="7.166167041286826"><ele></ele><time>2013-8-10T0:17:36Z</time></trkpt>
<trkpt lat="46.637242008000612" lon="7.166050029918551"><ele></ele><time>2013-8-10T0:17:39Z</time></trkpt>
<trkpt lat="46.637217029929161" lon="7.165928995236754"><ele></ele><time>2013-8-10T0:17:42Z</time></trkpt>
<trkpt lat="46.636829031631351" lon="7.164677996188402"><ele></ele><time>2013-8-10T0:17:45Z</time></trkpt>
<trkpt lat="46.636469028890133" lon="7.164184972643852"><ele></ele><time>2013-8-10T0:17:48Z</time></trkpt>
<trkpt lat="46.636232994496822" lon="7.163775013759732"><ele></ele><time>2013-8-10T0:17:51Z</time></trkpt>
<trkpt lat="46.636071978136897" lon="7.163417022675276"><ele></ele><time>2013-8-10T0:17:54Z</time></trkpt>
<trkpt lat="46.635706024244428" lon="7.162349000573158"><ele></ele><time>2013-8-10T0:17:57Z</time></trkpt>
<trkpt lat="46.635662019252777" lon="7.162212962284684"><ele></ele><time>2013-8-10T0:18:0Z</time></trkpt>
<trkpt lat="46.635617008432746" lon="7.162077007815242"><ele></ele><time>2013-8-10T0:18:3Z</time></trkpt>
<trkpt lat="46.635567974299192" lon="7.161940969526768"><ele></ele><time>2013-8-10T0:18:6Z</time></trkpt>
<trkpt lat="46.635458003729582" lon="7.161675011739135"><ele></ele><time>2013-8-10T0:18:9Z</time></trkpt>
<trkpt lat="46.635395977646112" lon="7.161547020077705"><ele></ele><time>2013-8-10T0:18:12Z</time></trkpt>
<trkpt lat="46.635051984339952" lon="7.160915024578571"><ele></ele><time>2013-8-10T0:18:15Z</time></trkpt>
<trkpt lat="46.634512022137642" lon="7.159801991656423"><ele></ele><time>2013-8-10T0:18:18Z</time></trkpt>
<trkpt lat="46.634430969133973" lon="7.15947400778532"><ele></ele><time>2013-8-10T0:18:21Z</time></trkpt>
<trkpt lat="46.634401967749" lon="7.159380968660116"><ele></ele><time>2013-8-10T0:18:24Z</time></trkpt>
<trkpt lat="46.634368021041155" lon="7.159295976161957"><ele></ele><time>2013-8-10T0:18:27Z</time></trkpt>
<trkpt lat="46.633728984743357" lon="7.158240024000406"><ele></ele><time>2013-8-10T0:18:30Z</time></trkpt>
<trkpt lat="46.633690008893609" lon="7.158160982653499"><ele></ele><time>2013-8-10T0:18:33Z</time></trkpt>
<trkpt lat="46.633661007508636" lon="7.158071966841817"><ele></ele><time>2013-8-10T0:18:36Z</time></trkpt>
<trkpt lat="46.6336490213871" lon="7.15797197073698"><ele></ele><time>2013-8-10T0:18:39Z</time></trkpt>
<trkpt lat="46.633652038872242" lon="7.157868035137653"><ele></ele><time>2013-8-10T0:18:42Z</time></trkpt>
<trkpt lat="46.633664024993777" lon="7.157764015719295"><ele></ele><time>2013-8-10T0:18:45Z</time></trkpt>
<trkpt lat="46.633677016943693" lon="7.157657984644175"><ele></ele><time>2013-8-10T0:18:48Z</time></trkpt>
<trkpt lat="46.633742982521653" lon="7.156764976680279"><ele></ele><time>2013-8-10T0:18:51Z</time></trkpt>
<trkpt lat="46.633728984743357" lon="7.156650982797146"><ele></ele><time>2013-8-10T0:18:54Z</time></trkpt>
<trkpt lat="46.63369101472199" lon="7.156545035541058"><ele></ele><time>2013-8-10T0:18:57Z</time></trkpt>
<trkpt lat="46.633629994466901" lon="7.156463982537389"><ele></ele><time>2013-8-10T0:19:0Z</time></trkpt>
<trkpt lat="46.633552964776754" lon="7.156420983374119"><ele></ele><time>2013-8-10T0:19:3Z</time></trkpt>
<trkpt lat="46.633469983935356" lon="7.156412014737725"><ele></ele><time>2013-8-10T0:19:6Z</time></trkpt>
<trkpt lat="46.63339102640748" lon="7.156444033607841"><ele></ele><time>2013-8-10T0:19:9Z</time></trkpt>
<trkpt lat="46.633319025859237" lon="7.156499018892646"><ele></ele><time>2013-8-10T0:19:12Z</time></trkpt>
<trkpt lat="46.633249036967754" lon="7.156558027490973"><ele></ele><time>2013-8-10T0:19:15Z</time></trkpt>
<trkpt lat="46.632952988147736" lon="7.156716026365757"><ele></ele><time>2013-8-10T0:19:18Z</time></trkpt>
<trkpt lat="46.63287797011435" lon="7.156706973910332"><ele></ele><time>2013-8-10T0:19:21Z</time></trkpt>
<trkpt lat="46.632805969566107" lon="7.156669003888965"><ele></ele><time>2013-8-10T0:19:24Z</time></trkpt>
<trkpt lat="46.632742015644908" lon="7.156619969755411"><ele></ele><time>2013-8-10T0:19:27Z</time></trkpt>
<trkpt lat="46.632680995389819" lon="7.156568001955748"><ele></ele><time>2013-8-10T0:19:30Z</time></trkpt>
<trkpt lat="46.631869040429592" lon="7.155774990096688"><ele></ele><time>2013-8-10T0:19:33Z</time></trkpt>
<trkpt lat="46.631207037717104" lon="7.155233016237617"><ele></ele><time>2013-8-10T0:19:36Z</time></trkpt>
<trkpt lat="46.631117016077042" lon="7.155161015689373"><ele></ele><time>2013-8-10T0:19:39Z</time></trkpt>
<trkpt lat="46.630595996975899" lon="7.154662040993571"><ele></ele><time>2013-8-10T0:19:42Z</time></trkpt>
<trkpt lat="46.630525002256036" lon="7.154545029625297"><ele></ele><time>2013-8-10T0:19:45Z</time></trkpt>
<trkpt lat="46.630472028627992" lon="7.154411002993584"><ele></ele><time>2013-8-10T0:19:48Z</time></trkpt>
<trkpt lat="46.630434980615973" lon="7.154264990240335"><ele></ele><time>2013-8-10T0:19:51Z</time></trkpt>
<trkpt lat="46.630401033908129" lon="7.154118977487087"><ele></ele><time>2013-8-10T0:19:54Z</time></trkpt>
<trkpt lat="46.630300031974912" lon="7.153686974197626"><ele></ele><time>2013-8-10T0:19:57Z</time></trkpt>
<trkpt lat="46.630258960649371" lon="7.153552025556564"><ele></ele><time>2013-8-10T0:20:0Z</time></trkpt>
<trkpt lat="46.630197018384933" lon="7.15343501418829"><ele></ele><time>2013-8-10T0:20:3Z</time></trkpt>
<trkpt lat="46.630108002573252" lon="7.153355972841382"><ele></ele><time>2013-8-10T0:20:6Z</time></trkpt>
<trkpt lat="46.630003983154893" lon="7.153324959799647"><ele></ele><time>2013-8-10T0:20:9Z</time></trkpt>
<trkpt lat="46.629898035898805" lon="7.153352033346891"><ele></ele><time>2013-8-10T0:20:12Z</time></trkpt>
<trkpt lat="46.629799967631698" lon="7.153433002531528"><ele></ele><time>2013-8-10T0:20:15Z</time></trkpt>
<trkpt lat="46.629713969305158" lon="7.153537021949887"><ele></ele><time>2013-8-10T0:20:18Z</time></trkpt>
<trkpt lat="46.629626965150237" lon="7.153641963377595"><ele></ele><time>2013-8-10T0:20:21Z</time></trkpt>
<trkpt lat="46.629535015672445" lon="7.153740031644702"><ele></ele><time>2013-8-10T0:20:24Z</time></trkpt>
<trkpt lat="46.629436025395989" lon="7.153819995000958"><ele></ele><time>2013-8-10T0:20:27Z</time></trkpt>
<trkpt lat="46.629327982664108" lon="7.153856959193945"><ele></ele><time>2013-8-10T0:20:30Z</time></trkpt>
<trkpt lat="46.628774022683501" lon="7.153836004436016"><ele></ele><time>2013-8-10T0:20:33Z</time></trkpt>
<trkpt lat="46.628670003265142" lon="7.153803985565901"><ele></ele><time>2013-8-10T0:20:36Z</time></trkpt>
<trkpt lat="46.628464981913567" lon="7.153710024431348"><ele></ele><time>2013-8-10T0:20:39Z</time></trkpt>
<trkpt lat="46.628368003293872" lon="7.153635006397963"><ele></ele><time>2013-8-10T0:20:42Z</time></trkpt>
<trkpt lat="46.628275969997048" lon="7.153546996414661"><ele></ele><time>2013-8-10T0:20:45Z</time></trkpt>
<trkpt lat="46.628183014690876" lon="7.153462003916502"><ele></ele><time>2013-8-10T0:20:48Z</time></trkpt>
<trkpt lat="46.628081006929278" lon="7.153400983661413"><ele></ele><time>2013-8-10T0:20:51Z</time></trkpt>
<trkpt lat="46.627972964197397" lon="7.153376005589962"><ele></ele><time>2013-8-10T0:20:54Z</time></trkpt>
<trkpt lat="46.627863999456167" lon="7.153379023075104"><ele></ele><time>2013-8-10T0:20:57Z</time></trkpt>
<trkpt lat="46.627756962552667" lon="7.153387991711497"><ele></ele><time>2013-8-10T0:21:0Z</time></trkpt>
<trkpt lat="46.627650009468198" lon="7.153382962569594"><ele></ele><time>2013-8-10T0:21:3Z</time></trkpt>
<trkpt lat="46.627543978393078" lon="7.153358990326524"><ele></ele><time>2013-8-10T0:21:6Z</time></trkpt>
<trkpt lat="46.62743903696537" lon="7.153311967849731"><ele></ele><time>2013-8-10T0:21:9Z</time></trkpt>
<trkpt lat="46.627338035032153" lon="7.153244996443391"><ele></ele><time>2013-8-10T0:21:12Z</time></trkpt>
<trkpt lat="46.627239966765046" lon="7.153163021430373"><ele></ele><time>2013-8-10T0:21:15Z</time></trkpt>
<trkpt lat="46.627146005630493" lon="7.15307199396193"><ele></ele><time>2013-8-10T0:21:18Z</time></trkpt>
<trkpt lat="46.62705497816205" lon="7.152970992028713"><ele></ele><time>2013-8-10T0:21:21Z</time></trkpt>
<trkpt lat="46.626970991492271" lon="7.152858003973961"><ele></ele><time>2013-8-10T0:21:24Z</time></trkpt>
<trkpt lat="46.626898990944028" lon="7.152730012312531"><ele></ele><time>2013-8-10T0:21:27Z</time></trkpt>
<trkpt lat="46.626845011487603" lon="7.152586011216044"><ele></ele><time>2013-8-10T0:21:30Z</time></trkpt>
<trkpt lat="46.626813998445868" lon="7.152429018169641"><ele></ele><time>2013-8-10T0:21:33Z</time></trkpt>
<trkpt lat="46.626803018152714" lon="7.152266995981336"><ele></ele><time>2013-8-10T0:21:36Z</time></trkpt>
<trkpt lat="46.626807041466236" lon="7.152101034298539"><ele></ele><time>2013-8-10T0:21:39Z</time></trkpt>
<trkpt lat="46.626805029809475" lon="7.151935994625092"><ele></ele><time>2013-8-10T0:21:42Z</time></trkpt>
<trkpt lat="46.626775022596121" lon="7.151780007407069"><ele></ele><time>2013-8-10T0:21:45Z</time></trkpt>
<trkpt lat="46.62671098485589" lon="7.151645980775356"><ele></ele><time>2013-8-10T0:21:48Z</time></trkpt>
<trkpt lat="46.626620963215828" lon="7.151541039347649"><ele></ele><time>2013-8-10T0:21:51Z</time></trkpt>
<trkpt lat="46.626519039273262" lon="7.151488987728953"><ele></ele><time>2013-8-10T0:21:54Z</time></trkpt>
<trkpt lat="46.626409990713" lon="7.151463003829122"><ele></ele><time>2013-8-10T0:21:57Z</time></trkpt>
<trkpt lat="46.625968012958765" lon="7.151354039087892"><ele></ele><time>2013-8-10T0:22:0Z</time></trkpt>
<trkpt lat="46.625858964398503" lon="7.151313973590732"><ele></ele><time>2013-8-10T0:22:3Z</time></trkpt>
<trkpt lat="46.625363007187843" lon="7.150981966406107"><ele></ele><time>2013-8-10T0:22:6Z</time></trkpt>
<trkpt lat="46.625263011083007" lon="7.150907032191753"><ele></ele><time>2013-8-10T0:22:9Z</time></trkpt>
<trkpt lat="46.624882975593209" lon="7.150577958673239"><ele></ele><time>2013-8-10T0:22:12Z</time></trkpt>
<trkpt lat="46.624805023893714" lon="7.150474023073912"><ele></ele><time>2013-8-10T0:22:15Z</time></trkpt>
<trkpt lat="46.624729000031948" lon="7.150368997827172"><ele></ele><time>2013-8-10T0:22:18Z</time></trkpt>
<trkpt lat="46.624644007533789" lon="7.150288028642535"><ele></ele><time>2013-8-10T0:22:21Z</time></trkpt>
<trkpt lat="46.624550968408585" lon="7.150231031700969"><ele></ele><time>2013-8-10T0:22:24Z</time></trkpt>
<trkpt lat="46.62445499561727" lon="7.150181997567415"><ele></ele><time>2013-8-10T0:22:27Z</time></trkpt>
<trkpt lat="46.624165987595916" lon="7.15006398037076"><ele></ele><time>2013-8-10T0:22:30Z</time></trkpt>
<trkpt lat="46.624065991491079" lon="7.150043025612831"><ele></ele><time>2013-8-10T0:22:33Z</time></trkpt>
<trkpt lat="46.623971024528146" lon="7.149992985650897"><ele></ele><time>2013-8-10T0:22:36Z</time></trkpt>
<trkpt lat="46.623893994837999" lon="7.149896007031202"><ele></ele><time>2013-8-10T0:22:39Z</time></trkpt>
<trkpt lat="46.6238300409168" lon="7.149776984006166"><ele></ele><time>2013-8-10T0:22:42Z</time></trkpt>
<trkpt lat="46.623761979863048" lon="7.149663995951414"><ele></ele><time>2013-8-10T0:22:45Z</time></trkpt>
<trkpt lat="46.623697020113468" lon="7.149546984583139"><ele></ele><time>2013-8-10T0:22:48Z</time></trkpt>
<trkpt lat="46.623640023171902" lon="7.149415975436568"><ele></ele><time>2013-8-10T0:22:51Z</time></trkpt>
<trkpt lat="46.623593000695109" lon="7.149270968511701"><ele></ele><time>2013-8-10T0:22:54Z</time></trkpt>
<trkpt lat="46.623556036502123" lon="7.149119004607201"><ele></ele><time>2013-8-10T0:22:57Z</time></trkpt>
<trkpt lat="46.623521000146866" lon="7.148963017389178"><ele></ele><time>2013-8-10T0:23:0Z</time></trkpt>
<trkpt lat="46.623474983498454" lon="7.148813987150788"><ele></ele><time>2013-8-10T0:23:3Z</time></trkpt>
<trkpt lat="46.623404994606972" lon="7.148693036288023"><ele></ele><time>2013-8-10T0:23:6Z</time></trkpt>
<trkpt lat="46.623309021815658" lon="7.148607037961483"><ele></ele><time>2013-8-10T0:23:9Z</time></trkpt>
<trkpt lat="46.623203996568918" lon="7.148553980514407"><ele></ele><time>2013-8-10T0:23:12Z</time></trkpt>
<trkpt lat="46.623096959665418" lon="7.148531014099717"><ele></ele><time>2013-8-10T0:23:15Z</time></trkpt>
<trkpt lat="46.62299201823771" lon="7.148506036028266"><ele></ele><time>2013-8-10T0:23:18Z</time></trkpt>
<trkpt lat="46.622886992990971" lon="7.148492038249969"><ele></ele><time>2013-8-10T0:23:21Z</time></trkpt>
<trkpt lat="46.622781967744231" lon="7.148503018543124"><ele></ele><time>2013-8-10T0:23:24Z</time></trkpt>
<trkpt lat="46.622676020488143" lon="7.148533025756478"><ele></ele><time>2013-8-10T0:23:27Z</time></trkpt>
<trkpt lat="46.622570995241404" lon="7.148579964414239"><ele></ele><time>2013-8-10T0:23:30Z</time></trkpt>
<trkpt lat="46.622467981651425" lon="7.148631010204554"><ele></ele><time>2013-8-10T0:23:33Z</time></trkpt>
<trkpt lat="46.622066991403699" lon="7.148738969117403"><ele></ele><time>2013-8-10T0:23:36Z</time></trkpt>
<trkpt lat="46.621965989470482" lon="7.148765036836267"><ele></ele><time>2013-8-10T0:23:39Z</time></trkpt>
<trkpt lat="46.621869010850787" lon="7.148809041827917"><ele></ele><time>2013-8-10T0:23:42Z</time></trkpt>
<trkpt lat="46.621586037799716" lon="7.148957988247275"><ele></ele><time>2013-8-10T0:23:45Z</time></trkpt>
<trkpt lat="46.621494004502892" lon="7.148991012945771"><ele></ele><time>2013-8-10T0:23:48Z</time></trkpt>
<trkpt lat="46.621404988691211" lon="7.149010039865971"><ele></ele><time>2013-8-10T0:23:51Z</time></trkpt>
<trkpt lat="46.62131798453629" lon="7.14900903403759"><ele></ele><time>2013-8-10T0:23:54Z</time></trkpt>
<trkpt lat="46.621237015351653" lon="7.148970980197191"><ele></ele><time>2013-8-10T0:23:57Z</time></trkpt>
<trkpt lat="46.621051020920277" lon="7.148866038769484"><ele></ele><time>2013-8-10T0:24:0Z</time></trkpt>
<trkpt lat="46.621023025363684" lon="7.148795966058969"><ele></ele><time>2013-8-10T0:24:3Z</time></trkpt>
<trkpt lat="46.621005004271865" lon="7.148724971339107"><ele></ele><time>2013-8-10T0:24:6Z</time></trkpt>
<trkpt lat="46.620982037857175" lon="7.148665962740779"><ele></ele><time>2013-8-10T0:24:9Z</time></trkpt>
<trkpt lat="46.620960999280214" lon="7.148617012426257"><ele></ele><time>2013-8-10T0:24:12Z</time></trkpt>
<trkpt lat="46.620949013158679" lon="7.148588011041284"><ele></ele><time>2013-8-10T0:24:15Z</time></trkpt>
<trkpt lat="46.620939960703254" lon="7.148574013262987"><ele></ele><time>2013-8-10T0:24:18Z</time></trkpt>
<trkpt lat="46.620925040915608" lon="7.148564038798213"><ele></ele><time>2013-8-10T0:24:21Z</time></trkpt>
<trkpt lat="46.620909031480551" lon="7.148553980514407"><ele></ele><time>2013-8-10T0:24:24Z</time></trkpt>
<trkpt lat="46.620895033702254" lon="7.14853797107935"><ele></ele><time>2013-8-10T0:24:27Z</time></trkpt>
<trkpt lat="46.620881035923958" lon="7.148519027978182"><ele></ele><time>2013-8-10T0:24:30Z</time></trkpt>
<trkpt lat="46.620619017630816" lon="7.148101022467017"><ele></ele><time>2013-8-10T0:24:33Z</time></trkpt>
<trkpt lat="46.620503012090921" lon="7.147889966145158"><ele></ele><time>2013-8-10T0:24:36Z</time></trkpt>
<trkpt lat="46.620312994346023" lon="7.147589977830648"><ele></ele><time>2013-8-10T0:24:39Z</time></trkpt>
<trkpt lat="46.620236970484257" lon="7.14750699698925"><ele></ele><time>2013-8-10T0:24:42Z</time></trkpt>
<trkpt lat="46.620195982977748" lon="7.147473972290754"><ele></ele><time>2013-8-10T0:24:45Z</time></trkpt>
<trkpt lat="46.619654009118676" lon="7.147193010896444"><ele></ele><time>2013-8-10T0:24:48Z</time></trkpt>
<trkpt lat="46.619607992470264" lon="7.147152023389935"><ele></ele><time>2013-8-10T0:24:51Z</time></trkpt>
<trkpt lat="46.619564993306994" lon="7.147102989256382"><ele></ele><time>2013-8-10T0:24:54Z</time></trkpt>
<trkpt lat="46.619530040770769" lon="7.147045992314816"><ele></ele><time>2013-8-10T0:24:57Z</time></trkpt>
<trkpt lat="46.619501961395144" lon="7.146984972059727"><ele></ele><time>2013-8-10T0:25:0Z</time></trkpt>
<trkpt lat="46.619476983323693" lon="7.146918000653386"><ele></ele><time>2013-8-10T0:25:3Z</time></trkpt>
<trkpt lat="46.619457034394145" lon="7.146844994276762"><ele></ele><time>2013-8-10T0:25:6Z</time></trkpt>
<trkpt lat="46.619443036615849" lon="7.146771987900138"><ele></ele><time>2013-8-10T0:25:9Z</time></trkpt>
<trkpt lat="46.619359971955419" lon="7.146116020157933"><ele></ele><time>2013-8-10T0:25:12Z</time></trkpt>
<trkpt lat="46.619335999712348" lon="7.146048964932561"><ele></ele><time>2013-8-10T0:25:15Z</time></trkpt>
<trkpt lat="46.619212031364441" lon="7.145799016579986"><ele></ele><time>2013-8-10T0:25:18Z</time></trkpt>
<trkpt lat="46.619143970310688" lon="7.145682005211711"><ele></ele><time>2013-8-10T0:25:21Z</time></trkpt>
<trkpt lat="46.618885975331068" lon="7.145182024687529"><ele></ele><time>2013-8-10T0:25:24Z</time></trkpt>
<trkpt lat="46.618856973946095" lon="7.145123016089201"><ele></ele><time>2013-8-10T0:25:27Z</time></trkpt>
<trkpt lat="46.618791008368134" lon="7.145012961700559"><ele></ele><time>2013-8-10T0:25:30Z</time></trkpt>
<trkpt lat="46.618635021150112" lon="7.144811041653156"><ele></ele><time>2013-8-10T0:25:33Z</time></trkpt>
<trkpt lat="46.61858799867332" lon="7.144765025004745"><ele></ele><time>2013-8-10T0:25:36Z</time></trkpt>
<trkpt lat="46.618538964539766" lon="7.144720014184713"><ele></ele><time>2013-8-10T0:25:39Z</time></trkpt>
<trkpt lat="46.618193965405226" lon="7.144403010606766"><ele></ele><time>2013-8-10T0:25:42Z</time></trkpt>
<trkpt lat="46.618104027584195" lon="7.144291028380394"><ele></ele><time>2013-8-10T0:25:45Z</time></trkpt>
<trkpt lat="46.617981987074018" lon="7.144087012857199"><ele></ele><time>2013-8-10T0:25:48Z</time></trkpt>
<trkpt lat="46.617947034537792" lon="7.144014006480575"><ele></ele><time>2013-8-10T0:25:51Z</time></trkpt>
<trkpt lat="46.617373041808605" lon="7.142375009134412"><ele></ele><time>2013-8-10T0:25:54Z</time></trkpt>
<trkpt lat="46.616953024640679" lon="7.140948995947838"><ele></ele><time>2013-8-10T0:25:57Z</time></trkpt>
<trkpt lat="46.616961993277073" lon="7.139731021597981"><ele></ele><time>2013-8-10T0:26:0Z</time></trkpt>
<trkpt lat="46.61704296246171" lon="7.139495993033051"><ele></ele><time>2013-8-10T0:26:3Z</time></trkpt>
<trkpt lat="46.617421992123127" lon="7.138661993667483"><ele></ele><time>2013-8-10T0:26:6Z</time></trkpt>
<trkpt lat="46.617435989901423" lon="7.138579012826085"><ele></ele><time>2013-8-10T0:26:9Z</time></trkpt>
<trkpt lat="46.617445964366198" lon="7.138493014499545"><ele></ele><time>2013-8-10T0:26:12Z</time></trkpt>
<trkpt lat="46.617453005164862" lon="7.138405004516244"><ele></ele><time>2013-8-10T0:26:15Z</time></trkpt>
<trkpt lat="46.617457028478384" lon="7.138316994532943"><ele></ele><time>2013-8-10T0:26:18Z</time></trkpt>
<trkpt lat="46.617458034306765" lon="7.138229990378022"><ele></ele><time>2013-8-10T0:26:21Z</time></trkpt>
<trkpt lat="46.617354014888406" lon="7.136910008266568"><ele></ele><time>2013-8-10T0:26:24Z</time></trkpt>
<trkpt lat="46.617281008511782" lon="7.136522009968758"><ele></ele><time>2013-8-10T0:26:27Z</time></trkpt>
<trkpt lat="46.61725795827806" lon="7.136450009420514"><ele></ele><time>2013-8-10T0:26:30Z</time></trkpt>
<trkpt lat="46.617230968549848" lon="7.136381026357412"><ele></ele><time>2013-8-10T0:26:33Z</time></trkpt>
<trkpt lat="46.617098031565547" lon="7.136134011670947"><ele></ele><time>2013-8-10T0:26:36Z</time></trkpt>
<trkpt lat="46.616491014137864" lon="7.135510984808207"><ele></ele><time>2013-8-10T0:26:39Z</time></trkpt>
<trkpt lat="46.616453966125846" lon="7.135461028665304"><ele></ele><time>2013-8-10T0:26:42Z</time></trkpt>
<trkpt lat="46.616011988371611" lon="7.134587969630957"><ele></ele><time>2013-8-10T0:26:45Z</time></trkpt>
<trkpt lat="46.615572022274137" lon="7.133680041879416"><ele></ele><time>2013-8-10T0:26:48Z</time></trkpt>
<trkpt lat="46.615550983697176" lon="7.133621033281088"><ele></ele><time>2013-8-10T0:26:51Z</time></trkpt>
<trkpt lat="46.615355014801025" lon="7.132654013112187"><ele></ele><time>2013-8-10T0:26:54Z</time></trkpt>
<trkpt lat="46.615331964567304" lon="7.132523003965616"><ele></ele><time>2013-8-10T0:26:57Z</time></trkpt>
<trkpt lat="46.615314027294517" lon="7.132457960397005"><ele></ele><time>2013-8-10T0:27:0Z</time></trkpt>
<trkpt lat="46.615209002047777" lon="7.132163001224399"><ele></ele><time>2013-8-10T0:27:3Z</time></trkpt>
<trkpt lat="46.615077992901206" lon="7.131433021277189"><ele></ele><time>2013-8-10T0:27:6Z</time></trkpt>
<trkpt lat="46.615062989294529" lon="7.131379041820765"><ele></ele><time>2013-8-10T0:27:9Z</time></trkpt>
<trkpt lat="46.615026025101542" lon="7.131279967725277"><ele></ele><time>2013-8-10T0:27:12Z</time></trkpt>
<trkpt lat="46.614704998210073" lon="7.130887024104595"><ele></ele><time>2013-8-10T0:27:15Z</time></trkpt>
<trkpt lat="46.614447003230453" lon="7.130591981112957"><ele></ele><time>2013-8-10T0:27:18Z</time></trkpt>
<trkpt lat="46.614294033497572" lon="7.130443034693599"><ele></ele><time>2013-8-10T0:27:21Z</time></trkpt>
<trkpt lat="46.614070991054177" lon="7.130119996145368"><ele></ele><time>2013-8-10T0:27:24Z</time></trkpt>
<trkpt lat="46.613692967221141" lon="7.12952496483922"><ele></ele><time>2013-8-10T0:27:27Z</time></trkpt>
<trkpt lat="46.613604035228491" lon="7.129376018419862"><ele></ele><time>2013-8-10T0:27:30Z</time></trkpt>
<trkpt lat="46.61355902440846" lon="7.129301000386477"><ele></ele><time>2013-8-10T0:27:33Z</time></trkpt>
<trkpt lat="46.613168008625507" lon="7.128697000443935"><ele></ele><time>2013-8-10T0:27:36Z</time></trkpt>
<trkpt lat="46.612624023109674" lon="7.127809021621943"><ele></ele><time>2013-8-10T0:27:39Z</time></trkpt>
<trkpt lat="46.61246501840651" lon="7.127471985295415"><ele></ele><time>2013-8-10T0:27:42Z</time></trkpt>
<trkpt lat="46.612162012606859" lon="7.126528015360236"><ele></ele><time>2013-8-10T0:27:45Z</time></trkpt>
<trkpt lat="46.61194802261889" lon="7.125881016254425"><ele></ele><time>2013-8-10T0:27:48Z</time></trkpt>
<trkpt lat="46.61184299737215" lon="7.125552026554942"><ele></ele><time>2013-8-10T0:27:51Z</time></trkpt>
<trkpt lat="46.611501015722752" lon="7.124523986130953"><ele></ele><time>2013-8-10T0:27:54Z</time></trkpt>
<trkpt lat="46.611424991860986" lon="7.12428099475801"><ele></ele><time>2013-8-10T0:27:57Z</time></trkpt>
<trkpt lat="46.611191974952817" lon="7.123542968183756"><ele></ele><time>2013-8-10T0:28:0Z</time></trkpt>
<trkpt lat="46.610993994399905" lon="7.122923964634538"><ele></ele><time>2013-8-10T0:28:3Z</time></trkpt>
<trkpt lat="46.610830966383219" lon="7.122408980503678"><ele></ele><time>2013-8-10T0:28:6Z</time></trkpt>
<trkpt lat="46.610542964190245" lon="7.12150901556015"><ele></ele><time>2013-8-10T0:28:9Z</time></trkpt>
<trkpt lat="46.610453026369214" lon="7.121234005317092"><ele></ele><time>2013-8-10T0:28:12Z</time></trkpt>
<trkpt lat="46.610321011394262" lon="7.120836032554507"><ele></ele><time>2013-8-10T0:28:15Z</time></trkpt>
<trkpt lat="46.610026974231005" lon="7.119926009327173"><ele></ele><time>2013-8-10T0:28:18Z</time></trkpt>
<trkpt lat="46.609732015058398" lon="7.11901699192822"><ele></ele><time>2013-8-10T0:28:21Z</time></trkpt>
<trkpt lat="46.609321972355247" lon="7.117879986763"><ele></ele><time>2013-8-10T0:28:24Z</time></trkpt>
<trkpt lat="46.60913597792387" lon="7.11738302372396"><ele></ele><time>2013-8-10T0:28:27Z</time></trkpt>
<trkpt lat="46.608797013759613" lon="7.116667963564396"><ele></ele><time>2013-8-10T0:28:30Z</time></trkpt>
<trkpt lat="46.608730964362621" lon="7.116555981338024"><ele></ele><time>2013-8-10T0:28:33Z</time></trkpt>
<trkpt lat="46.608436005190015" lon="7.116096988320351"><ele></ele><time>2013-8-10T0:28:36Z</time></trkpt>
<trkpt lat="46.608220003545284" lon="7.115726005285978"><ele></ele><time>2013-8-10T0:28:39Z</time></trkpt>
<trkpt lat="46.608162000775337" lon="7.115582004189491"><ele></ele><time>2013-8-10T0:28:42Z</time></trkpt>
<trkpt lat="46.608117995783687" lon="7.115422999486327"><ele></ele><time>2013-8-10T0:28:45Z</time></trkpt>
<trkpt lat="46.608098968863487" lon="7.115248991176486"><ele></ele><time>2013-8-10T0:28:48Z</time></trkpt>
<trkpt lat="46.60810299217701" lon="7.115074982866645"><ele></ele><time>2013-8-10T0:28:51Z</time></trkpt>
<trkpt lat="46.608114978298545" lon="7.114898040890694"><ele></ele><time>2013-8-10T0:28:54Z</time></trkpt>
<trkpt lat="46.608230983838439" lon="7.114207958802581"><ele></ele><time>2013-8-10T0:28:57Z</time></trkpt>
<trkpt lat="46.608268031850457" lon="7.114037973806262"><ele></ele><time>2013-8-10T0:29:0Z</time></trkpt>
<trkpt lat="46.608373979106545" lon="7.113540004938841"><ele></ele><time>2013-8-10T0:29:3Z</time></trkpt>
<trkpt lat="46.608394011855125" lon="7.113369014114141"><ele></ele><time>2013-8-10T0:29:6Z</time></trkpt>
<trkpt lat="46.608388982713223" lon="7.113206991925836"><ele></ele><time>2013-8-10T0:29:9Z</time></trkpt>
<trkpt lat="46.608345983549953" lon="7.113067014142871"><ele></ele><time>2013-8-10T0:29:12Z</time></trkpt>
<trkpt lat="46.608269037678838" lon="7.112954026088119"><ele></ele><time>2013-8-10T0:29:15Z</time></trkpt>
<trkpt lat="46.60816602408886" lon="7.112884959205985"><ele></ele><time>2013-8-10T0:29:18Z</time></trkpt>
<trkpt lat="46.608050018548965" lon="7.112874984741211"><ele></ele><time>2013-8-10T0:29:21Z</time></trkpt>
<trkpt lat="46.607940969988704" lon="7.112932987511158"><ele></ele><time>2013-8-10T0:29:24Z</time></trkpt>
<trkpt lat="46.607835022732615" lon="7.113017980009317"><ele></ele><time>2013-8-10T0:29:27Z</time></trkpt>
<trkpt lat="46.607725974172354" lon="7.113106995820999"><ele></ele><time>2013-8-10T0:29:30Z</time></trkpt>
<trkpt lat="46.607392961159348" lon="7.113383011892438"><ele></ele><time>2013-8-10T0:29:33Z</time></trkpt>
<trkpt lat="46.60705198533833" lon="7.11366799660027"><ele></ele><time>2013-8-10T0:29:36Z</time></trkpt>
<trkpt lat="46.606646971777081" lon="7.114166971296072"><ele></ele><time>2013-8-10T0:29:39Z</time></trkpt>
<trkpt lat="46.606580000370741" lon="7.114331005141139"><ele></ele><time>2013-8-10T0:29:42Z</time></trkpt>
<trkpt lat="46.606533983722329" lon="7.114510964602232"><ele></ele><time>2013-8-10T0:29:45Z</time></trkpt>
<trkpt lat="46.606510011479259" lon="7.114700982347131"><ele></ele><time>2013-8-10T0:29:48Z</time></trkpt>
<trkpt lat="46.60651202313602" lon="7.114898040890694"><ele></ele><time>2013-8-10T0:29:51Z</time></trkpt>
<trkpt lat="46.60653498955071" lon="7.115091998130083"><ele></ele><time>2013-8-10T0:29:54Z</time></trkpt>
<trkpt lat="46.606570025905967" lon="7.115270029753447"><ele></ele><time>2013-8-10T0:29:57Z</time></trkpt>
<trkpt lat="46.606610007584095" lon="7.115429034456611"><ele></ele><time>2013-8-10T0:30:0Z</time></trkpt>
<trkpt lat="46.606639008969069" lon="7.115571023896337"><ele></ele><time>2013-8-10T0:30:3Z</time></trkpt>
<trkpt lat="46.606644038110971" lon="7.115704966709018"><ele></ele><time>2013-8-10T0:30:6Z</time></trkpt>
<trkpt lat="46.606625011190772" lon="7.115823989734054"><ele></ele><time>2013-8-10T0:30:9Z</time></trkpt>
<trkpt lat="46.606576982885599" lon="7.115917028859258"><ele></ele><time>2013-8-10T0:30:12Z</time></trkpt>
<trkpt lat="46.606503976508975" lon="7.11596698500216"><ele></ele><time>2013-8-10T0:30:15Z</time></trkpt>
<trkpt lat="46.606420995667577" lon="7.115953993052244"><ele></ele><time>2013-8-10T0:30:18Z</time></trkpt>
<trkpt lat="46.606355030089617" lon="7.115875035524368"><ele></ele><time>2013-8-10T0:30:21Z</time></trkpt>
<trkpt lat="46.606318987905979" lon="7.115755006670952"><ele></ele><time>2013-8-10T0:30:24Z</time></trkpt>
<trkpt lat="46.606303984299302" lon="7.115616034716368"><ele></ele><time>2013-8-10T0:30:27Z</time></trkpt>
<trkpt lat="46.606295015662909" lon="7.1154710277915"><ele></ele><time>2013-8-10T0:30:30Z</time></trkpt>
<trkpt lat="46.60627800039947" lon="7.11482604034245"><ele></ele><time>2013-8-10T0:30:33Z</time></trkpt>
<trkpt lat="46.60627800039947" lon="7.114475006237626"><ele></ele><time>2013-8-10T0:30:36Z</time></trkpt>
<trkpt lat="46.60629803314805" lon="7.114296974614263"><ele></ele><time>2013-8-10T0:30:39Z</time></trkpt>
<trkpt lat="46.606339020654559" lon="7.114124977961183"><ele></ele><time>2013-8-10T0:30:42Z</time></trkpt>
<trkpt lat="46.606400962918997" lon="7.113964967429638"><ele></ele><time>2013-8-10T0:30:45Z</time></trkpt>
<trkpt lat="46.606481010094285" lon="7.11381996050477"><ele></ele><time>2013-8-10T0:30:48Z</time></trkpt>
<trkpt lat="46.606568014249206" lon="7.113684006035328"><ele></ele><time>2013-8-10T0:30:51Z</time></trkpt>
<trkpt lat="46.606743028387427" lon="7.113413019105792"><ele></ele><time>2013-8-10T0:30:54Z</time></trkpt>
<trkpt lat="46.60700798034668" lon="7.112999958917499"><ele></ele><time>2013-8-10T0:30:57Z</time></trkpt>
<trkpt lat="46.607089033350348" lon="7.112852018326521"><ele></ele><time>2013-8-10T0:31:0Z</time></trkpt>
<trkpt lat="46.607160028070211" lon="7.112693013623357"><ele></ele><time>2013-8-10T0:31:3Z</time></trkpt>
<trkpt lat="46.607311991974711" lon="7.112368969246745"><ele></ele><time>2013-8-10T0:31:6Z</time></trkpt>
<trkpt lat="46.607412993907928" lon="7.112241983413696"><ele></ele><time>2013-8-10T0:31:9Z</time></trkpt>
<trkpt lat="46.607531011104584" lon="7.112149028107524"><ele></ele><time>2013-8-10T0:31:12Z</time></trkpt>
<trkpt lat="46.607661014422774" lon="7.112090019509196"><ele></ele><time>2013-8-10T0:31:15Z</time></trkpt>
<trkpt lat="46.607793029397726" lon="7.112048026174307"><ele></ele><time>2013-8-10T0:31:18Z</time></trkpt>
<trkpt lat="46.608331985771656" lon="7.11188499815762"><ele></ele><time>2013-8-10T0:31:21Z</time></trkpt>
<trkpt lat="46.608755020424724" lon="7.111830012872815"><ele></ele><time>2013-8-10T0:31:24Z</time></trkpt>
<trkpt lat="46.609321972355247" lon="7.111895978450775"><ele></ele><time>2013-8-10T0:31:27Z</time></trkpt>
<trkpt lat="46.609458010643721" lon="7.111937971785665"><ele></ele><time>2013-8-10T0:31:30Z</time></trkpt>
<trkpt lat="46.610119007527828" lon="7.112256987020373"><ele></ele><time>2013-8-10T0:31:33Z</time></trkpt>
<trkpt lat="46.610245993360877" lon="7.112340973690152"><ele></ele><time>2013-8-10T0:31:36Z</time></trkpt>
<trkpt lat="46.610611025243998" lon="7.112631993368268"><ele></ele><time>2013-8-10T0:31:39Z</time></trkpt>
<trkpt lat="46.611763034015894" lon="7.113321991637349"><ele></ele><time>2013-8-10T0:31:42Z</time></trkpt>
<trkpt lat="46.613186029717326" lon="7.113632960245013"><ele></ele><time>2013-8-10T0:31:45Z</time></trkpt>
<trkpt lat="46.614371985197067" lon="7.113382006064057"><ele></ele><time>2013-8-10T0:31:48Z</time></trkpt>
<trkpt lat="46.615399019792676" lon="7.11306600831449"><ele></ele><time>2013-8-10T0:31:51Z</time></trkpt>
<trkpt lat="46.616326980292797" lon="7.112583965063095"><ele></ele><time>2013-8-10T0:31:54Z</time></trkpt>
<trkpt lat="46.61721202544868" lon="7.112202001735568"><ele></ele><time>2013-8-10T0:31:57Z</time></trkpt>
<trkpt lat="46.618013000115752" lon="7.112189009785652"><ele></ele><time>2013-8-10T0:32:0Z</time></trkpt>
<trkpt lat="46.618764018639922" lon="7.112397970631719"><ele></ele><time>2013-8-10T0:32:3Z</time></trkpt>
<trkpt lat="46.618895027786493" lon="7.112428983673453"><ele></ele><time>2013-8-10T0:32:6Z</time></trkpt>
<trkpt lat="46.619561975821853" lon="7.112577008083463"><ele></ele><time>2013-8-10T0:32:9Z</time></trkpt>
<trkpt lat="46.620033960789442" lon="7.112684966996312"><ele></ele><time>2013-8-10T0:32:12Z</time></trkpt>
<trkpt lat="46.62062899209559" lon="7.112731989473104"><ele></ele><time>2013-8-10T0:32:15Z</time></trkpt>
<trkpt lat="46.620891010388732" lon="7.11282997392118"><ele></ele><time>2013-8-10T0:32:18Z</time></trkpt>
<trkpt lat="46.620979020372033" lon="7.112840032204986"><ele></ele><time>2013-8-10T0:32:21Z</time></trkpt>
<trkpt lat="46.621024031192064" lon="7.112831985577941"><ele></ele><time>2013-8-10T0:32:24Z</time></trkpt>
<trkpt lat="46.621069964021444" lon="7.112816981971264"><ele></ele><time>2013-8-10T0:32:27Z</time></trkpt>
<trkpt lat="46.621112963184714" lon="7.112799966707826"><ele></ele><time>2013-8-10T0:32:30Z</time></trkpt>
<trkpt lat="46.621158979833126" lon="7.112773982807994"><ele></ele><time>2013-8-10T0:32:33Z</time></trkpt>
<trkpt lat="46.621203990653157" lon="7.11274397559464"><ele></ele><time>2013-8-10T0:32:36Z</time></trkpt>
<trkpt lat="46.621247995644808" lon="7.112713968381286"><ele></ele><time>2013-8-10T0:32:39Z</time></trkpt>
<trkpt lat="46.62129401229322" lon="7.112683039158583"><ele></ele><time>2013-8-10T0:32:42Z</time></trkpt>
<trkpt lat="46.621344974264503" lon="7.112655965611339"><ele></ele><time>2013-8-10T0:32:45Z</time></trkpt>
<trkpt lat="46.622123988345265" lon="7.112353965640068"><ele></ele><time>2013-8-10T0:32:48Z</time></trkpt>
<trkpt lat="46.622714996337891" lon="7.112105023115873"><ele></ele><time>2013-8-10T0:32:51Z</time></trkpt>
<trkpt lat="46.622935021296144" lon="7.111901007592678"><ele></ele><time>2013-8-10T0:32:54Z</time></trkpt>
<trkpt lat="46.622985983267426" lon="7.111833030357957"><ele></ele><time>2013-8-10T0:32:57Z</time></trkpt>
<trkpt lat="46.623682016506791" lon="7.110687978565693"><ele></ele><time>2013-8-10T0:33:0Z</time></trkpt>
<trkpt lat="46.624255003407598" lon="7.109860014170408"><ele></ele><time>2013-8-10T0:33:3Z</time></trkpt>
<trkpt lat="46.624557003378868" lon="7.109588021412492"><ele></ele><time>2013-8-10T0:33:6Z</time></trkpt>
<trkpt lat="46.625583032146096" lon="7.109169010072947"><ele></ele><time>2013-8-10T0:33:9Z</time></trkpt>
<trkpt lat="46.626305971294641" lon="7.108950996771455"><ele></ele><time>2013-8-10T0:33:12Z</time></trkpt>
<trkpt lat="46.627329988405108" lon="7.108733989298344"><ele></ele><time>2013-8-10T0:33:15Z</time></trkpt>
<trkpt lat="46.628521978855133" lon="7.108759973198175"><ele></ele><time>2013-8-10T0:33:18Z</time></trkpt>
<trkpt lat="46.629672981798649" lon="7.108754022046924"><ele></ele><time>2013-8-10T0:33:21Z</time></trkpt>
<trkpt lat="46.630563978105783" lon="7.108671963214874"><ele></ele><time>2013-8-10T0:33:24Z</time></trkpt>
<trkpt lat="46.631462015211582" lon="7.108498960733414"><ele></ele><time>2013-8-10T0:33:27Z</time></trkpt>
<trkpt lat="46.631774995476007" lon="7.108441963791847"><ele></ele><time>2013-8-10T0:33:30Z</time></trkpt>
<trkpt lat="46.63255300372839" lon="7.108568027615547"><ele></ele><time>2013-8-10T0:33:33Z</time></trkpt>
<trkpt lat="46.632610000669956" lon="7.108584959059954"><ele></ele><time>2013-8-10T0:33:36Z</time></trkpt>
<trkpt lat="46.633479036390781" lon="7.108712028712034"><ele></ele><time>2013-8-10T0:33:39Z</time></trkpt>
<trkpt lat="46.634527025744319" lon="7.108799032866955"><ele></ele><time>2013-8-10T0:33:42Z</time></trkpt>
<trkpt lat="46.634817039594054" lon="7.108841026201844"><ele></ele><time>2013-8-10T0:33:45Z</time></trkpt>
<trkpt lat="46.635435959324241" lon="7.108901962637901"><ele></ele><time>2013-8-10T0:33:48Z</time></trkpt>
<trkpt lat="46.635517012327909" lon="7.108907997608185"><ele></ele><time>2013-8-10T0:33:51Z</time></trkpt>
<trkpt lat="46.636022021993995" lon="7.108912020921707"><ele></ele><time>2013-8-10T0:33:54Z</time></trkpt>
<trkpt lat="46.636882005259395" lon="7.108743963763118"><ele></ele><time>2013-8-10T0:33:57Z</time></trkpt>
<trkpt lat="46.637156009674072" lon="7.108676992356777"><ele></ele><time>2013-8-10T0:34:0Z</time></trkpt>
<trkpt lat="46.637550964951515" lon="7.108588982373476"><ele></ele><time>2013-8-10T0:34:3Z</time></trkpt>
<trkpt lat="46.637862017378211" lon="7.108525028452277"><ele></ele><time>2013-8-10T0:34:6Z</time></trkpt>
<trkpt lat="46.638385970145464" lon="7.108352025970817"><ele></ele><time>2013-8-10T0:34:9Z</time></trkpt>
<trkpt lat="46.639368999749422" lon="7.107826983556151"><ele></ele><time>2013-8-10T0:34:12Z</time></trkpt>
<trkpt lat="46.640254966914654" lon="7.107529006898403"><ele></ele><time>2013-8-10T0:34:15Z</time></trkpt>
<trkpt lat="46.640574987977743" lon="7.10750101134181"><ele></ele><time>2013-8-10T0:34:18Z</time></trkpt>
<trkpt lat="46.641528010368347" lon="7.107537975534797"><ele></ele><time>2013-8-10T0:34:21Z</time></trkpt>
<trkpt lat="46.642480026930571" lon="7.107597989961505"><ele></ele><time>2013-8-10T0:34:24Z</time></trkpt>
<trkpt lat="46.643387032672763" lon="7.107655992731452"><ele></ele><time>2013-8-10T0:34:27Z</time></trkpt>
<trkpt lat="46.644239975139499" lon="7.107616011053324"><ele></ele><time>2013-8-10T0:34:30Z</time></trkpt>
<trkpt lat="46.645141029730439" lon="7.107304958626628"><ele></ele><time>2013-8-10T0:34:33Z</time></trkpt>
<trkpt lat="46.645856006070971" lon="7.107165986672044"><ele></ele><time>2013-8-10T0:34:36Z</time></trkpt>
<trkpt lat="46.646354980766773" lon="7.10711401887238"><ele></ele><time>2013-8-10T0:34:39Z</time></trkpt>
<trkpt lat="46.647016983479261" lon="7.107224995270371"><ele></ele><time>2013-8-10T0:34:42Z</time></trkpt>
<trkpt lat="46.647891970351338" lon="7.107408978044987"><ele></ele><time>2013-8-10T0:34:45Z</time></trkpt>
<trkpt lat="46.648948006331921" lon="7.107530012726784"><ele></ele><time>2013-8-10T0:34:48Z</time></trkpt>
<trkpt lat="46.650142008438706" lon="7.107535963878036"><ele></ele><time>2013-8-10T0:34:51Z</time></trkpt>
<trkpt lat="46.651258980855346" lon="7.107106978073716"><ele></ele><time>2013-8-10T0:34:54Z</time></trkpt>
<trkpt lat="46.651333998888731" lon="7.10707001388073"><ele></ele><time>2013-8-10T0:34:57Z</time></trkpt>
<trkpt lat="46.651409016922116" lon="7.107030032202601"><ele></ele><time>2013-8-10T0:35:0Z</time></trkpt>
<trkpt lat="46.652606958523393" lon="7.106399964541197"><ele></ele><time>2013-8-10T0:35:3Z</time></trkpt>
<trkpt lat="46.653636004775763" lon="7.105853967368603"><ele></ele><time>2013-8-10T0:35:6Z</time></trkpt>
<trkpt lat="46.654649041593075" lon="7.105336971580982"><ele></ele><time>2013-8-10T0:35:9Z</time></trkpt>
<trkpt lat="46.655703987926245" lon="7.104981997981668"><ele></ele><time>2013-8-10T0:35:12Z</time></trkpt>
<trkpt lat="46.657042996957898" lon="7.104973029345274"><ele></ele><time>2013-8-10T0:35:15Z</time></trkpt>
<trkpt lat="46.658125016838312" lon="7.105303024873137"><ele></ele><time>2013-8-10T0:35:18Z</time></trkpt>
<trkpt lat="46.659092037007213" lon="7.10571801289916"><ele></ele><time>2013-8-10T0:35:21Z</time></trkpt>
<trkpt lat="46.659161020070314" lon="7.105776015669107"><ele></ele><time>2013-8-10T0:35:24Z</time></trkpt>
<trkpt lat="46.659222962334752" lon="7.105848016217351"><ele></ele><time>2013-8-10T0:35:27Z</time></trkpt>
<trkpt lat="46.659284988418221" lon="7.105907024815679"><ele></ele><time>2013-8-10T0:35:30Z</time></trkpt>
<trkpt lat="46.659351037815213" lon="7.105929991230369"><ele></ele><time>2013-8-10T0:35:33Z</time></trkpt>
<trkpt lat="46.659413985908031" lon="7.105896966531873"><ele></ele><time>2013-8-10T0:35:36Z</time></trkpt>
<trkpt lat="46.659455979242921" lon="7.105817003175616"><ele></ele><time>2013-8-10T0:35:39Z</time></trkpt>
<trkpt lat="46.659462014213204" lon="7.105720024555922"><ele></ele><time>2013-8-10T0:35:42Z</time></trkpt>
<trkpt lat="46.659434018656611" lon="7.105628997087479"><ele></ele><time>2013-8-10T0:35:45Z</time></trkpt>
<trkpt lat="46.659396970644593" lon="7.105547022074461"><ele></ele><time>2013-8-10T0:35:48Z</time></trkpt>
<trkpt lat="46.659372998401523" lon="7.105454988777637"><ele></ele><time>2013-8-10T0:35:51Z</time></trkpt>
<trkpt lat="46.659364029765129" lon="7.10535398684442"><ele></ele><time>2013-8-10T0:35:54Z</time></trkpt>
<trkpt lat="46.659362018108368" lon="7.105248039588332"><ele></ele><time>2013-8-10T0:35:57Z</time></trkpt>
<trkpt lat="46.65934500284493" lon="7.10348398424685"><ele></ele><time>2013-8-10T0:36:0Z</time></trkpt>
<trkpt lat="46.659294040873647" lon="7.101338971406221"><ele></ele><time>2013-8-10T0:36:3Z</time></trkpt>
<trkpt lat="46.659265039488673" lon="7.101221038028598"><ele></ele><time>2013-8-10T0:36:6Z</time></trkpt>
<trkpt lat="46.659224973991513" lon="7.101106038317084"><ele></ele><time>2013-8-10T0:36:9Z</time></trkpt>
<trkpt lat="46.65917401202023" lon="7.101002018898726"><ele></ele><time>2013-8-10T0:36:12Z</time></trkpt>
<trkpt lat="46.65910997428" lon="7.100913003087044"><ele></ele><time>2013-8-10T0:36:15Z</time></trkpt>
<trkpt lat="46.659036967903376" lon="7.100843014195561"><ele></ele><time>2013-8-10T0:36:18Z</time></trkpt>
<trkpt lat="46.658954992890358" lon="7.100793980062008"><ele></ele><time>2013-8-10T0:36:21Z</time></trkpt>
<trkpt lat="46.658866982907057" lon="7.100765984505415"><ele></ele><time>2013-8-10T0:36:24Z</time></trkpt>
<trkpt lat="46.658776039257646" lon="7.100757015869021"><ele></ele><time>2013-8-10T0:36:27Z</time></trkpt>
<trkpt lat="46.658681994304061" lon="7.100765984505415"><ele></ele><time>2013-8-10T0:36:30Z</time></trkpt>
<trkpt lat="46.658586021512747" lon="7.100779982283711"><ele></ele><time>2013-8-10T0:36:33Z</time></trkpt>
<trkpt lat="46.658387035131454" lon="7.100803032517433"><ele></ele><time>2013-8-10T0:36:36Z</time></trkpt>
<trkpt lat="46.65797296911478" lon="7.100847037509084"><ele></ele><time>2013-8-10T0:36:39Z</time></trkpt>
<trkpt lat="46.657866016030312" lon="7.100832033902407"><ele></ele><time>2013-8-10T0:36:42Z</time></trkpt>
<trkpt lat="46.657761996611953" lon="7.100799009203911"><ele></ele><time>2013-8-10T0:36:45Z</time></trkpt>
<trkpt lat="46.657660994678736" lon="7.100747963413596"><ele></ele><time>2013-8-10T0:36:48Z</time></trkpt>
<trkpt lat="46.65756301023066" lon="7.100679986178875"><ele></ele><time>2013-8-10T0:36:51Z</time></trkpt>
<trkpt lat="46.657468965277076" lon="7.100597005337477"><ele></ele><time>2013-8-10T0:36:54Z</time></trkpt>
<trkpt lat="46.657385984435678" lon="7.100502038374543"><ele></ele><time>2013-8-10T0:36:57Z</time></trkpt>
<trkpt lat="46.657308032736182" lon="7.100401036441326"><ele></ele><time>2013-8-10T0:37:0Z</time></trkpt>
<trkpt lat="46.656730016693473" lon="7.099626967683434"><ele></ele><time>2013-8-10T0:37:3Z</time></trkpt>
<trkpt lat="46.656426005065441" lon="7.099297977983952"><ele></ele><time>2013-8-10T0:37:6Z</time></trkpt>
<trkpt lat="46.656339000910521" lon="7.099236035719514"><ele></ele><time>2013-8-10T0:37:9Z</time></trkpt>
<trkpt lat="46.656249985098839" lon="7.099188007414341"><ele></ele><time>2013-8-10T0:37:12Z</time></trkpt>
<trkpt lat="46.656157029792666" lon="7.099150959402323"><ele></ele><time>2013-8-10T0:37:15Z</time></trkpt>
<trkpt lat="46.656063990667462" lon="7.099121036008"><ele></ele><time>2013-8-10T0:37:18Z</time></trkpt>
<trkpt lat="46.655968017876148" lon="7.09909999743104"><ele></ele><time>2013-8-10T0:37:21Z</time></trkpt>
<trkpt lat="46.655680015683174" lon="7.099040988832712"><ele></ele><time>2013-8-10T0:37:24Z</time></trkpt>
<trkpt lat="46.655585970729589" lon="7.098982986062765"><ele></ele><time>2013-8-10T0:37:27Z</time></trkpt>
<trkpt lat="46.655499972403049" lon="7.098898999392986"><ele></ele><time>2013-8-10T0:37:30Z</time></trkpt>
<trkpt lat="46.655427971854806" lon="7.098789028823376"><ele></ele><time>2013-8-10T0:37:33Z</time></trkpt>
<trkpt lat="46.655381033197045" lon="7.098652990534902"><ele></ele><time>2013-8-10T0:37:36Z</time></trkpt>
<trkpt lat="46.655358988791704" lon="7.098503960296512"><ele></ele><time>2013-8-10T0:37:39Z</time></trkpt>
<trkpt lat="46.655355971306562" lon="7.098354008048773"><ele></ele><time>2013-8-10T0:37:42Z</time></trkpt>
<trkpt lat="46.655366029590368" lon="7.098212018609047"><ele></ele><time>2013-8-10T0:37:45Z</time></trkpt>
<trkpt lat="46.655383966863155" lon="7.098073968663812"><ele></ele><time>2013-8-10T0:37:48Z</time></trkpt>
<trkpt lat="46.655406011268497" lon="7.097937008365989"><ele></ele><time>2013-8-10T0:37:51Z</time></trkpt>
<trkpt lat="46.655527967959642" lon="7.096829004585743"><ele></ele><time>2013-8-10T0:37:54Z</time></trkpt>
<trkpt lat="46.655515981838107" lon="7.096686009317636"><ele></ele><time>2013-8-10T0:37:57Z</time></trkpt>
<trkpt lat="46.655497960746288" lon="7.096545025706291"><ele></ele><time>2013-8-10T0:38:0Z</time></trkpt>
<trkpt lat="46.655239965766668" lon="7.094882978126407"><ele></ele><time>2013-8-10T0:38:3Z</time></trkpt>
<trkpt lat="46.654991023242474" lon="7.093893997371197"><ele></ele><time>2013-8-10T0:38:6Z</time></trkpt>
<trkpt lat="46.654937965795398" lon="7.09377002902329"><ele></ele><time>2013-8-10T0:38:9Z</time></trkpt>
<trkpt lat="46.654908964410424" lon="7.093713032081723"><ele></ele><time>2013-8-10T0:38:12Z</time></trkpt>
<trkpt lat="46.654556002467871" lon="7.09304197691381"><ele></ele><time>2013-8-10T0:38:15Z</time></trkpt>
<trkpt lat="46.654208991676569" lon="7.092430014163256"><ele></ele><time>2013-8-10T0:38:18Z</time></trkpt>
<trkpt lat="46.653848988935351" lon="7.091806987300515"><ele></ele><time>2013-8-10T0:38:21Z</time></trkpt>
<trkpt lat="46.65350298397243" lon="7.091369032859802"><ele></ele><time>2013-8-10T0:38:24Z</time></trkpt>
<trkpt lat="46.65296302177012" lon="7.091088993474841"><ele></ele><time>2013-8-10T0:38:27Z</time></trkpt>
<trkpt lat="46.652429010719061" lon="7.090797973796725"><ele></ele><time>2013-8-10T0:38:30Z</time></trkpt>
<trkpt lat="46.65197697468102" lon="7.090503014624119"><ele></ele><time>2013-8-10T0:38:33Z</time></trkpt>
<trkpt lat="46.651407005265355" lon="7.090153992176056"><ele></ele><time>2013-8-10T0:38:36Z</time></trkpt>
<trkpt lat="46.651014983654022" lon="7.089804969727993"><ele></ele><time>2013-8-10T0:38:39Z</time></trkpt>
<trkpt lat="46.650591026991606" lon="7.089057974517345"><ele></ele><time>2013-8-10T0:38:42Z</time></trkpt>
<trkpt lat="46.650319034233689" lon="7.08833402954042"><ele></ele><time>2013-8-10T0:38:45Z</time></trkpt>
<trkpt lat="46.650253990665078" lon="7.088092966005206"><ele></ele><time>2013-8-10T0:38:48Z</time></trkpt>
<trkpt lat="46.650235969573259" lon="7.088037980720401"><ele></ele><time>2013-8-10T0:38:51Z</time></trkpt>
<trkpt lat="46.650213003158569" lon="7.087986012920737"><ele></ele><time>2013-8-10T0:38:54Z</time></trkpt>
<trkpt lat="46.649816958233714" lon="7.086949003860354"><ele></ele><time>2013-8-10T0:38:57Z</time></trkpt>
<trkpt lat="46.649403981864452" lon="7.085894979536533"><ele></ele><time>2013-8-10T0:39:0Z</time></trkpt>
<trkpt lat="46.648848010227084" lon="7.084771972149611"><ele></ele><time>2013-8-10T0:39:3Z</time></trkpt>
<trkpt lat="46.648327996954322" lon="7.083764970302582"><ele></ele><time>2013-8-10T0:39:6Z</time></trkpt>
<trkpt lat="46.647649984806776" lon="7.082425961270928"><ele></ele><time>2013-8-10T0:39:9Z</time></trkpt>
<trkpt lat="46.64709996432066" lon="7.081217039376497"><ele></ele><time>2013-8-10T0:39:12Z</time></trkpt>
<trkpt lat="46.646625967696309" lon="7.079908959567547"><ele></ele><time>2013-8-10T0:39:15Z</time></trkpt>
<trkpt lat="46.646201005205512" lon="7.078713029623032"><ele></ele><time>2013-8-10T0:39:18Z</time></trkpt>
<trkpt lat="46.645963964983821" lon="7.078049015253782"><ele></ele><time>2013-8-10T0:39:21Z</time></trkpt>
<trkpt lat="46.645563980564475" lon="7.076960038393736"><ele></ele><time>2013-8-10T0:39:24Z</time></trkpt>
<trkpt lat="46.645534979179502" lon="7.07686398178339"><ele></ele><time>2013-8-10T0:39:27Z</time></trkpt>
<trkpt lat="46.645525004714727" lon="7.076763985678554"><ele></ele><time>2013-8-10T0:39:30Z</time></trkpt>
<trkpt lat="46.645541014149785" lon="7.076671030372381"><ele></ele><time>2013-8-10T0:39:33Z</time></trkpt>
<trkpt lat="46.64557596668601" lon="7.076587965711951"><ele></ele><time>2013-8-10T0:39:36Z</time></trkpt>
<trkpt lat="46.645619971677661" lon="7.076501967385411"><ele></ele><time>2013-8-10T0:39:39Z</time></trkpt>
<trkpt lat="46.6461549885571" lon="7.07550804130733"><ele></ele><time>2013-8-10T0:39:42Z</time></trkpt>
<trkpt lat="46.646251967176795" lon="7.075369991362095"><ele></ele><time>2013-8-10T0:39:45Z</time></trkpt>
<trkpt lat="46.646302007138729" lon="7.075307965278625"><ele></ele><time>2013-8-10T0:39:48Z</time></trkpt>
<trkpt lat="46.647032992914319" lon="7.074287971481681"><ele></ele><time>2013-8-10T0:39:51Z</time></trkpt>
<trkpt lat="46.647762972861528" lon="7.073670979589224"><ele></ele><time>2013-8-10T0:39:54Z</time></trkpt>
<trkpt lat="46.647831033915281" lon="7.073651030659676"><ele></ele><time>2013-8-10T0:39:57Z</time></trkpt>
<trkpt lat="46.647901022806764" lon="7.073639966547489"><ele></ele><time>2013-8-10T0:40:0Z</time></trkpt>
<trkpt lat="46.648119958117604" lon="7.07361800596118"><ele></ele><time>2013-8-10T0:40:3Z</time></trkpt>
<trkpt lat="46.648192964494228" lon="7.073592022061348"><ele></ele><time>2013-8-10T0:40:6Z</time></trkpt>
<trkpt lat="46.648266976699233" lon="7.073550028726459"><ele></ele><time>2013-8-10T0:40:9Z</time></trkpt>
<trkpt lat="46.648339983075857" lon="7.073486996814609"><ele></ele><time>2013-8-10T0:40:12Z</time></trkpt>
<trkpt lat="46.648401003330946" lon="7.07340401597321"><ele></ele><time>2013-8-10T0:40:15Z</time></trkpt>
<trkpt lat="46.64845297113061" lon="7.073302008211613"><ele></ele><time>2013-8-10T0:40:18Z</time></trkpt>
<trkpt lat="46.648499993607402" lon="7.073190025985241"><ele></ele><time>2013-8-10T0:40:21Z</time></trkpt>
<trkpt lat="46.648548021912575" lon="7.073076032102108"><ele></ele><time>2013-8-10T0:40:24Z</time></trkpt>
<trkpt lat="46.648596972227097" lon="7.072962960228324"><ele></ele><time>2013-8-10T0:40:27Z</time></trkpt>
<trkpt lat="46.649101981893182" lon="7.071842970326543"><ele></ele><time>2013-8-10T0:40:30Z</time></trkpt>
<trkpt lat="46.649138024076819" lon="7.071783961728215"><ele></ele><time>2013-8-10T0:40:33Z</time></trkpt>
<trkpt lat="46.649172976613045" lon="7.071727970615029"><ele></ele><time>2013-8-10T0:40:36Z</time></trkpt>
<trkpt lat="46.649499032646418" lon="7.071273000910878"><ele></ele><time>2013-8-10T0:40:39Z</time></trkpt>
<trkpt lat="46.649584025144577" lon="7.071193959563971"><ele></ele><time>2013-8-10T0:40:42Z</time></trkpt>
<trkpt lat="46.650219960138202" lon="7.070856001228094"><ele></ele><time>2013-8-10T0:40:45Z</time></trkpt>
<trkpt lat="46.650521960109472" lon="7.070752987638116"><ele></ele><time>2013-8-10T0:40:48Z</time></trkpt>
<trkpt lat="46.650570994243026" lon="7.070748964324594"><ele></ele><time>2013-8-10T0:40:51Z</time></trkpt>
<trkpt lat="46.65062103420496" lon="7.070748964324594"><ele></ele><time>2013-8-10T0:40:54Z</time></trkpt>
<trkpt lat="46.650821026414633" lon="7.070744019001722"><ele></ele><time>2013-8-10T0:40:57Z</time></trkpt>
<trkpt lat="46.650866037234664" lon="7.070725997909904"><ele></ele><time>2013-8-10T0:41:0Z</time></trkpt>
<trkpt lat="46.650910964235663" lon="7.070693979039788"><ele></ele><time>2013-8-10T0:41:3Z</time></trkpt>
<trkpt lat="46.650996040552855" lon="7.070613009855151"><ele></ele><time>2013-8-10T0:41:6Z</time></trkpt>
<trkpt lat="46.65103099308908" lon="7.070563975721598"><ele></ele><time>2013-8-10T0:41:9Z</time></trkpt>
<trkpt lat="46.651055971160531" lon="7.070503039285541"><ele></ele><time>2013-8-10T0:41:12Z</time></trkpt>
<trkpt lat="46.65107499808073" lon="7.070436989888549"><ele></ele><time>2013-8-10T0:41:15Z</time></trkpt>
<trkpt lat="46.65109402500093" lon="7.070368006825447"><ele></ele><time>2013-8-10T0:41:18Z</time></trkpt>
<trkpt lat="46.651140041649342" lon="7.070226017385721"><ele></ele><time>2013-8-10T0:41:21Z</time></trkpt>
<trkpt lat="46.651176000013947" lon="7.070162985473871"><ele></ele><time>2013-8-10T0:41:24Z</time></trkpt>
<trkpt lat="46.651216987520456" lon="7.070104982703924"><ele></ele><time>2013-8-10T0:41:27Z</time></trkpt>
<trkpt lat="46.651836996898055" lon="7.069329991936684"><ele></ele><time>2013-8-10T0:41:30Z</time></trkpt>
<trkpt lat="46.652476033195853" lon="7.068543015047908"><ele></ele><time>2013-8-10T0:41:33Z</time></trkpt>
<trkpt lat="46.653065029531717" lon="7.067785961553454"><ele></ele><time>2013-8-10T0:41:36Z</time></trkpt>
<trkpt lat="46.65363198146224" lon="7.066752975806594"><ele></ele><time>2013-8-10T0:41:39Z</time></trkpt>
<trkpt lat="46.65369400754571" lon="7.066580979153514"><ele></ele><time>2013-8-10T0:41:42Z</time></trkpt>
<trkpt lat="46.654100026935339" lon="7.065288992598653"><ele></ele><time>2013-8-10T0:41:45Z</time></trkpt>
<trkpt lat="46.654259031638503" lon="7.064818013459444"><ele></ele><time>2013-8-10T0:41:48Z</time></trkpt>
<trkpt lat="46.654292978346348" lon="7.064747018739581"><ele></ele><time>2013-8-10T0:41:51Z</time></trkpt>
<trkpt lat="46.654330026358366" lon="7.06467904150486"><ele></ele><time>2013-8-10T0:41:54Z</time></trkpt>
<trkpt lat="46.654371013864875" lon="7.064619027078152"><ele></ele><time>2013-8-10T0:41:57Z</time></trkpt>
<trkpt lat="46.654416024684906" lon="7.064566975459456"><ele></ele><time>2013-8-10T0:42:0Z</time></trkpt>
<trkpt lat="46.65446799248457" lon="7.064525987952948"><ele></ele><time>2013-8-10T0:42:3Z</time></trkpt>
<trkpt lat="46.654521971940994" lon="7.064494974911213"><ele></ele><time>2013-8-10T0:42:6Z</time></trkpt>
<trkpt lat="46.65457796305418" lon="7.064472008496523"><ele></ele><time>2013-8-10T0:42:9Z</time></trkpt>
<trkpt lat="46.654633032158017" lon="7.064458010718226"><ele></ele><time>2013-8-10T0:42:12Z</time></trkpt>
<trkpt lat="46.654687011614442" lon="7.064451975747943"><ele></ele><time>2013-8-10T0:42:15Z</time></trkpt>
<trkpt lat="46.654740991070867" lon="7.064453987404704"><ele></ele><time>2013-8-10T0:42:18Z</time></trkpt>
<trkpt lat="46.654842998832464" lon="7.064467985183001"><ele></ele><time>2013-8-10T0:42:21Z</time></trkpt>
<trkpt lat="46.654891027137637" lon="7.064477037638426"><ele></ele><time>2013-8-10T0:42:24Z</time></trkpt>
<trkpt lat="46.654938971623778" lon="7.064486006274819"><ele></ele><time>2013-8-10T0:42:27Z</time></trkpt>
<trkpt lat="46.654985994100571" lon="7.064493969082832"><ele></ele><time>2013-8-10T0:42:30Z</time></trkpt>
<trkpt lat="46.655037039890885" lon="7.064492963254452"><ele></ele><time>2013-8-10T0:42:33Z</time></trkpt>
<trkpt lat="46.655085990205407" lon="7.064490029588342"><ele></ele><time>2013-8-10T0:42:36Z</time></trkpt>
<trkpt lat="46.655136030167341" lon="7.064494974911213"><ele></ele><time>2013-8-10T0:42:39Z</time></trkpt>
<trkpt lat="46.655183974653482" lon="7.064501009881496"><ele></ele><time>2013-8-10T0:42:42Z</time></trkpt>
<trkpt lat="46.655474994331598" lon="7.064522970467806"><ele></ele><time>2013-8-10T0:42:45Z</time></trkpt>
<trkpt lat="46.655831979587674" lon="7.064445018768311"><ele></ele><time>2013-8-10T0:42:48Z</time></trkpt>
<trkpt lat="46.655847989022732" lon="7.064403025433421"><ele></ele><time>2013-8-10T0:42:51Z</time></trkpt>
<trkpt lat="46.655856035649776" lon="7.064349967986345"><ele></ele><time>2013-8-10T0:42:54Z</time></trkpt>
<trkpt lat="46.655860980972648" lon="7.064291965216398"><ele></ele><time>2013-8-10T0:42:57Z</time></trkpt>
<trkpt lat="46.655861986801028" lon="7.064232034608722"><ele></ele><time>2013-8-10T0:43:0Z</time></trkpt>
<trkpt lat="46.65584203787148" lon="7.063813023269176"><ele></ele><time>2013-8-10T0:43:3Z</time></trkpt>
<trkpt lat="46.655890988186002" lon="7.063085976988077"><ele></ele><time>2013-8-10T0:43:6Z</time></trkpt>
<trkpt lat="46.655961982905865" lon="7.062590019777417"><ele></ele><time>2013-8-10T0:43:9Z</time></trkpt>
<trkpt lat="46.656107995659113" lon="7.062060032039881"><ele></ele><time>2013-8-10T0:43:12Z</time></trkpt>
<trkpt lat="46.656235987320542" lon="7.061529038473964"><ele></ele><time>2013-8-10T0:43:15Z</time></trkpt>
<trkpt lat="46.656233975663781" lon="7.061035009101033"><ele></ele><time>2013-8-10T0:43:18Z</time></trkpt>
<trkpt lat="46.656072037294507" lon="7.060522958636284"><ele></ele><time>2013-8-10T0:43:21Z</time></trkpt>
<trkpt lat="46.655975980684161" lon="7.060074023902416"><ele></ele><time>2013-8-10T0:43:24Z</time></trkpt>
<trkpt lat="46.655984027311206" lon="7.060045022517443"><ele></ele><time>2013-8-10T0:43:27Z</time></trkpt>
<trkpt lat="46.655992995947599" lon="7.060014009475708"><ele></ele><time>2013-8-10T0:43:30Z</time></trkpt>
<trkpt lat="46.656136997044086" lon="7.059777975082397"><ele></ele><time>2013-8-10T0:43:33Z</time></trkpt>
<trkpt lat="46.656170021742582" lon="7.059770012274384"><ele></ele><time>2013-8-10T0:43:36Z</time></trkpt>
<trkpt lat="46.656187037006021" lon="7.059765988960862"><ele></ele><time>2013-8-10T0:43:39Z</time></trkpt>
<trkpt lat="46.656204974278808" lon="7.059760959818959"><ele></ele><time>2013-8-10T0:43:42Z</time></trkpt>
<trkpt lat="46.656222995370626" lon="7.05975903198123"><ele></ele><time>2013-8-10T0:43:45Z</time></trkpt>
<trkpt lat="46.656256020069122" lon="7.05976297147572"><ele></ele><time>2013-8-10T0:43:48Z</time></trkpt>
<trkpt lat="46.656491970643401" lon="7.059778980910778"><ele></ele><time>2013-8-10T0:43:51Z</time></trkpt>
<trkpt lat="46.656800005584955" lon="7.059745034202933"><ele></ele><time>2013-8-10T0:43:54Z</time></trkpt>
<trkpt lat="46.657093036919832" lon="7.05963003449142"><ele></ele><time>2013-8-10T0:43:57Z</time></trkpt>
<trkpt lat="46.657339967787266" lon="7.059493996202946"><ele></ele><time>2013-8-10T0:44:0Z</time></trkpt>
<trkpt lat="46.65760600939393" lon="7.059325017035007"><ele></ele><time>2013-8-10T0:44:3Z</time></trkpt>
<trkpt lat="46.657806001603603" lon="7.059097029268742"><ele></ele><time>2013-8-10T0:44:6Z</time></trkpt>
<trkpt lat="46.657954026013613" lon="7.058756975457072"><ele></ele><time>2013-8-10T0:44:9Z</time></trkpt>
<trkpt lat="46.658049998804927" lon="7.058418011292815"><ele></ele><time>2013-8-10T0:44:12Z</time></trkpt>
<trkpt lat="46.658124011009932" lon="7.058052979409695"><ele></ele><time>2013-8-10T0:44:15Z</time></trkpt>
<trkpt lat="46.65814203210175" lon="7.057770006358624"><ele></ele><time>2013-8-10T0:44:18Z</time></trkpt>
<trkpt lat="46.658157035708427" lon="7.05744001083076"><ele></ele><time>2013-8-10T0:44:21Z</time></trkpt>
<trkpt lat="46.658161981031299" lon="7.057070033624768"><ele></ele><time>2013-8-10T0:44:24Z</time></trkpt>
<trkpt lat="46.658167010173202" lon="7.056758981198072"><ele></ele><time>2013-8-10T0:44:27Z</time></trkpt>
<trkpt lat="46.658160975202918" lon="7.056596037000418"><ele></ele><time>2013-8-10T0:44:30Z</time></trkpt>
<trkpt lat="46.658162986859679" lon="7.056577010080218"><ele></ele><time>2013-8-10T0:44:33Z</time></trkpt>
<trkpt lat="46.658161981031299" lon="7.056557983160019"><ele></ele><time>2013-8-10T0:44:36Z</time></trkpt>
<trkpt lat="46.658162986859679" lon="7.056539040058851"><ele></ele><time>2013-8-10T0:44:39Z</time></trkpt>
<trkpt lat="46.65816399268806" lon="7.056519007310271"><ele></ele><time>2013-8-10T0:44:42Z</time></trkpt>
<trkpt lat="46.658172039315104" lon="7.05619596876204"><ele></ele><time>2013-8-10T0:44:45Z</time></trkpt>
<trkpt lat="46.658176984637976" lon="7.056141989305615"><ele></ele><time>2013-8-10T0:44:48Z</time></trkpt>
<trkpt lat="46.658183019608259" lon="7.056031012907624"><ele></ele><time>2013-8-10T0:44:51Z</time></trkpt>
<trkpt lat="46.658183019608259" lon="7.056012991815805"><ele></ele><time>2013-8-10T0:44:54Z</time></trkpt>
<trkpt lat="46.65818402543664" lon="7.055993964895606"><ele></ele><time>2013-8-10T0:44:57Z</time></trkpt>
<trkpt lat="46.658186037093401" lon="7.0559770334512"><ele></ele><time>2013-8-10T0:45:0Z</time></trkpt>
<trkpt lat="46.65818796493113" lon="7.055962029844522"><ele></ele><time>2013-8-10T0:45:3Z</time></trkpt>
<trkpt lat="46.65818503126502" lon="7.055946020409465"><ele></ele><time>2013-8-10T0:45:6Z</time></trkpt>
<trkpt lat="46.65816399268806" lon="7.055649971589446"><ele></ele><time>2013-8-10T0:45:9Z</time></trkpt>
<trkpt lat="46.658156029880047" lon="7.055632034316659"><ele></ele><time>2013-8-10T0:45:12Z</time></trkpt>
<trkpt lat="46.658151000738144" lon="7.05561401322484"><ele></ele><time>2013-8-10T0:45:15Z</time></trkpt>
<trkpt lat="46.65814395993948" lon="7.055596997961402"><ele></ele><time>2013-8-10T0:45:18Z</time></trkpt>
<trkpt lat="46.658139014616609" lon="7.055580988526344"><ele></ele><time>2013-8-10T0:45:21Z</time></trkpt>
<trkpt lat="46.658133985474706" lon="7.055563973262906"><ele></ele><time>2013-8-10T0:45:24Z</time></trkpt>
<trkpt lat="46.658127028495073" lon="7.055546035990119"><ele></ele><time>2013-8-10T0:45:27Z</time></trkpt>
<trkpt lat="46.658117976039648" lon="7.055531032383442"><ele></ele><time>2013-8-10T0:45:30Z</time></trkpt>
<trkpt lat="46.658106995746493" lon="7.055516028776765"><ele></ele><time>2013-8-10T0:45:33Z</time></trkpt>
<trkpt lat="46.658097021281719" lon="7.055503036826849"><ele></ele><time>2013-8-10T0:45:36Z</time></trkpt>
<trkpt lat="46.657921001315117" lon="7.055361969396472"><ele></ele><time>2013-8-10T0:45:39Z</time></trkpt>
<trkpt lat="46.657884959131479" lon="7.055326011031866"><ele></ele><time>2013-8-10T0:45:42Z</time></trkpt>
<trkpt lat="46.657875990495086" lon="7.055311007425189"><ele></ele><time>2013-8-10T0:45:45Z</time></trkpt>
<trkpt lat="46.657867021858692" lon="7.05529298633337"><ele></ele><time>2013-8-10T0:45:48Z</time></trkpt>
<trkpt lat="46.657841959968209" lon="7.055014036595821"><ele></ele><time>2013-8-10T0:45:51Z</time></trkpt>
<trkpt lat="46.657871967181563" lon="7.054880009964108"><ele></ele><time>2013-8-10T0:45:54Z</time></trkpt>
<trkpt lat="46.65788403712213" lon="7.054831981658936"><ele></ele><time>2013-8-10T0:45:57Z</time></trkpt>
<trkpt lat="46.657884959131479" lon="7.054813960567117"><ele></ele><time>2013-8-10T0:46:0Z</time></trkpt>
<trkpt lat="46.657887976616621" lon="7.05479602329433"><ele></ele><time>2013-8-10T0:46:3Z</time></trkpt>
<trkpt lat="46.657889988273382" lon="7.05477699637413"><ele></ele><time>2013-8-10T0:46:6Z</time></trkpt>
<trkpt lat="46.657889988273382" lon="7.054757969453931"><ele></ele><time>2013-8-10T0:46:9Z</time></trkpt>
<trkpt lat="46.657891999930143" lon="7.054737014696002"><ele></ele><time>2013-8-10T0:46:12Z</time></trkpt>
<trkpt lat="46.657894011586905" lon="7.054715976119041"><ele></ele><time>2013-8-10T0:46:15Z</time></trkpt>
<trkpt lat="46.657897029072046" lon="7.054698038846254"><ele></ele><time>2013-8-10T0:46:18Z</time></trkpt>
<trkpt lat="46.657899040728807" lon="7.054681023582816"><ele></ele><time>2013-8-10T0:46:21Z</time></trkpt>
<trkpt lat="46.657901974394917" lon="7.054664008319378"><ele></ele><time>2013-8-10T0:46:24Z</time></trkpt>
<trkpt lat="46.657901974394917" lon="7.054645987227559"><ele></ele><time>2013-8-10T0:46:27Z</time></trkpt>
<trkpt lat="46.657922007143497" lon="7.054333006963134"><ele></ele><time>2013-8-10T0:46:30Z</time></trkpt>
<trkpt lat="46.657938016578555" lon="7.053987002000213"><ele></ele><time>2013-8-10T0:46:33Z</time></trkpt>
<trkpt lat="46.657942961901426" lon="7.053951965644956"><ele></ele><time>2013-8-10T0:46:36Z</time></trkpt>
<trkpt lat="46.657943967729807" lon="7.053932016715407"><ele></ele><time>2013-8-10T0:46:39Z</time></trkpt>
<trkpt lat="46.657945979386568" lon="7.053908966481686"><ele></ele><time>2013-8-10T0:46:42Z</time></trkpt>
<trkpt lat="46.657946985214949" lon="7.053887005895376"><ele></ele><time>2013-8-10T0:46:45Z</time></trkpt>
<trkpt lat="46.657951008528471" lon="7.053867978975177"><ele></ele><time>2013-8-10T0:46:48Z</time></trkpt>
<trkpt lat="46.657953020185232" lon="7.053848030045629"><ele></ele><time>2013-8-10T0:46:51Z</time></trkpt>
<trkpt lat="46.65795000270009" lon="7.053829003125429"><ele></ele><time>2013-8-10T0:46:54Z</time></trkpt>
<trkpt lat="46.657947991043329" lon="7.053811987861991"><ele></ele><time>2013-8-10T0:46:57Z</time></trkpt>
<trkpt lat="46.65795000270009" lon="7.053794972598553"><ele></ele><time>2013-8-10T0:47:0Z</time></trkpt>
<trkpt lat="46.657954026013613" lon="7.053780974820256"><ele></ele><time>2013-8-10T0:47:3Z</time></trkpt>
<trkpt lat="46.657979004085064" lon="7.053610989823937"><ele></ele><time>2013-8-10T0:47:6Z</time></trkpt>
<trkpt lat="46.657986966893077" lon="7.053592968732119"><ele></ele><time>2013-8-10T0:47:9Z</time></trkpt>
<trkpt lat="46.658085035160184" lon="7.053389037027955"><ele></ele><time>2013-8-10T0:47:12Z</time></trkpt>
<trkpt lat="46.658231969922781" lon="7.053220979869366"><ele></ele><time>2013-8-10T0:47:15Z</time></trkpt>
<trkpt lat="46.658254014328122" lon="7.053182004019618"><ele></ele><time>2013-8-10T0:47:18Z</time></trkpt>
<trkpt lat="46.658258037641644" lon="7.053168006241322"><ele></ele><time>2013-8-10T0:47:21Z</time></trkpt>
<trkpt lat="46.658262982964516" lon="7.053153002634645"><ele></ele><time>2013-8-10T0:47:24Z</time></trkpt>
<trkpt lat="46.658267006278038" lon="7.053137999027967"><ele></ele><time>2013-8-10T0:47:27Z</time></trkpt>
<trkpt lat="46.65827396325767" lon="7.053125007078052"><ele></ele><time>2013-8-10T0:47:30Z</time></trkpt>
<trkpt lat="46.658370019868016" lon="7.052862988784909"><ele></ele><time>2013-8-10T0:47:33Z</time></trkpt>
<trkpt lat="46.658475967124104" lon="7.052522012963891"><ele></ele><time>2013-8-10T0:47:36Z</time></trkpt>
<trkpt lat="46.658546961843967" lon="7.052144994959235"><ele></ele><time>2013-8-10T0:47:39Z</time></trkpt>
<trkpt lat="46.658577974885702" lon="7.051663035526872"><ele></ele><time>2013-8-10T0:47:42Z</time></trkpt>
<trkpt lat="46.658537993207574" lon="7.051210999488831"><ele></ele><time>2013-8-10T0:47:45Z</time></trkpt>
<trkpt lat="46.658472027629614" lon="7.050889972597361"><ele></ele><time>2013-8-10T0:47:48Z</time></trkpt>
<trkpt lat="46.658459035679698" lon="7.050828030332923"><ele></ele><time>2013-8-10T0:47:51Z</time></trkpt>
<trkpt lat="46.658458029851317" lon="7.05080296844244"><ele></ele><time>2013-8-10T0:47:54Z</time></trkpt>
<trkpt lat="46.658456018194556" lon="7.05078000202775"><ele></ele><time>2013-8-10T0:47:57Z</time></trkpt>
<trkpt lat="46.658428022637963" lon="7.050573974847794"><ele></ele><time>2013-8-10T0:48:0Z</time></trkpt>
<trkpt lat="46.658419976010919" lon="7.050327965989709"><ele></ele><time>2013-8-10T0:48:3Z</time></trkpt>
<trkpt lat="46.658408995717764" lon="7.050018003210425"><ele></ele><time>2013-8-10T0:48:6Z</time></trkpt>
<trkpt lat="46.658406984061003" lon="7.049953965470195"><ele></ele><time>2013-8-10T0:48:9Z</time></trkpt>
<trkpt lat="46.658415030688047" lon="7.049930999055505"><ele></ele><time>2013-8-10T0:48:12Z</time></trkpt>
<trkpt lat="46.658423999324441" lon="7.049909960478544"><ele></ele><time>2013-8-10T0:48:15Z</time></trkpt>
<trkpt lat="46.658431962132454" lon="7.049887999892235"><ele></ele><time>2013-8-10T0:48:18Z</time></trkpt>
<trkpt lat="46.658437997102737" lon="7.049866961315274"><ele></ele><time>2013-8-10T0:48:21Z</time></trkpt>
<trkpt lat="46.65844302624464" lon="7.049845000728965"><ele></ele><time>2013-8-10T0:48:24Z</time></trkpt>
<trkpt lat="46.658447971567512" lon="7.049823040142655"><ele></ele><time>2013-8-10T0:48:27Z</time></trkpt>
<trkpt lat="46.658489964902401" lon="7.049570996314287"><ele></ele><time>2013-8-10T0:48:30Z</time></trkpt>
<trkpt lat="46.65840002708137" lon="7.049359017983079"><ele></ele><time>2013-8-10T0:48:33Z</time></trkpt>
<trkpt lat="46.65814203210175" lon="7.049249969422817"><ele></ele><time>2013-8-10T0:48:36Z</time></trkpt>
<trkpt lat="46.657897029072046" lon="7.049164976924658"><ele></ele><time>2013-8-10T0:48:39Z</time></trkpt>
</trkseg></trk></gpx>